[[{"header":{"parameterUnit":"m.s-1","parameterCategory":1,"la1":31.0,"la2":29.5877,"lo1":-88.7671,"lo2":-86.6584,"dy":0.0162,"dx":0.0185,"nx":115,"ny":88,"refTime":"2023-02-24T18:00:00:Z","depth":0,"parameterNumber":2,"parameterNumberName":"U-component_of_WINDS"},"data":[0.0,0.0,0.0,0.0,0.0,0.0,0.0,0.0,0.0,0.0,0.0,0.0,0.0,0.0,0.0,0.0,0.0,0.0,0.0,0.0,0.0,0.0,0.0,0.0,0.0,0.0,0.0,0.0,0.0,0.0,0.0,0.0,0.0,0.0,0.0,0.0,0.0,0.0,0.0,0.0,0.0,0.0,0.0,0.0,0.0,0.0,0.0,0.0,0.0,0.0,0.0,0.0,0.0,0.0,0.0,0.0,0.0,0.0,0.0,0.0,0.0,0.0,0.0,0.0,0.0,0.0,0.0,0.0,0.0,0.0,0.0,0.0,0.0,0.0,0.0,0.0,0.0,0.0,0.0,0.0,0.0,0.0,0.0,0.0,0.0,0.0,0.0,0.0,0.0,0.0,0.0,0.0,0.0,0.0,0.0,0.0,0.0,0.0,0.0,0.0,0.0,0.0,0.0,0.0,0.0,0.0,0.0,0.0,0.0,0.0,0.0,0.0,0.0,0.0,0.0,0.0,0.0,0.0,0.0,0.0,0.0,0.0,0.0,0.0,0.0,0.0,0.0,0.0,0.0,0.0,0.0,0.0,0.0,0.0,0.0,0.0,0.0,0.0,0.0,0.0,0.0,0.0,0.0,0.0,0.0,0.0,0.0,0.0,0.0,0.0,0.0,0.0,0.0,0.0,0.0,0.0,0.0,0.0,0.0,0.0,0.0,0.0,0.0,0.0,0.0,0.0,0.0,0.0,0.0,0.0,0.0,0.0,0.0,0.0,0.0,0.0,0.0,0.0,0.0,0.0,0.0,0.0,0.0,0.0,0.0,0.0,0.0,0.0,0.0,0.0,0.0,0.0,0.0,0.0,0.0,0.0,0.0,0.0,0.0,0.0,0.0,0.0,0.0,0.0,0.0,0.0,0.0,0.0,0.0,0.0,0.0,0.0,0.0,0.0,0.0,0.0,0.0,0.0,0.0,0.0,0.0,0.0,0.0,0.0,0.0,0.0,0.0,0.0,0.0,0.0,0.0,0.0,0.0,0.0,0.0,0.0,0.0,0.0,0.0,0.0,0.0,0.0,0.0,0.0,0.0,0.0,0.0,0.0,0.0,0.0,0.0,0.0,0.0,0.0,0.0,0.0,0.0,0.0,0.0,0.0,0.0,0.0,0.0,0.0,0.0,0.0,0.0,0.0,0.0,0.0,0.0,0.0,0.0,0.0,0.0,0.0,0.0,0.0,0.0,0.0,0.0,0.0,0.0,0.0,0.0,0.0,0.0,0.0,0.0,0.0,0.0,0.0,0.0,0.0,0.0,0.0,0.0,0.0,0.0,0.0,0.0,0.0,0.0,0.0,0.0,0.0,0.0,0.0,0.0,0.0,0.0,0.0,0.0,0.0,0.0,0.0,0.0,0.0,0.0,0.0,0.0,0.0,0.0,0.0,0.0,0.0,0.0,0.0,0.0,0.0,0.0,0.0,0.0,0.0,0.0,0.0,0.0,0.0,0.0,0.0,0.0,0.0,0.0,0.0,0.0,0.0,0.0,0.0,0.0,0.0,0.0,0.0,0.0,0.0,0.0,0.0,0.0,0.0,0.0,0.0,0.0,0.0,0.0,0.0,0.0,0.0,0.0,0.0,0.0,0.0,0.0,0.0,0.0,0.0,0.0,0.0,0.0,0.0,0.0,0.0,0.0,0.0,0.0,0.0,0.0,0.0,0.0,0.0,0.0,0.0,0.0,0.0,0.0,0.0,0.0,0.0,0.0,0.0,0.0,0.0,0.0,0.0,0.0,0.0,0.0,0.0,0.0,0.0,0.0,0.0,0.0,0.0,0.0,0.0,0.0,0.0,0.0,0.0,0.0,0.0,0.0,0.0,0.0,0.0,0.0,0.0,0.0,0.0,0.0,0.0,0.0,0.0,0.0,0.0,0.0,0.0,0.0,0.0,0.0,0.0,0.0,0.0,0.0,0.0,0.0,0.0,0.0,0.0,0.0,0.0,0.0,0.0,0.0,0.0,0.0,0.0,0.0,0.0,0.0,0.0,0.0,0.0,0.0,0.0,0.0,0.0,0.0,0.0,0.0,0.0,0.0,0.0,0.0,0.0,0.0,0.0,0.0,0.0,0.0,0.0,0.0,0.0,0.0,0.0,0.0,0.0,0.0,0.0,0.0,0.0,0.0,0.0,0.0,0.0,0.0,0.0,0.0,0.0,0.0,0.0,0.0,0.0,0.0,0.0,0.0,0.0,0.0,0.0,0.0,0.0,0.0,0.0,0.0,0.0,0.0,0.0,0.0,0.0,0.0,0.0,0.0,0.0,0.0,0.0,0.0,0.0,0.0,0.0,0.0,0.0,0.0,0.0,0.0,0.0,0.0,0.0,0.0,0.0,0.0,0.0,0.0,0.0,0.0,0.0,0.0,0.0,0.0,0.0,0.0,0.0,0.0,0.0,0.0,0.0,0.0,0.0,0.0,0.0,0.0,0.0,0.0,0.0,0.0,0.0,0.0,0.0,0.0,0.0,0.0,0.0,0.0,0.0,0.0,0.0,0.0,0.0,0.0,0.0,0.0,0.0,0.0,0.0,0.0,0.0,0.0,0.0,0.0,0.0,0.0,0.0,0.0,0.0,0.0,0.0,0.0,0.0,0.0,0.0,0.0,0.0,0.0,0.0,0.0,0.0,0.0,0.0,0.0,0.0,0.0,0.0,0.0,0.0,0.0,0.0,0.0,0.0,0.0,0.0,0.0,0.0,0.0,0.0,0.0,0.0,0.0,0.0,0.0,0.0,0.0,0.0,0.0,0.0,0.0,0.0,0.0,0.0,0.0,0.0,0.0,0.0,0.0,0.0,0.0,0.0,0.0,0.0,0.0,0.0,0.0,0.0,0.0,0.0,0.0,0.0,0.0,0.0,0.0,0.0,0.0,0.0,0.0,0.0,0.0,0.0,0.0,0.0,0.0,0.0,0.0,0.0,0.0,0.0,0.0,0.0,0.0,0.0,0.0,0.0,0.0,0.0,0.0,0.0,0.0,0.0,0.0,0.0,0.0,0.0,0.0,0.0,0.0,0.0,0.0,0.0,0.0,0.0,0.0,0.0,0.0,0.0,0.0,0.0,0.0,0.0,0.0,0.0,0.0,0.0,0.0,0.0,0.0,0.0,0.0,0.0,0.0,0.0,0.0,0.0,0.0,0.0,0.0,0.0,0.0,0.0,0.0,0.0,0.0,0.0,0.0,0.0,0.0,0.0,0.0,0.0,0.0,0.0,0.0,0.0,0.0,0.0,0.0,0.0,0.0,0.0,0.0,0.0,0.0,0.0,0.0,0.0,0.0,0.0,0.0,0.0,0.0,0.0,0.0,0.0,0.0,0.0,0.0,0.0,0.0,0.0,0.0,0.0,0.0,0.0,0.0,0.0,0.0,0.0,0.0,0.0,0.0,0.0,0.0,0.0,0.0,0.0,0.0,0.0,0.0,0.0,0.0,0.0,0.0,0.0,0.0,0.0,0.0,0.0,0.0,0.0,0.0,0.0,0.0,0.0,0.0,0.0,0.0,0.0,0.0,0.0,0.0,0.0,0.0,0.0,0.0,0.0,0.0,0.0,0.0,0.0,0.0,0.0,0.0,0.0,0.0,0.0,0.0,0.0,0.0,0.0,0.0,0.0,0.0,0.0,0.0,0.0,0.0,0.0,0.0,0.0,0.0,0.0,0.0,0.0,0.0,0.0,0.0,0.0,0.0,0.0,0.0,0.0,0.0,0.0,0.0,0.0,0.0,0.0,0.0,0.0,0.0,0.0,0.0,0.0,0.0,0.0,0.0,0.0,0.0,0.0,0.0,0.0,0.0,0.0,0.0,0.0,0.0,0.0,0.0,0.0,0.0,0.0,0.0,0.0,0.0,0.0,0.0,0.0,0.0,0.0,0.0,0.0,0.0,0.0,0.0,0.0,0.0,0.0,0.0,0.0,0.0,0.0,0.0,0.0,0.0,0.0,0.0,0.0,0.0,0.0,0.0,0.0,0.0,0.0,0.0,0.0,0.0,0.0,0.0,0.0,0.0,0.0,0.0,0.0,0.0,0.0,0.0,0.0,0.0,0.0,0.0,0.0,0.0,0.0,0.0,0.0,0.0,0.0,0.0,0.0,0.0,0.0,0.0,0.0,0.0,0.0,0.0,0.0,0.0,0.0,0.0,0.0,0.0,0.0,0.0,0.0,0.0,0.0,0.0,0.0,0.0,0.0,0.0,0.0,0.0,0.0,0.0,0.0,0.0,0.0,0.0,0.0,-2.0635,0.0,0.0,0.0,0.0,0.0,0.0,0.0,0.0,0.0,0.0,0.0,0.0,0.0,0.0,0.0,0.0,0.0,0.0,0.0,0.0,0.0,0.0,0.0,0.0,0.0,0.0,0.0,0.0,0.0,0.0,0.0,0.0,0.0,0.0,0.0,0.0,0.0,0.0,0.0,0.0,0.0,0.0,0.0,0.0,0.0,0.0,0.0,0.0,0.0,0.0,0.0,0.0,0.0,0.0,0.0,0.0,0.0,0.0,0.0,0.0,0.0,0.0,0.0,0.0,0.0,0.0,0.0,0.0,0.0,0.0,0.0,0.0,0.0,0.0,0.0,0.0,0.0,0.0,0.0,0.0,0.0,0.0,0.0,0.0,0.0,0.0,0.0,0.0,0.0,0.0,0.0,0.0,0.0,0.0,0.0,0.0,0.0,0.0,0.0,0.0,0.0,0.0,0.0,0.0,0.0,0.0,0.0,0.0,0.0,0.0,-2.1006,-2.1103,-2.1135,-2.1119,-2.1006,0.0,0.0,0.0,0.0,0.0,0.0,0.0,0.0,0.0,0.0,0.0,0.0,0.0,0.0,0.0,0.0,0.0,0.0,0.0,0.0,0.0,0.0,0.0,0.0,0.0,0.0,0.0,0.0,0.0,0.0,0.0,0.0,0.0,0.0,0.0,0.0,0.0,0.0,0.0,0.0,0.0,0.0,0.0,0.0,0.0,0.0,0.0,0.0,0.0,0.0,0.0,0.0,0.0,0.0,0.0,0.0,0.0,0.0,0.0,0.0,0.0,0.0,0.0,0.0,0.0,0.0,0.0,0.0,0.0,0.0,0.0,0.0,0.0,0.0,0.0,0.0,0.0,0.0,0.0,0.0,0.0,0.0,0.0,0.0,0.0,0.0,0.0,0.0,0.0,0.0,0.0,0.0,0.0,0.0,0.0,0.0,0.0,0.0,0.0,0.0,0.0,0.0,0.0,0.0,0.0,0.0,0.0,0.0,0.0,0.0,0.0,0.0,-2.1325,-2.1262,-2.1167,0.0,0.0,0.0,0.0,0.0,0.0,0.0,0.0,0.0,0.0,0.0,0.0,0.0,0.0,0.0,0.0,0.0,0.0,0.0,0.0,0.0,0.0,0.0,0.0,0.0,0.0,0.0,0.0,0.0,0.0,0.0,0.0,0.0,0.0,0.0,0.0,0.0,0.0,0.0,0.0,0.0,0.0,0.0,0.0,0.0,0.0,0.0,0.0,0.0,0.0,0.0,0.0,0.0,0.0,0.0,0.0,0.0,0.0,0.0,0.0,0.0,0.0,0.0,0.0,0.0,0.0,0.0,0.0,0.0,0.0,0.0,0.0,0.0,0.0,0.0,0.0,0.0,0.0,0.0,0.0,0.0,0.0,0.0,0.0,0.0,0.0,0.0,0.0,0.0,0.0,0.0,0.0,0.0,0.0,0.0,0.0,0.0,0.0,0.0,0.0,0.0,0.0,0.0,0.0,0.0,0.0,0.0,0.0,0.0,0.0,-2.1573,-2.1664,-2.1648,0.0,-2.1119,0.0,0.0,0.0,0.0,0.0,0.0,0.0,0.0,0.0,0.0,0.0,0.0,0.0,0.0,0.0,0.0,0.0,0.0,0.0,0.0,0.0,0.0,0.0,0.0,0.0,0.0,0.0,0.0,0.0,0.0,0.0,0.0,0.0,0.0,0.0,0.0,0.0,0.0,0.0,0.0,0.0,0.0,0.0,0.0,0.0,0.0,0.0,0.0,0.0,0.0,0.0,0.0,0.0,0.0,0.0,0.0,0.0,0.0,0.0,0.0,0.0,0.0,0.0,0.0,0.0,0.0,0.0,0.0,0.0,0.0,0.0,0.0,0.0,0.0,0.0,0.0,0.0,0.0,0.0,0.0,0.0,0.0,0.0,0.0,0.0,0.0,0.0,0.0,0.0,0.0,0.0,0.0,0.0,0.0,0.0,0.0,0.0,0.0,0.0,0.0,0.0,0.0,0.0,0.0,0.0,0.0,0.0,0.0,0.0,0.0,-2.1886,-2.1991,-2.1886,-2.1648,0.0,0.0,0.0,0.0,0.0,0.0,0.0,0.0,0.0,0.0,0.0,0.0,0.0,0.0,0.0,0.0,0.0,0.0,0.0,0.0,0.0,0.0,0.0,0.0,0.0,0.0,0.0,0.0,0.0,0.0,0.0,0.0,0.0,0.0,0.0,0.0,0.0,0.0,0.0,0.0,0.0,0.0,0.0,0.0,0.0,0.0,0.0,0.0,0.0,0.0,0.0,0.0,0.0,0.0,0.0,0.0,0.0,0.0,0.0,0.0,0.0,0.0,0.0,0.0,0.0,0.0,0.0,0.0,0.0,0.0,0.0,0.0,0.0,0.0,0.0,0.0,0.0,0.0,0.0,0.0,0.0,0.0,0.0,0.0,0.0,0.0,0.0,0.0,0.0,0.0,0.0,0.0,0.0,0.0,0.0,0.0,0.0,0.0,0.0,0.0,0.0,0.0,0.0,0.0,0.0,0.0,0.0,0.0,0.0,0.0,-2.2032,-2.2158,-2.2304,-2.2073,-2.1764,-2.1386,0.0,0.0,0.0,0.0,0.0,0.0,0.0,0.0,0.0,0.0,0.0,0.0,0.0,0.0,0.0,0.0,0.0,0.0,0.0,0.0,0.0,0.0,0.0,0.0,0.0,0.0,0.0,0.0,0.0,0.0,0.0,0.0,0.0,0.0,0.0,0.0,0.0,0.0,0.0,0.0,0.0,0.0,0.0,0.0,0.0,0.0,0.0,0.0,0.0,0.0,0.0,0.0,0.0,0.0,0.0,0.0,0.0,0.0,0.0,0.0,0.0,0.0,0.0,0.0,0.0,0.0,0.0,0.0,0.0,0.0,0.0,0.0,0.0,0.0,0.0,0.0,0.0,0.0,0.0,0.0,0.0,0.0,0.0,0.0,0.0,0.0,0.0,0.0,0.0,0.0,0.0,0.0,0.0,0.0,0.0,0.0,0.0,0.0,0.0,0.0,0.0,0.0,0.0,0.0,0.0,0.0,0.0,0.0,-2.2163,-2.2304,-2.2443,-2.2579,-2.2254,-2.1953,0.0,0.0,0.0,0.0,0.0,0.0,0.0,0.0,0.0,0.0,0.0,0.0,0.0,0.0,0.0,0.0,0.0,0.0,0.0,0.0,0.0,0.0,0.0,0.0,0.0,0.0,0.0,0.0,0.0,0.0,0.0,0.0,0.0,0.0,0.0,0.0,0.0,0.0,0.0,0.0,0.0,0.0,0.0,0.0,0.0,0.0,0.0,0.0,0.0,0.0,0.0,0.0,0.0,0.0,0.0,0.0,0.0,0.0,0.0,0.0,0.0,0.0,0.0,0.0,0.0,0.0,0.0,0.0,0.0,0.0,0.0,0.0,0.0,0.0,0.0,0.0,0.0,0.0,0.0,0.0,0.0,0.0,0.0,0.0,0.0,0.0,0.0,0.0,0.0,0.0,0.0,0.0,0.0,0.0,0.0,0.0,0.0,0.0,0.0,0.0,0.0,0.0,0.0,0.0,0.0,0.0,0.0,0.0,0.0,-2.2192,-2.2497,-2.2712,-2.2842,-2.2544,-2.2169,0.0,0.0,0.0,0.0,0.0,0.0,0.0,0.0,0.0,0.0,0.0,0.0,0.0,0.0,0.0,0.0,0.0,0.0,0.0,0.0,0.0,0.0,0.0,0.0,0.0,0.0,0.0,0.0,0.0,0.0,0.0,0.0,0.0,0.0,0.0,0.0,0.0,0.0,0.0,0.0,0.0,0.0,0.0,0.0,0.0,0.0,0.0,0.0,0.0,0.0,0.0,0.0,0.0,0.0,0.0,0.0,0.0,0.0,0.0,0.0,0.0,0.0,0.0,0.0,0.0,0.0,0.0,0.0,0.0,0.0,0.0,0.0,0.0,0.0,0.0,0.0,0.0,0.0,0.0,0.0,0.0,0.0,0.0,0.0,0.0,0.0,0.0,0.0,0.0,0.0,0.0,0.0,0.0,0.0,0.0,0.0,0.0,0.0,0.0,0.0,0.0,0.0,0.0,0.0,0.0,0.0,0.0,0.0,0.0,-2.2453,0.0,-2.2952,-2.3095,-2.2703,-2.2292,0.0,0.0,0.0,0.0,0.0,0.0,0.0,0.0,0.0,0.0,0.0,0.0,0.0,0.0,0.0,0.0,0.0,0.0,0.0,0.0,0.0,0.0,0.0,0.0,0.0,0.0,0.0,0.0,0.0,0.0,0.0,0.0,0.0,0.0,0.0,0.0,0.0,0.0,0.0,0.0,0.0,0.0,0.0,0.0,0.0,0.0,0.0,0.0,0.0,0.0,0.0,0.0,0.0,0.0,0.0,0.0,0.0,0.0,0.0,0.0,0.0,0.0,0.0,0.0,0.0,0.0,0.0,0.0,0.0,0.0,0.0,0.0,0.0,0.0,0.0,0.0,0.0,0.0,0.0,0.0,0.0,0.0,0.0,0.0,0.0,0.0,0.0,0.0,0.0,0.0,0.0,0.0,0.0,0.0,0.0,0.0,0.0,0.0,0.0,0.0,0.0,0.0,0.0,0.0,0.0,0.0,0.0,0.0,-2.2392,-2.2952,-2.307,-2.3151,-2.3289,-2.2704,-2.2214,0.0,0.0,0.0,0.0,0.0,0.0,0.0,0.0,0.0,0.0,0.0,0.0,0.0,0.0,0.0,0.0,0.0,0.0,0.0,0.0,0.0,0.0,0.0,0.0,0.0,0.0,0.0,0.0,0.0,0.0,0.0,0.0,0.0,0.0,0.0,0.0,0.0,0.0,0.0,0.0,0.0,0.0,0.0,0.0,0.0,0.0,0.0,0.0,0.0,0.0,0.0,0.0,0.0,0.0,0.0,0.0,0.0,0.0,0.0,0.0,0.0,0.0,0.0,0.0,0.0,0.0,0.0,0.0,0.0,0.0,0.0,0.0,0.0,0.0,0.0,0.0,0.0,0.0,0.0,0.0,0.0,0.0,0.0,0.0,0.0,0.0,0.0,0.0,0.0,0.0,0.0,0.0,0.0,0.0,0.0,0.0,0.0,0.0,0.0,0.0,0.0,0.0,0.0,0.0,0.0,0.0,0.0,0.0,0.0,-2.3052,-2.3217,-2.3313,-2.336,-2.2883,-2.2334,0.0,0.0,0.0,0.0,0.0,0.0,0.0,0.0,0.0,0.0,0.0,0.0,0.0,0.0,0.0,0.0,0.0,0.0,0.0,0.0,0.0,0.0,0.0,0.0,0.0,0.0,0.0,0.0,0.0,0.0,0.0,0.0,0.0,0.0,0.0,0.0,0.0,0.0,0.0,0.0,0.0,0.0,0.0,0.0,0.0,0.0,0.0,0.0,0.0,0.0,0.0,0.0,0.0,0.0,0.0,0.0,0.0,0.0,0.0,0.0,0.0,0.0,0.0,0.0,0.0,0.0,0.0,0.0,0.0,0.0,0.0,0.0,0.0,0.0,0.0,0.0,0.0,0.0,0.0,0.0,0.0,0.0,0.0,0.0,0.0,0.0,0.0,0.0,0.0,0.0,0.0,0.0,0.0,0.0,0.0,0.0,0.0,0.0,0.0,0.0,0.0,0.0,0.0,0.0,0.0,0.0,0.0,0.0,0.0,-2.28,-2.32,-2.3453,-2.3499,-2.294,-2.2405,-2.1799,0.0,0.0,0.0,0.0,0.0,0.0,0.0,0.0,0.0,0.0,0.0,0.0,0.0,0.0,0.0,0.0,0.0,0.0,0.0,0.0,0.0,0.0,0.0,0.0,0.0,0.0,0.0,0.0,0.0,0.0,0.0,0.0,0.0,0.0,0.0,0.0,0.0,0.0,0.0,0.0,0.0,0.0,0.0,0.0,0.0,0.0,0.0,0.0,0.0,0.0,0.0,0.0,0.0,0.0,0.0,0.0,0.0,0.0,0.0,0.0,0.0,0.0,0.0,0.0,0.0,0.0,0.0,0.0,0.0,0.0,0.0,0.0,0.0,0.0,0.0,0.0,0.0,0.0,0.0,0.0,0.0,0.0,0.0,0.0,0.0,0.0,0.0,0.0,0.0,0.0,0.0,0.0,0.0,0.0,0.0,0.0,0.0,0.0,0.0,0.0,0.0,0.0,0.0,0.0,0.0,0.0,0.0,0.0,-2.2307,-2.3088,-2.3585,-2.366,-2.2989,-2.2361,0.0,0.0,0.0,0.0,0.0,0.0,0.0,0.0,0.0,0.0,0.0,0.0,0.0,0.0,0.0,0.0,0.0,0.0,0.0,0.0,0.0,0.0,0.0,0.0,0.0,0.0,0.0,0.0,0.0,0.0,0.0,0.0,0.0,0.0,0.0,0.0,0.0,0.0,0.0,0.0,0.0,0.0,0.0,0.0,0.0,0.0,0.0,0.0,0.0,0.0,0.0,0.0,0.0,0.0,0.0,0.0,0.0,0.0,0.0,0.0,0.0,0.0,0.0,0.0,0.0,0.0,0.0,0.0,0.0,0.0,0.0,0.0,0.0,0.0,0.0,0.0,0.0,0.0,0.0,0.0,0.0,0.0,0.0,0.0,0.0,0.0,0.0,0.0,0.0,0.0,0.0,0.0,0.0,0.0,0.0,0.0,0.0,0.0,0.0,0.0,0.0,0.0,0.0,0.0,0.0,0.0,0.0,0.0,0.0,-2.2428,-2.3264,-2.37,-2.37,-2.3063,-2.2441,0.0,0.0,0.0,0.0,0.0,0.0,0.0,0.0,0.0,0.0,0.0,0.0,0.0,0.0,0.0,0.0,0.0,0.0,0.0,0.0,0.0,0.0,0.0,0.0,0.0,0.0,0.0,0.0,0.0,0.0,0.0,0.0,0.0,0.0,0.0,0.0,0.0,0.0,0.0,0.0,0.0,0.0,0.0,0.0,0.0,0.0,0.0,0.0,0.0,0.0,0.0,0.0,0.0,0.0,0.0,0.0,0.0,0.0,0.0,0.0,0.0,0.0,0.0,0.0,0.0,0.0,0.0,0.0,0.0,0.0,0.0,0.0,0.0,0.0,0.0,0.0,0.0,0.0,0.0,0.0,0.0,0.0,0.0,0.0,0.0,0.0,0.0,0.0,0.0,0.0,0.0,0.0,0.0,0.0,0.0,0.0,0.0,0.0,0.0,0.0,0.0,0.0,0.0,0.0,0.0,0.0,0.0,0.0,-2.1399,-2.1988,-2.3145,-2.3721,-2.3638,-2.3087,-2.2451,0.0,0.0,0.0,0.0,0.0,0.0,0.0,0.0,0.0,0.0,0.0,0.0,0.0,0.0,0.0,0.0,0.0,0.0,0.0,0.0,0.0,0.0,0.0,0.0,0.0,0.0,0.0,0.0,0.0,0.0,0.0,0.0,0.0,0.0,0.0,0.0,0.0,0.0,0.0,0.0,0.0,0.0,0.0,0.0,0.0,0.0,0.0,0.0,0.0,0.0,0.0,0.0,0.0,0.0,0.0,0.0,0.0,0.0,0.0,0.0,0.0,0.0,0.0,0.0,0.0,0.0,0.0,0.0,0.0,0.0,0.0,0.0,0.0,0.0,0.0,0.0,0.0,0.0,0.0,0.0,0.0,0.0,0.0,0.0,0.0,0.0,0.0,0.0,0.0,0.0,0.0,0.0,0.0,0.0,0.0,0.0,0.0,0.0,0.0,0.0,0.0,0.0,0.0,0.0,0.0,0.0,0.0,0.0,-2.0771,-2.1305,-2.2872,-2.3656,-2.3571,-2.3038,-2.2407,0.0,0.0,0.0,0.0,0.0,0.0,0.0,0.0,0.0,0.0,0.0,0.0,0.0,0.0,0.0,0.0,0.0,0.0,0.0,0.0,0.0,0.0,0.0,0.0,0.0,0.0,0.0,0.0,0.0,0.0,0.0,0.0,0.0,0.0,0.0,0.0,0.0,0.0,0.0,0.0,0.0,0.0,0.0,0.0,0.0,0.0,0.0,0.0,0.0,0.0,0.0,0.0,0.0,0.0,0.0,0.0,0.0,0.0,0.0,0.0,0.0,0.0,0.0,0.0,0.0,0.0,0.0,0.0,0.0,0.0,0.0,0.0,0.0,0.0,0.0,0.0,0.0,0.0,0.0,0.0,0.0,0.0,0.0,0.0,0.0,0.0,0.0,0.0,0.0,0.0,0.0,0.0,0.0,0.0,0.0,0.0,0.0,0.0,0.0,0.0,0.0,0.0,0.0,0.0,0.0,0.0,0.0,0.0,-2.0823,-2.1243,-2.283,-2.3611,-2.3453,-2.2933,-2.2317,0.0,0.0,0.0,0.0,0.0,0.0,0.0,0.0,0.0,0.0,0.0,0.0,0.0,0.0,0.0,0.0,0.0,0.0,0.0,0.0,0.0,0.0,0.0,0.0,0.0,0.0,0.0,0.0,0.0,0.0,0.0,0.0,0.0,0.0,0.0,0.0,0.0,0.0,0.0,0.0,0.0,0.0,0.0,0.0,0.0,0.0,0.0,0.0,-1.659,0.0,0.0,0.0,0.0,0.0,0.0,0.0,0.0,0.0,0.0,0.0,0.0,0.0,0.0,0.0,0.0,0.0,0.0,0.0,0.0,0.0,0.0,0.0,0.0,0.0,0.0,0.0,0.0,0.0,0.0,0.0,0.0,0.0,0.0,0.0,0.0,0.0,0.0,0.0,0.0,0.0,0.0,0.0,0.0,0.0,0.0,0.0,0.0,0.0,0.0,0.0,0.0,0.0,0.0,0.0,0.0,0.0,0.0,0.0,-2.0855,-2.1176,-2.274,-2.3453,-2.3217,-2.2695,-2.2113,0.0,0.0,0.0,0.0,0.0,0.0,0.0,0.0,0.0,0.0,0.0,0.0,0.0,0.0,0.0,0.0,0.0,0.0,0.0,0.0,0.0,0.0,0.0,0.0,0.0,0.0,0.0,0.0,0.0,0.0,0.0,0.0,0.0,0.0,0.0,0.0,0.0,0.0,0.0,0.0,0.0,0.0,0.0,0.0,0.0,0.0,0.0,0.0,0.0,0.0,0.0,0.0,0.0,0.0,0.0,0.0,0.0,0.0,0.0,0.0,0.0,0.0,0.0,0.0,0.0,0.0,0.0,0.0,0.0,0.0,0.0,0.0,0.0,0.0,0.0,0.0,0.0,0.0,0.0,0.0,0.0,0.0,0.0,0.0,0.0,0.0,0.0,0.0,0.0,0.0,0.0,0.0,0.0,0.0,0.0,0.0,0.0,0.0,0.0,0.0,0.0,0.0,0.0,0.0,0.0,0.0,0.0,-1.9594,-2.0666,-2.1089,-2.2437,-2.3041,-2.2795,-2.2405,-2.1824,-2.1079,0.0,0.0,0.0,0.0,0.0,0.0,0.0,0.0,0.0,0.0,0.0,0.0,0.0,0.0,0.0,0.0,0.0,0.0,0.0,0.0,0.0,0.0,0.0,0.0,0.0,0.0,0.0,0.0,0.0,0.0,0.0,0.0,0.0,0.0,0.0,0.0,0.0,0.0,-1.4329,-1.5044,0.0,0.0,0.0,0.0,0.0,0.0,0.0,0.0,-1.6392,0.0,0.0,0.0,0.0,0.0,0.0,0.0,0.0,0.0,0.0,0.0,0.0,0.0,0.0,0.0,0.0,0.0,0.0,0.0,0.0,0.0,0.0,0.0,0.0,0.0,0.0,0.0,0.0,0.0,0.0,0.0,0.0,0.0,0.0,0.0,0.0,0.0,0.0,0.0,0.0,0.0,0.0,0.0,0.0,0.0,0.0,0.0,0.0,0.0,0.0,0.0,0.0,0.0,0.0,0.0,0.0,-1.7652,-1.8987,-2.0031,-2.0762,-2.172,-2.2083,-2.1856,-2.2014,-2.1446,-2.0065,0.0,0.0,0.0,0.0,0.0,0.0,0.0,0.0,0.0,0.0,0.0,0.0,0.0,0.0,0.0,0.0,0.0,0.0,0.0,0.0,0.0,0.0,0.0,0.0,0.0,0.0,0.0,0.0,0.0,0.0,0.0,0.0,0.0,0.0,0.0,0.0,0.0,0.0,0.0,-1.5474,-1.5908,0.0,0.0,0.0,0.0,0.0,0.0,0.0,0.0,-1.6293,0.0,0.0,0.0,0.0,0.0,0.0,0.0,0.0,0.0,0.0,0.0,0.0,0.0,0.0,0.0,0.0,0.0,0.0,0.0,0.0,0.0,0.0,0.0,0.0,0.0,0.0,0.0,0.0,0.0,0.0,0.0,0.0,0.0,0.0,0.0,0.0,0.0,0.0,0.0,0.0,0.0,0.0,0.0,0.0,0.0,0.0,0.0,0.0,0.0,0.0,0.0,0.0,0.0,0.0,0.0,-1.7776,-1.8861,-1.9669,-2.003,-2.0807,-2.1114,-2.0889,-2.088,-2.048,0.0,0.0,0.0,0.0,0.0,0.0,0.0,0.0,0.0,0.0,0.0,0.0,0.0,0.0,0.0,0.0,0.0,0.0,0.0,0.0,0.0,0.0,0.0,0.0,0.0,0.0,0.0,0.0,0.0,0.0,0.0,0.0,0.0,0.0,0.0,0.0,0.0,0.0,0.0,0.0,-1.5958,-1.6208,-1.62,0.0,0.0,0.0,0.0,0.0,0.0,-1.706,-1.6552,0.0,0.0,0.0,0.0,0.0,0.0,0.0,0.0,0.0,0.0,0.0,0.0,0.0,0.0,0.0,0.0,0.0,0.0,0.0,0.0,0.0,0.0,0.0,0.0,0.0,0.0,0.0,0.0,0.0,0.0,0.0,0.0,0.0,0.0,0.0,0.0,0.0,0.0,0.0,0.0,0.0,0.0,0.0,0.0,0.0,0.0,0.0,0.0,0.0,0.0,0.0,0.0,0.0,0.0,0.0,-1.7748,-1.868,-1.9247,-1.9381,-1.9935,-2.013,-1.9947,-1.979,-1.953,0.0,0.0,0.0,0.0,0.0,0.0,0.0,0.0,0.0,0.0,0.0,0.0,0.0,0.0,0.0,0.0,0.0,0.0,0.0,0.0,0.0,0.0,0.0,0.0,0.0,0.0,0.0,0.0,0.0,0.0,0.0,0.0,0.0,0.0,0.0,0.0,0.0,0.0,0.0,0.0,0.0,-1.6472,-1.6465,-1.6437,0.0,0.0,0.0,0.0,-1.7747,-1.7269,0.0,0.0,0.0,0.0,0.0,0.0,0.0,0.0,0.0,0.0,0.0,0.0,0.0,0.0,0.0,0.0,0.0,0.0,0.0,0.0,0.0,0.0,0.0,0.0,0.0,0.0,0.0,0.0,0.0,0.0,0.0,0.0,0.0,0.0,0.0,0.0,0.0,0.0,0.0,0.0,0.0,0.0,0.0,0.0,0.0,0.0,0.0,0.0,0.0,0.0,0.0,0.0,0.0,0.0,0.0,0.0,-1.7679,-1.7985,-1.8516,-1.9178,-1.923,-1.9205,-1.9063,-1.9462,-1.9029,0.0,0.0,0.0,0.0,0.0,0.0,0.0,0.0,0.0,0.0,0.0,0.0,0.0,0.0,0.0,0.0,0.0,0.0,0.0,0.0,0.0,0.0,0.0,0.0,0.0,0.0,0.0,0.0,0.0,0.0,0.0,0.0,0.0,0.0,0.0,0.0,0.0,0.0,0.0,0.0,0.0,-1.6649,-1.6642,-1.6557,-1.6681,0.0,0.0,-1.7909,-1.7962,-1.7598,0.0,0.0,0.0,0.0,0.0,0.0,0.0,0.0,0.0,0.0,0.0,0.0,0.0,0.0,0.0,0.0,0.0,0.0,0.0,0.0,0.0,0.0,0.0,0.0,0.0,0.0,0.0,0.0,0.0,0.0,0.0,0.0,0.0,0.0,0.0,0.0,0.0,0.0,0.0,0.0,0.0,0.0,0.0,0.0,0.0,0.0,0.0,0.0,0.0,0.0,0.0,0.0,0.0,0.0,0.0,-1.8631,-1.7656,-1.7833,-1.812,-1.8449,-1.8399,-1.8115,-1.7551,-1.8053,-1.7831,0.0,0.0,0.0,0.0,0.0,0.0,0.0,0.0,0.0,0.0,0.0,0.0,0.0,0.0,0.0,0.0,0.0,0.0,0.0,0.0,0.0,0.0,0.0,0.0,0.0,0.0,0.0,0.0,0.0,0.0,0.0,0.0,0.0,0.0,0.0,0.0,0.0,0.0,0.0,0.0,0.0,0.0,-1.7211,-1.7197,0.0,0.0,0.0,-1.7935,-1.7935,0.0,0.0,0.0,0.0,0.0,0.0,0.0,0.0,0.0,0.0,0.0,0.0,0.0,0.0,0.0,0.0,0.0,0.0,0.0,0.0,0.0,0.0,0.0,0.0,0.0,0.0,0.0,0.0,0.0,0.0,0.0,0.0,0.0,0.0,0.0,0.0,0.0,0.0,0.0,0.0,0.0,0.0,0.0,0.0,0.0,0.0,0.0,0.0,0.0,0.0,0.0,0.0,0.0,0.0,0.0,0.0,0.0,-1.7552,-1.7726,-1.7816,-1.7816,-1.7772,-1.7339,-1.6537,-1.699,0.0,0.0,0.0,0.0,0.0,0.0,0.0,0.0,0.0,0.0,0.0,0.0,0.0,0.0,0.0,0.0,0.0,0.0,0.0,0.0,0.0,0.0,0.0,0.0,0.0,0.0,0.0,0.0,0.0,0.0,0.0,0.0,0.0,0.0,0.0,0.0,0.0,0.0,0.0,0.0,0.0,0.0,-1.7632,-1.7801,-1.7726,-1.7558,0.0,0.0,-1.7895,-1.7788,-1.7037,-1.6323,0.0,0.0,0.0,0.0,0.0,0.0,0.0,0.0,0.0,0.0,0.0,0.0,0.0,0.0,0.0,0.0,0.0,0.0,0.0,0.0,0.0,0.0,0.0,0.0,0.0,0.0,0.0,0.0,0.0,0.0,0.0,0.0,0.0,0.0,0.0,0.0,0.0,0.0,0.0,0.0,0.0,0.0,0.0,0.0,0.0,0.0,0.0,0.0,0.0,0.0,0.0,0.0,0.0,0.0,0.0,-1.7386,-1.7542,-1.7612,-1.7612,-1.7549,-1.7153,-1.6437,-1.699,-1.6776,0.0,0.0,0.0,0.0,0.0,0.0,0.0,0.0,0.0,0.0,0.0,0.0,0.0,0.0,0.0,0.0,0.0,0.0,0.0,0.0,0.0,0.0,0.0,0.0,0.0,0.0,0.0,0.0,0.0,0.0,0.0,0.0,0.0,0.0,0.0,0.0,0.0,0.0,0.0,0.0,0.0,-1.789,-1.8377,-1.7903,-1.7608,0.0,0.0,-1.7679,-1.7557,-1.6917,-1.623,-1.5706,0.0,0.0,0.0,0.0,0.0,0.0,0.0,0.0,0.0,0.0,0.0,0.0,0.0,0.0,0.0,0.0,0.0,0.0,0.0,0.0,0.0,0.0,0.0,0.0,0.0,0.0,0.0,0.0,0.0,0.0,0.0,0.0,0.0,0.0,0.0,0.0,0.0,0.0,0.0,0.0,0.0,0.0,0.0,0.0,0.0,0.0,0.0,0.0,0.0,0.0,0.0,0.0,0.0,-1.8403,-1.7778,-1.7502,-1.7384,-1.7392,-1.7384,-1.703,-1.6308,-1.6952,-1.6784,0.0,0.0,0.0,0.0,0.0,0.0,0.0,0.0,0.0,0.0,0.0,0.0,0.0,0.0,0.0,0.0,0.0,0.0,0.0,0.0,0.0,0.0,0.0,0.0,0.0,0.0,0.0,0.0,-1.3704,-1.3889,-1.4738,0.0,0.0,0.0,0.0,0.0,0.0,0.0,0.0,0.0,0.0,-1.8145,-1.8369,-1.8138,0.0,0.0,-1.7584,-1.7432,-1.7157,-1.6417,-1.5721,-1.5269,-1.4638,0.0,0.0,0.0,0.0,0.0,0.0,0.0,0.0,0.0,0.0,0.0,0.0,0.0,0.0,0.0,0.0,0.0,0.0,0.0,0.0,0.0,0.0,0.0,0.0,0.0,0.0,0.0,0.0,0.0,0.0,0.0,0.0,0.0,0.0,0.0,0.0,0.0,0.0,0.0,0.0,0.0,0.0,0.0,0.0,0.0,0.0,0.0,0.0,0.0,0.0,0.0,0.0,-1.8271,-1.7925,-1.7374,-1.7117,-1.7167,-1.7167,-1.6856,-1.6226,-1.6912,-1.6849,0.0,0.0,0.0,0.0,0.0,0.0,0.0,0.0,0.0,0.0,0.0,0.0,0.0,0.0,0.0,0.0,0.0,0.0,0.0,0.0,0.0,0.0,0.0,0.0,0.0,0.0,0.0,0.0,-1.4545,-1.4675,-1.5169,0.0,0.0,0.0,0.0,0.0,0.0,0.0,0.0,0.0,0.0,-1.8266,-1.8293,-1.8095,-1.7855,-1.7475,-1.724,-1.7057,-1.6748,-1.5919,-1.5203,-1.4784,0.0,0.0,0.0,0.0,0.0,0.0,0.0,0.0,0.0,0.0,0.0,0.0,0.0,0.0,0.0,0.0,0.0,0.0,0.0,0.0,0.0,0.0,0.0,0.0,0.0,0.0,0.0,0.0,0.0,0.0,-2.2377,0.0,0.0,0.0,0.0,0.0,0.0,0.0,0.0,0.0,0.0,0.0,0.0,0.0,0.0,0.0,0.0,0.0,0.0,0.0,0.0,0.0,0.0,-1.8036,-1.7527,-1.7067,-1.6815,-1.6815,-1.6892,-1.6669,-1.6166,-1.6888,-1.6897,-1.6039,0.0,0.0,0.0,0.0,0.0,0.0,0.0,0.0,0.0,0.0,0.0,0.0,0.0,0.0,0.0,0.0,0.0,0.0,0.0,0.0,0.0,0.0,0.0,0.0,0.0,0.0,-1.5439,-1.5721,-1.5856,0.0,0.0,0.0,0.0,0.0,0.0,0.0,0.0,0.0,0.0,-1.8201,-1.8279,-1.8189,-1.7814,-1.7447,-1.7227,-1.682,-1.6448,-1.6244,-1.5539,-1.4869,0.0,0.0,0.0,0.0,0.0,0.0,0.0,0.0,0.0,0.0,0.0,0.0,0.0,0.0,0.0,0.0,0.0,0.0,0.0,0.0,0.0,0.0,0.0,0.0,0.0,0.0,0.0,-2.2659,-2.2685,0.0,0.0,0.0,0.0,0.0,0.0,0.0,0.0,0.0,0.0,0.0,-1.9595,-1.9797,0.0,0.0,0.0,0.0,0.0,0.0,0.0,0.0,0.0,0.0,0.0,0.0,-1.8022,-1.7914,-1.7098,-1.6686,-1.6722,-1.6873,-1.6944,-1.6832,-1.7126,-1.7255,-1.7146,0.0,0.0,0.0,0.0,0.0,0.0,0.0,0.0,0.0,0.0,0.0,0.0,0.0,0.0,0.0,0.0,0.0,0.0,0.0,0.0,0.0,0.0,0.0,0.0,0.0,-1.5914,0.0,0.0,0.0,0.0,0.0,0.0,0.0,0.0,0.0,0.0,0.0,-1.7733,-1.7962,-1.8068,-1.8042,-1.7882,-1.757,-1.7157,0.0,0.0,0.0,0.0,0.0,0.0,0.0,0.0,0.0,0.0,0.0,0.0,0.0,0.0,-1.174,-1.1862,-1.1012,-1.0285,-1.0314,0.0,0.0,0.0,0.0,0.0,0.0,0.0,0.0,0.0,0.0,0.0,0.0,0.0,0.0,-2.3091,0.0,-2.2943,0.0,0.0,0.0,0.0,0.0,0.0,0.0,0.0,-1.9433,-1.9092,-1.8805,-1.9079,-1.912,0.0,-1.9105,-1.9155,0.0,0.0,0.0,0.0,0.0,0.0,0.0,0.0,-1.7882,-1.7838,-1.7014,-1.6607,-1.6712,-1.6821,-1.6956,-1.7124,-1.7174,-1.7268,-1.7368,-1.6664,-1.6713,0.0,0.0,0.0,0.0,0.0,0.0,0.0,0.0,0.0,0.0,0.0,0.0,0.0,0.0,0.0,0.0,0.0,0.0,0.0,0.0,0.0,0.0,0.0,-1.6667,0.0,0.0,0.0,0.0,0.0,0.0,0.0,0.0,0.0,-1.7086,-1.7378,-1.7679,-1.7801,-1.7787,-1.7707,-1.7421,0.0,0.0,0.0,0.0,0.0,0.0,0.0,-1.4536,-1.4035,-1.3658,-1.3372,-1.3142,-1.3075,-1.3027,-1.291,0.0,0.0,-1.1416,-1.0668,-1.0083,-1.0084,-0.97,-0.9298,-0.9386,-0.8554,-0.7656,0.0,0.0,0.0,0.0,0.0,0.0,0.0,0.0,-2.3404,-2.3541,0.0,-2.3315,0.0,0.0,0.0,0.0,0.0,-2.0666,0.0,0.0,-1.8663,-1.8315,-1.8067,-1.8049,-1.7938,-1.7814,-1.8032,-1.8143,-1.8187,-1.8962,0.0,0.0,0.0,0.0,0.0,0.0,-1.7638,-1.731,-1.6808,-1.6591,-1.6696,-1.6722,-1.6805,-1.6988,-1.6988,-1.693,-1.6795,-1.6578,-1.674,-1.7357,-1.7377,0.0,0.0,0.0,0.0,0.0,0.0,0.0,0.0,0.0,0.0,0.0,0.0,0.0,0.0,0.0,0.0,0.0,0.0,0.0,0.0,-1.6989,0.0,0.0,0.0,0.0,0.0,0.0,0.0,0.0,0.0,0.0,-1.696,-1.7225,-1.7391,-1.7488,0.0,0.0,0.0,0.0,-1.5901,-1.5635,-1.5175,-1.4869,-1.4697,-1.4523,-1.4233,-1.381,0.0,0.0,-1.3218,-1.3152,-1.3036,-1.2725,-1.2034,-1.1398,-1.0967,-1.0018,-0.9316,-0.9332,-0.8996,-0.8719,-0.8889,-0.8397,-0.761,-2.0517,0.0,0.0,0.0,0.0,-2.1727,-2.1822,-2.2097,-2.2849,-2.3161,-2.3123,-2.351,0.0,0.0,0.0,0.0,0.0,0.0,-1.8837,-1.8285,-1.7909,-1.7604,-1.741,-1.7805,-1.797,-1.7955,-1.8082,-1.8191,-1.8253,-1.8448,-1.85,-1.8416,0.0,0.0,0.0,0.0,-1.7496,-1.7423,-1.7035,-1.685,-1.685,-1.6901,-1.6892,-1.6873,-1.6805,-1.6753,-1.6675,-1.637,-1.6456,-1.6949,-1.718,0.0,0.0,0.0,0.0,0.0,0.0,0.0,0.0,0.0,0.0,0.0,0.0,0.0,0.0,0.0,0.0,0.0,0.0,0.0,-1.6879,-1.7337,-1.7515,0.0,0.0,0.0,0.0,0.0,0.0,0.0,0.0,0.0,-1.665,-1.6876,-1.7002,0.0,0.0,-1.6637,-1.6293,-1.5944,-1.5546,-1.5187,-1.4903,0.0,-1.4255,-1.4104,-1.38,-1.3314,-1.3142,-1.3113,-1.3045,-1.3142,-1.3045,-1.2764,-1.213,-1.1463,-1.0915,-1.0063,-0.9514,-0.9518,-0.9145,-0.8891,-0.8944,-0.8352,-0.756,-2.0141,-2.0304,-2.0631,-2.1086,-2.1602,-2.1375,-2.1369,-2.1565,-2.2362,-2.2582,-2.2386,-2.2901,-2.3014,-2.2779,-2.2268,0.0,0.0,0.0,-1.8201,-1.7649,-1.7266,-1.7005,-1.6838,-1.7179,-1.7378,-1.7393,-1.7584,-1.77,-1.7786,-1.7798,-1.7754,-1.77,0.0,0.0,-1.7807,-1.7628,-1.744,-1.7293,-1.7133,-1.7009,-1.6984,-1.6866,-1.6738,-1.6649,-1.6554,-1.6474,-1.6436,-1.6234,-1.6315,-1.6773,-1.7164,-1.7544,0.0,0.0,0.0,0.0,0.0,0.0,0.0,0.0,0.0,0.0,0.0,-1.5957,0.0,0.0,0.0,0.0,-1.6663,-1.6778,-1.7086,-1.7337,0.0,0.0,0.0,0.0,0.0,0.0,0.0,-1.6534,-1.6448,-1.6392,-1.6392,-1.6491,-1.6534,-1.6522,-1.6324,-1.6064,-1.568,0.0,-1.5096,-1.4731,-1.4593,-1.4373,-1.4067,-1.3868,-1.3668,-1.3314,-1.319,-1.32,-1.3248,-1.3334,-1.3218,-1.2861,-1.2349,-1.1748,-1.1275,-1.0491,-0.9761,-0.9469,-0.9052,-0.8813,-0.8871,-0.8283,-0.7517,-2.0212,-2.0174,-1.9813,-2.0494,-2.1749,-2.1045,-2.0964,-2.133,-2.196,-2.1966,-2.1519,-2.1859,-2.1872,-2.1534,-2.0834,0.0,-1.9075,-1.8617,-1.7963,-1.7085,-1.6789,-1.6554,-1.6409,-1.6452,-1.6448,-1.6528,-1.6799,-1.6952,-1.7034,-1.7142,-1.7216,-1.7224,-1.7827,-1.7924,-1.7506,-1.7599,-1.746,-1.7034,-1.7075,-1.7092,-1.7083,-1.6701,-1.6448,-1.6398,-1.6262,-1.6194,-1.6194,-1.6123,-1.6285,-1.6713,-1.7326,-1.7818,-1.8083,0.0,0.0,0.0,0.0,0.0,0.0,0.0,0.0,0.0,0.0,0.0,0.0,0.0,0.0,0.0,-1.6876,0.0,-1.696,-1.7073,0.0,0.0,0.0,-1.6833,-1.6718,-1.6565,-1.6534,-1.6534,0.0,0.0,-1.6231,-1.6088,-1.6044,-1.6144,-1.5944,-1.5623,-1.5153,-1.4926,-1.4662,-1.4466,-1.4326,-1.4212,-1.3971,-1.382,-1.3669,-1.3517,-1.3589,-1.3658,-1.3658,-1.3668,-1.3505,-1.3122,-1.2647,-1.2187,-1.1783,-1.1054,-1.025,-0.9337,-0.8835,-0.8616,-0.8679,-0.82,-0.7678,-2.0589,-2.1109,-2.0375,-2.0237,-2.0475,-2.0318,-2.0313,-2.0475,-2.1217,-2.1472,-2.1392,-2.1979,-2.1934,-2.1387,-2.0321,-1.9564,-1.9058,-1.8185,-1.7605,-1.7248,-1.706,-1.685,-1.6659,-1.6686,-1.6686,-1.667,-1.691,-1.7076,-1.7167,-1.7288,-1.7361,-1.7353,-1.7568,-1.7559,-1.7362,-1.7387,-1.7371,-1.7232,-1.7256,-1.7142,-1.6882,-1.6528,-1.6328,-1.6234,-1.6123,-1.6039,-1.6067,-1.5983,-1.596,-1.6038,-1.6975,-1.7426,-1.7314,-1.8058,0.0,0.0,0.0,0.0,0.0,0.0,0.0,0.0,0.0,-1.638,-1.6688,0.0,-1.7073,0.0,-1.682,-1.6723,-1.6607,-1.6833,0.0,0.0,-1.6705,-1.6705,-1.6565,-1.6509,-1.6534,-1.6534,-1.6349,-1.6231,-1.62,-1.6013,-1.5836,-1.5792,-1.5691,-1.5412,-1.4994,-1.5006,-1.4926,-1.4697,-1.4686,-1.4506,-1.3835,-1.3422,-1.3286,-1.3376,-1.3754,-1.4082,-1.4176,-1.414,-1.3894,-1.3409,-1.2987,-1.2445,-1.1759,-1.128,-1.078,-0.9995,-0.9387,-0.895,-0.8892,-0.8464,-0.803,-2.0526,-2.0922,-2.0436,-2.0218,-2.0144,-2.0145,-2.0155,-2.0192,-2.0613,-2.0795,-2.0783,-2.096,-2.0748,-2.0246,-1.9434,-1.8926,-1.8591,-1.7957,-1.7572,-1.7415,-1.7296,-1.715,-1.6977,-1.7002,-1.7027,-1.7027,-1.7224,-1.7361,-1.7432,-1.7479,-1.7542,-1.7509,-1.7509,-1.7462,-1.7392,-1.7368,-1.7337,-1.7288,-1.7076,-1.6866,-1.6596,-1.634,-1.6207,-1.6194,-1.6095,-1.6039,-1.6067,-1.6026,-1.597,-1.5901,-1.6918,-1.7372,-1.7098,-1.7899,-1.824,0.0,0.0,0.0,0.0,0.0,0.0,0.0,0.0,0.0,0.0,0.0,-1.7199,-1.6863,-1.6509,-1.625,-1.6175,-1.6318,-1.6405,-1.6349,-1.6491,-1.6534,-1.6522,-1.6534,-1.6534,-1.6479,-1.6392,-1.6275,-1.6287,-1.61,-1.5981,-1.5937,-1.5869,-1.5668,-1.522,-1.522,-1.5232,-1.5017,-1.5096,-1.4913,-1.4038,-1.3466,-1.3152,-1.3303,-1.3641,-1.3906,-1.3972,-1.3828,-1.355,-1.3045,-1.2589,-1.2161,-1.1618,-1.1176,-1.08,-1.0392,-0.9846,-0.9371,-0.9217,-0.8774,-0.8408,-2.035,-2.0438,-2.035,-2.0292,-2.0304,-2.0227,-2.0216,-2.0211,-2.0205,-2.0125,-2.003,-1.9569,-1.9216,-1.8893,-1.8547,-1.8284,-1.8074,-1.7822,-1.7664,-1.7612,-1.7496,-1.7408,-1.732,-1.7344,-1.7368,-1.7408,-1.7542,-1.7635,-1.7704,-1.7664,-1.7664,-1.7664,-1.7549,-1.7462,-1.7462,-1.7384,-1.7313,-1.7224,-1.6789,-1.6474,-1.6285,-1.6207,-1.6151,-1.6222,-1.6151,-1.6151,-1.6108,-1.6151,-1.6083,-1.593,-1.698,-1.7453,-1.7084,-1.7824,-1.8108,0.0,-1.7253,0.0,0.0,0.0,0.0,0.0,0.0,0.0,0.0,-1.7227,-1.7173,-1.671,-1.6132,-1.5748,-1.5748,-1.5792,-1.5869,-1.6156,-1.6318,-1.6436,-1.6522,-1.6565,-1.6522,-1.6522,-1.6479,-1.6392,-1.6392,-1.6287,-1.62,-1.6231,-1.6293,-1.6139,-1.5668,-1.5623,-1.5668,-1.5433,-1.5416,-1.5018,-1.4344,-1.3633,-1.3152,-1.3286,-1.3493,-1.3522,-1.3497,-1.3278,-1.2964,-1.2489,-1.2047,-1.1606,-1.1358,-1.0894,-1.0605,-1.0501,-1.0084,-0.9749,-0.9536,-0.9156,-0.8881,-2.0677,-2.1216,-2.0581,-2.0292,-2.0292,-2.0296,-2.0277,-2.0285,-2.0227,-2.0049,-1.9762,-1.9453,-1.9157,-1.8877,-1.8491,-1.8263,-1.8091,-1.7878,-1.7749,-1.7664,-1.7641,-1.7572,-1.7462,-1.7526,-1.7542,-1.7486,-1.7549,-1.7612,-1.7595,-1.7572,-1.7509,-1.7472,-1.7368,-1.732,-1.7264,0.0,0.0,0.0,-1.6543,-1.6382,-1.6285,-1.6274,-1.6301,-1.6371,-1.6328,0.0,-1.6274,-1.6179,-1.5996,-1.5799,-1.6684,0.0,0.0,0.0,0.0,0.0,0.0,0.0,0.0,0.0,0.0,0.0,-1.7475,-1.7529,-1.7199,-1.6976,-1.6765,-1.6552,-1.5957,-1.5558,-1.5558,-1.5603,-1.578,-1.6144,-1.6349,-1.6565,-1.6778,-1.6833,-1.6791,-1.6663,-1.6577,-1.6479,-1.6392,-1.6275,-1.6231,-1.6362,-1.6509,-1.6595,-1.6607,-1.6436,-1.6281,-1.6102,-1.5332,-1.4602,-1.4337,-1.3674,-1.3167,-1.3317,-1.3658,-1.3778,-1.3576,-1.3249,-1.2909,-1.2383,-1.191,-1.1349,-1.087,-1.0601,-1.0441,-1.024,-1.0067,-0.989,-0.9694,-0.9511,-0.9346,-2.0523,0.0,-2.0458,-2.0292,0.0,-2.0292,-2.0285,-2.0257,-2.0218,-1.9979,-1.963,-1.9361,-1.9064,-1.8698,-1.8373,-1.8163,-1.7988,-1.7856,-1.7789,-1.7749,-1.7749,-1.7704,-1.7641,-1.7681,-1.7698,-1.7641,-1.7641,-1.7635,-1.7589,-1.7432,-1.7337,-1.7248,-1.7052,-1.6968,-1.6952,-1.6866,-1.6712,-1.6554,-1.6436,-1.6398,-1.6355,-1.6382,-1.6463,-1.6596,0.0,0.0,0.0,0.0,0.0,0.0,0.0,0.0,0.0,0.0,0.0,-1.7975,-1.7733,-1.7543,-1.7461,-1.7488,-1.7516,-1.7598,-1.7841,-1.7895,-1.7693,-1.7173,-1.6795,-1.6595,-1.5856,-1.5435,-1.5513,-1.5558,-1.5768,-1.6219,-1.6552,-1.685,-1.6989,-1.7044,-1.696,-1.6735,-1.6565,-1.6436,-1.6318,-1.6318,-1.6362,-1.6547,-1.6693,-1.6905,-1.7099,-1.6989,-1.6765,-1.6557,-1.5393,-1.4553,-1.444,-1.3627,-1.3022,-1.3058,-1.3164,-1.3167,-1.295,-1.2552,-1.203,-1.145,-1.0969,-1.052,-1.0186,-1.009,-1.0074,-1.0067,-1.0049,-1.001,-0.9902,-0.9813,-0.9686,-2.0292,-2.0292,-2.0292,-2.0292,-2.0292,-2.0292,-2.0277,-2.0186,0.0,0.0,0.0,-1.9277,-1.8895,-1.8491,-1.8252,-1.81,-1.7905,-1.7816,-1.7789,-1.7789,-1.7789,-1.7789,-1.7789,-1.7789,-1.7789,-1.7789,-1.7726,-1.7641,-1.7589,-1.7313,-1.7142,-1.701,-1.6738,-1.6591,-1.667,-1.6659,-1.6607,-1.6565,-1.649,-1.6436,-1.6463,-1.6512,-1.6644,-1.6857,-1.6857,-1.6789,-1.6696,-1.6538,-1.6359,-1.6237,-1.7165,-1.7578,-1.7354,-1.8229,-1.8577,-1.8291,-1.8147,-1.7974,-1.7828,-1.7948,-1.8068,-1.8068,-1.8214,-1.8321,-1.8268,-1.7516,-1.6964,-1.6752,-1.5944,-1.5468,-1.5603,-1.5724,-1.5976,-1.6441,-1.6866,-1.7173,-1.731,-1.7323,-1.7157,-1.6808,-1.6595,-1.6392,-1.6156,-1.6219,-1.6405,-1.6577,-1.6748,-1.6947,-1.7128,-1.7115,-1.6938,-1.6536,-1.5427,-1.4633,-1.4359,-1.357,-1.2851,-1.2769,-1.2579,-1.2365,-1.2004,-1.1553,-1.0971,-1.041,-0.9922,-0.9594,-0.9417,-0.9404,-0.9594,-0.9823,-0.9892,-0.9961,-1.001,-0.9971,-0.9853,-2.0296,-2.0296,-2.0292,-2.0292,-2.0292,-2.0292,-2.0235,-2.0108,-1.999,-1.9738,-1.9409,-1.9095,-1.8771,-1.8505,-1.8222,-1.8031,-1.7905,-1.7816,-1.7789,-1.7789,-1.7789,-1.7789,-1.7789,-1.7789,-1.7789,-1.7789,-1.7681,-1.7589,-1.7486,-1.7191,-1.6968,-1.6841,-1.6633,-1.6554,-1.6607,-1.6712,-1.6815,-1.6901,-1.6701,-1.6581,-1.6644,-1.6773,-1.6933,-1.7041,-1.7057,-1.6949,-1.6696,-1.6474,-1.6509,-1.6936,-1.7374,-1.7855,-1.844,-1.8992,-1.9295,-1.9295,-1.9192,-1.9029,-1.8983,-1.8983,-1.9006,-1.8983,-1.8912,-1.8764,-1.8478,-1.7652,-1.706,-1.6795,-1.625,-1.5957,-1.61,-1.6238,-1.66,-1.7063,-1.7421,-1.7666,-1.7841,-1.7707,-1.738,-1.6837,-1.6595,-1.6306,-1.5913,-1.5957,-1.6088,-1.6275,-1.6479,-1.6552,-1.6502,-1.6735,-1.6574,-1.5923,-1.5144,-1.4418,-1.3888,-1.3265,-1.2733,-1.2579,-1.2354,-1.2054,-1.1627,-1.1094,-1.0467,-0.9825,-0.9315,-0.8952,-0.8862,-0.8716,-0.8903,-0.9274,-0.9408,-0.9527,-0.9704,-0.9616,-0.9567,-2.0294,-2.0299,-2.0296,-2.03,-2.0285,-2.0271,-2.0155,-1.9971,-1.9809,-1.9599,-1.9328,-1.8978,-1.8698,-1.8426,-1.818,-1.8031,-1.7883,-1.7816,-1.7789,-1.7789,-1.7789,-1.7789,-1.7789,-1.7789,-1.7789,-1.7789,-1.7658,-1.7589,-1.7502,-1.7175,-1.6917,-1.6789,-1.6633,-1.6533,-1.6507,-1.6843,-1.7035,-1.7142,-1.6926,-1.6841,-1.691,-1.6952,-1.7009,-1.7083,-1.7016,-1.6857,-1.6696,-1.6905,-1.707,-1.7252,-1.8129,-1.8753,-1.9025,-1.9615,-1.9909,-1.9818,-1.9767,-1.9666,-1.9594,-1.9558,-1.9536,-1.95,-1.9288,-1.904,-1.8774,-1.7962,-1.7352,-1.7031,-1.6565,-1.6349,-1.6522,-1.6782,-1.7146,-1.7612,-1.7962,-1.8175,-1.8214,-1.7962,-1.7503,-1.6824,-1.6355,-1.5932,-1.5468,-1.5546,-1.5712,-1.5944,-1.6194,-1.6182,-1.5654,-1.5666,-1.5647,-1.5215,-1.4425,-1.3792,-1.338,-1.2853,-1.2448,-1.2294,-1.1945,-1.1568,-1.1132,-1.0572,-0.9998,-0.9453,-0.8922,-0.8677,-0.8585,-0.8635,-0.8781,-0.8895,-0.9128,-0.9257,-0.9266,-0.9007,-0.8788,-2.0328,-2.0314,-2.0306,-2.0296,-2.0285,-2.0209,-2.0069,-1.9877,-1.9676,-1.9472,-1.9283,-1.8947,-1.8659,-1.8385,-1.818,-1.8009,-1.7883,-1.7833,-1.7789,-1.7789,-1.7789,-1.7789,-1.7789,-1.7789,-1.7789,-1.7789,-1.7681,-1.7572,-1.7502,-1.7199,-1.6968,-1.6815,-1.6712,-1.6632,-1.6524,-1.702,-1.732,-1.7382,-1.7207,-1.7126,-1.7126,-1.7043,-1.7034,-1.7057,-1.6882,-1.6763,-1.6727,-1.7275,-1.7559,-1.7552,-1.8827,-1.9608,-1.9747,-2.0297,-2.0545,-2.0429,-2.0429,-2.0361,-2.0193,-2.0035,-1.9945,-1.9909,-1.9581,-1.9288,-1.8936,-1.8358,-1.7801,-1.7352,-1.6976,-1.6808,-1.7047,-1.7366,-1.7733,-1.8147,-1.8425,-1.8581,-1.8503,-1.8095,-1.7449,-1.6672,-1.6083,-1.5522,-1.5187,-1.5142,-1.5355,-1.5712,-1.5976,-1.5794,-1.51,-1.4747,-1.4516,-1.4299,-1.3677,-1.3015,-1.2875,-1.2378,-1.1991,-1.1884,-1.1468,-1.1057,-1.0621,-1.0117,-0.9695,-0.9266,-0.8945,-0.8718,-0.8599,-0.8612,-0.868,-0.8692,-0.8765,-0.8846,-0.8692,-0.8226,-0.7848,-2.0377,-2.0379,-2.0334,-2.0287,-2.0277,-2.0164,-2.002,-1.9885,-1.9617,-1.9442,-1.9274,-1.8966,-1.8658,-1.8385,-1.818,-1.8031,-1.7905,-1.7833,-1.7789,-1.7789,-1.7789,-1.7789,-1.7811,-1.7794,-1.7789,-1.7789,-1.7726,-1.7664,-1.7589,-1.7313,-1.7068,-1.6841,-1.6917,-1.6912,-1.6898,-1.7294,-1.7532,-1.7664,-1.7532,-1.7368,-1.7191,-1.7141,-1.7057,-1.6998,-1.6873,-1.6763,-1.6759,-1.7275,-1.7666,-1.7858,-1.9074,-2.0178,-2.0989,-2.1182,-2.1277,-2.1354,-2.1354,-2.1276,-2.1055,-2.0679,-2.0392,-2.0254,-1.9904,-1.9508,-1.9139,-1.8889,-1.845,-1.7841,-1.7516,-1.7475,-1.7707,-1.8094,-1.8422,-1.863,-1.8827,-1.8865,-1.8634,-1.8095,-1.7407,-1.66,-1.5864,-1.5299,-1.4994,-1.4994,-1.5142,-1.5546,-1.578,-1.5708,-1.5154,-1.4398,-1.3788,-1.3403,-1.2889,-1.2433,-1.1934,-1.1645,-1.1527,-1.1244,-1.0943,-1.0708,-1.0352,-1.0071,-0.9683,-0.9569,-0.9228,-0.9035,-0.876,-0.854,-0.8448,-0.8414,-0.833,-0.8111,-0.7829,-0.7454,-0.7224,-2.0448,-2.0394,-2.0365,-2.0313,-2.0233,-2.0089,-1.9966,-1.9818,-1.9614,-1.9413,-1.928,-1.9036,-1.877,-1.8506,-1.8281,-1.8091,-1.8009,-1.7905,-1.7878,-1.7878,-1.7917,-1.7878,-1.7878,-1.79,-1.7878,-1.7878,-1.7878,-1.7856,-1.7749,-1.7502,-1.7296,-1.7191,-1.7248,-1.7199,-1.7166,-1.798,-1.8278,-1.7889,-1.8111,-1.7966,-1.7362,-1.715,-1.7057,-1.6998,-1.6889,-1.7013,-1.7428,-1.8143,-1.8642,-1.8938,-2.0169,-2.1124,-2.157,-2.1631,-2.1705,-2.1794,-2.1764,-2.1631,-2.134,-2.1055,-2.0777,-2.0392,-2.0111,-1.9771,-1.9339,-1.9182,-1.8917,-1.8475,-1.8161,-1.8068,-1.8266,-1.85,-1.8745,-1.8898,-1.8874,-1.8644,-1.8383,-1.7639,-1.6896,-1.617,-1.5421,-1.4949,-1.4903,-1.5175,-1.549,-1.5691,-1.5913,-1.5947,-1.5317,-1.4707,-1.4127,-1.3522,-1.2929,-1.2241,-1.1658,-1.1474,-1.14,-1.1239,-1.0916,-1.0641,-1.0705,-1.0334,-1.0054,-1.0066,-0.9971,-0.9818,-0.9541,-0.9158,-0.891,-0.8598,-0.8044,-0.7704,-0.737,-0.6985,-0.6641,-2.0483,-2.0415,-2.039,-2.0306,-2.018,-2.003,-1.99,-1.9763,-1.9587,-1.9413,-1.9311,-1.9135,-1.8913,-1.8715,-1.8423,-1.8239,-1.8138,-1.8031,-1.7966,-1.7988,-1.8027,-1.8044,-1.7988,-1.8027,-1.8027,-1.7992,-1.8031,-1.8014,-1.7932,-1.7755,-1.7618,-1.7542,-1.7773,-1.785,-1.7885,-1.8866,-1.9199,-1.8873,-1.908,-1.873,-1.8,-1.7889,-1.7624,-1.7147,-1.7203,-1.751,-1.806,-1.9044,-1.9597,-1.9661,-2.0996,-2.1844,-2.1995,-2.1991,-2.2061,-2.2101,-2.2044,-2.1869,-2.154,-2.1325,-2.099,-2.0478,-2.02,-1.9914,-1.9538,-1.9435,-1.9286,-1.904,-1.8731,-1.863,-1.8683,-1.8836,-1.8898,-1.8936,-1.8655,-1.8316,-1.7867,-1.7066,-1.6361,-1.5744,-1.5209,-1.4801,-1.4994,-1.5579,-1.6107,-1.612,-1.6423,-1.6481,-1.5844,-1.5438,-1.4962,-1.4303,-1.3523,-1.2687,-1.1883,-1.1464,-1.1416,-1.148,-1.1232,-1.1192,-1.1388,-1.1081,-1.0894,-1.1159,-1.101,-1.0745,-1.0384,-1.0026,-0.9296,-0.8697,-0.8067,-0.7468,-0.7112,-0.6696,-0.6313,-2.0507,-2.0478,-2.036,-2.0258,-2.018,-1.9981,-1.9858,-1.9782,-1.9587,-1.9456,-1.9383,-1.9264,-1.9153,-1.9035,-1.8677,-1.8408,-1.8307,-1.8218,-1.8194,-1.8172,-1.8194,-1.819,-1.8172,-1.8172,-1.8176,-1.8205,-1.8225,-1.8187,-1.809,-1.8078,-1.7983,-1.7839,-1.8471,-1.8951,-1.9229,-1.9762,-2.0286,-2.0521,-2.0228,-1.9695,-1.9107,-1.9536,-1.8968,-1.7609,-1.8013,-1.8485,-1.8684,-1.9876,-2.0339,-1.9733,-2.1135,-2.2065,-2.2383,-2.2344,-2.231,-2.2349,-2.2293,-2.2106,-2.1797,-2.1448,-2.1055,-2.0545,-2.0208,-1.9909,-1.9647,-1.9656,-1.9619,-1.9391,-1.9288,-1.9191,-1.8965,-1.8965,-1.8898,-1.863,-1.8316,-1.7814,-1.7177,-1.6519,-1.5983,-1.5511,-1.5164,-1.5152,-1.5543,-1.6256,-1.6667,-1.6765,-1.6976,-1.705,-1.6754,-1.6245,-1.5828,-1.5461,-1.4783,-1.3855,-1.2452,-1.2059,-1.1883,-1.1936,-1.2142,-1.198,-1.2215,-1.2382,-1.2308,-1.2217,-1.2149,-1.19,-1.1354,-1.0552,-0.96,-0.8775,-0.7867,-0.7279,-0.6865,-0.6617,-0.6276,-2.0443,-2.0427,-2.0334,-2.0238,-2.0126,-1.9928,-1.9811,-1.9725,-1.9574,-1.9508,-1.945,-1.9357,-1.9282,-1.9219,-1.9,-1.8717,-1.8452,-1.8406,-1.8383,-1.8385,-1.8445,-1.8426,-1.8403,-1.8426,-1.8426,-1.8408,-1.8506,-1.8545,-1.8469,-1.8348,-1.8481,-1.8783,-1.9001,-1.9461,-2.022,-2.073,-2.1045,-2.1019,-2.1044,-2.0732,-2.0114,-2.0292,-2.0096,-1.9516,-1.9435,-1.9663,-2.008,-2.0621,-2.0978,-2.1154,-2.1786,-2.2225,-2.2456,-2.2532,-2.2515,-2.246,-2.2432,-2.2248,-2.1857,-2.1554,-2.1166,-2.0579,-2.0326,-2.005,-1.9848,-1.9944,-1.998,-1.9827,-1.9675,-1.9479,-1.9161,-1.8936,-1.8655,-1.8277,-1.7747,-1.7175,-1.6532,-1.5864,-1.54,-1.5311,-1.5433,-1.5852,-1.6244,-1.6896,-1.738,-1.7421,-1.7707,-1.7787,-1.7693,-1.7317,-1.6942,-1.6604,-1.5934,-1.5104,-1.4322,-1.3563,-1.3228,-1.3202,-1.3242,-1.3429,-1.3645,-1.3499,-1.3409,-1.3217,-1.3175,-1.2503,-1.1776,-1.0317,-0.9431,-0.8385,-0.7492,-0.7068,-0.6623,-0.6538,-0.6361,-2.039,-2.0366,-2.0306,-2.0214,-2.0079,-1.9899,-1.9781,-1.9744,-1.9628,-1.9592,-1.9569,-1.9493,-1.9402,-1.9311,-1.9198,-1.8998,-1.8717,-1.8642,-1.8622,-1.8622,-1.8697,-1.866,-1.8641,-1.866,-1.8697,-1.8696,-1.8807,-1.8843,-1.8806,-1.8868,-1.9094,-1.9412,-1.9746,-2.0267,-2.0952,-2.1498,-2.1704,-2.1679,-2.1917,-2.1753,-2.1276,-2.1454,-2.1481,-2.1273,-2.1084,-2.102,-2.116,-2.1288,-2.1569,-2.196,-2.2135,-2.2282,-2.246,-2.2596,-2.2579,-2.2487,-2.246,-2.2276,-2.184,-2.1615,-2.1214,-2.0579,-2.0376,-2.0154,-1.9904,-2.0142,-2.0212,-2.0111,-1.9889,-1.9645,-1.9207,-1.8693,-1.8226,-1.7827,-1.7175,-1.6514,-1.5996,-1.549,-1.5322,-1.5579,-1.617,-1.6642,-1.698,-1.7571,-1.7922,-1.8002,-1.824,-1.8333,-1.8268,-1.8109,-1.7814,-1.7475,-1.6859,-1.6299,-1.5745,-1.5217,-1.449,-1.4363,-1.4205,-1.4488,-1.465,-1.4508,-1.4305,-1.4185,-1.3695,-1.2929,-1.1783,-1.0217,-0.9004,-0.7948,-0.7301,-0.6829,-0.6611,-0.6532,-0.6477,-2.0373,-2.0295,-2.0238,-2.0178,-2.0079,-1.996,-1.987,-1.9801,-1.9795,-1.9738,-1.9692,-1.9628,-1.9527,-1.9394,-1.936,-1.9232,-1.9082,-1.8983,-1.8895,-1.8877,-1.8895,-1.8895,-1.8878,-1.8895,-1.8931,-1.8984,-1.9053,-1.9018,-1.8949,-1.9522,-1.9772,-1.9839,-2.0835,-2.1318,-2.1326,-2.2034,-2.2446,-2.2591,-2.278,-2.2693,-2.2442,-2.294,-2.3002,-2.2532,-2.2723,-2.2439,-2.1524,-2.1953,-2.2108,-2.2005,-2.2118,-2.2254,-2.2394,-2.2487,-2.247,-2.2432,-2.2405,-2.2192,-2.184,-2.1584,-2.1214,-2.0646,-2.0395,-2.0273,-2.0146,-2.0316,-2.0438,-2.0304,-2.0015,-1.9645,-1.9155,-1.8394,-1.7747,-1.7312,-1.6672,-1.6039,-1.5668,-1.5424,-1.5614,-1.6238,-1.698,-1.7544,-1.7841,-1.8201,-1.845,-1.8464,-1.8478,-1.8464,-1.84,-1.8228,-1.8083,-1.7868,-1.7436,-1.6907,-1.6886,-1.6782,-1.6048,-1.5452,-1.5229,-1.5229,-1.531,-1.5201,-1.4755,-1.449,-1.3379,-1.256,-1.1113,-0.9671,-0.874,-0.7768,-0.7191,-0.6674,-0.6576,-0.6526,-0.6662,-2.032,-2.0299,-2.0281,-2.0197,-2.0088,-2.0001,-1.9926,-1.9861,-1.9806,-1.9782,-1.9782,-1.9707,-1.9604,-1.956,-1.9526,-1.9435,-1.9311,-1.9246,-1.9166,-1.9066,-1.9084,-1.9084,-1.9067,-1.9137,-1.9188,-1.9186,-1.9186,-1.9152,-1.9249,-1.9777,-2.0178,-2.0625,-2.1248,-2.179,-2.2131,-2.2439,-2.2605,-2.2773,-2.3116,-2.3285,-2.3346,-2.3712,-2.3773,-2.3606,-2.3494,-2.3129,-2.2534,-2.2344,-2.2113,-2.1881,-2.1994,-2.2147,-2.2349,-2.246,-2.246,-2.2405,-2.2405,-2.222,-2.1857,-2.1601,-2.1261,-2.0761,-2.0628,-2.0561,-2.0426,-2.0677,-2.081,-2.0679,-2.0311,-1.9879,-1.9236,-1.8288,-1.7558,-1.716,-1.6386,-1.592,-1.5932,-1.6139,-1.6557,-1.7092,-1.7706,-1.8198,-1.8511,-1.8808,-1.8851,-1.8788,-1.8634,-1.8464,-1.8372,-1.8175,-1.7935,-1.7693,-1.7488,-1.7253,-1.6973,-1.6718,-1.6286,-1.5813,-1.5679,-1.5514,-1.5604,-1.5457,-1.504,-1.4122,-1.3024,-1.1859,-1.0414,-0.9326,-0.8387,-0.7608,-0.6961,-0.6678,-0.6538,-0.6645,-0.6893,-1.981,-1.9815,-1.9812,-1.9764,-1.9715,-1.9926,-2.0039,-1.9985,-1.9926,-1.9892,-1.9884,-1.9823,-1.9751,-1.9668,-1.9652,-1.9536,-1.942,-1.9405,-1.9326,-1.9196,-1.9214,-1.9214,-1.9198,-1.9251,-1.9282,-1.928,-1.9264,-1.9381,-1.9678,-2.0264,-2.0847,-2.1401,-2.186,-2.222,-2.2544,-2.2569,-2.2632,-2.2876,-2.3242,-2.357,-2.3862,-2.4098,-2.4211,-2.4135,-2.3901,-2.3548,-2.3165,-2.2712,-2.2279,-2.1945,-2.1984,-2.2231,-2.2377,-2.2405,-2.2405,-2.2338,-2.231,-2.2152,-2.1768,-2.154,-2.1261,-2.0843,-2.0777,-2.0712,-2.0679,-2.0925,-2.1055,-2.0942,-2.0514,-2.0,-1.9325,-1.8419,-1.7639,-1.7284,-1.6497,-1.612,-1.6367,-1.6896,-1.7381,-1.7867,-1.8394,-1.8779,-1.902,-1.9049,-1.9026,-1.8851,-1.8542,-1.8254,-1.8121,-1.7868,-1.7639,-1.7447,-1.7295,-1.7044,-1.6803,-1.6577,-1.6405,-1.6139,-1.5971,-1.5704,-1.5611,-1.5164,-1.4698,-1.329,-1.2092,-1.1157,-0.9826,-0.9012,-0.8103,-0.7433,-0.7,-0.7003,-0.6997,-0.7105,-0.7281,-1.8934,-1.8934,-1.8931,-1.8947,-1.9076,-1.9722,-2.005,-2.0117,-2.0098,-2.0059,-2.0028,-1.9988,-1.9911,-1.9813,-1.9719,-1.9596,-1.9442,-1.9416,-1.9372,-1.9308,-1.9289,-1.9274,-1.9274,-1.9274,-1.9289,-1.9289,-1.9274,-1.9612,-2.0077,-2.0843,-2.1604,-2.1856,-2.2408,-2.273,-2.2579,-2.2497,-2.2676,-2.2927,-2.3312,-2.3717,-2.4097,-2.432,-2.4389,-2.4318,-2.4136,-2.3844,-2.3468,-2.3112,-2.2607,-2.2004,-2.218,-2.2371,-2.2405,-2.2321,-2.2282,-2.2225,-2.2214,-2.1995,-2.1664,-2.1526,-2.1246,-2.0843,-2.0843,-2.0827,-2.0893,-2.1071,-2.1167,-2.1087,-2.0581,-2.0035,-1.9464,-1.864,-1.8028,-1.7652,-1.7005,-1.671,-1.7034,-1.7652,-1.8173,-1.8577,-1.8997,-1.931,-1.9398,-1.9288,-1.9026,-1.8707,-1.8344,-1.8002,-1.772,-1.7557,-1.7352,-1.7199,-1.7044,-1.6876,-1.662,-1.6262,-1.6076,-1.5812,-1.5635,-1.5367,-1.5062,-1.4549,-1.3773,-1.2376,-1.1308,-1.0312,-0.9511,-0.8733,-0.8223,-0.7782,-0.7538,-0.7542,-0.7555,-0.7646,-0.7605,-1.8049,-1.8049,-1.8042,-1.8412,-1.8947,-1.9227,-1.9682,-2.0144,-2.0183,-2.0126,-2.0089,-2.0069,-1.999,-1.9881,-1.9804,-1.9682,-1.9578,-1.9508,-1.9416,-1.9305,-1.9286,-1.9286,-1.9286,-1.9286,-1.9286,-1.9289,-1.9295,-1.9358,-1.9621,-2.077,-2.1348,-2.1352,-2.2384,-2.279,-2.2676,-2.2632,-2.2764,-2.3003,-2.3491,-2.3878,-2.4154,-2.4479,-2.4596,-2.4594,-2.4442,-2.4229,-2.3871,-2.3376,-2.2917,-2.2538,-2.2535,-2.2586,-2.2542,-2.2432,-2.2338,-2.2254,-2.2197,-2.2036,-2.1724,-2.1573,-2.1356,-2.1071,-2.1071,-2.1167,-2.1183,-2.1356,-2.1388,-2.1214,-2.0747,-2.0193,-1.9594,-1.8907,-1.8422,-1.8198,-1.7801,-1.7652,-1.7935,-1.8461,-1.8936,-1.9221,-1.9479,-1.9654,-1.969,-1.953,-1.9221,-1.8831,-1.833,-1.7882,-1.757,-1.724,-1.7073,-1.6863,-1.6748,-1.662,-1.6392,-1.6032,-1.5724,-1.5412,-1.5096,-1.4686,-1.4143,-1.3511,-1.2483,-1.1258,-1.0661,-0.9814,-0.9313,-0.8677,-0.8363,-0.8259,-0.8145,-0.8133,-0.8026,-0.8082,-0.7955,-1.7176,-1.7176,-1.7196,-1.767,-1.847,-1.8842,-1.9473,-2.0139,-2.0255,-2.0208,-2.0143,-2.0144,-2.0089,-1.995,-1.9824,-1.9732,-1.9606,-1.9541,-1.9431,-1.932,-1.9286,-1.9286,-1.9286,-1.9286,-1.9289,-1.9277,-1.928,-1.9654,-2.019,-2.0967,-2.147,-2.2056,-2.2548,-2.2825,-2.2738,-2.2773,-2.2876,-2.3126,-2.3576,-2.3939,-2.4229,-2.4564,-2.4742,-2.4768,-2.4689,-2.454,-2.4245,-2.3839,-2.3426,-2.3129,-2.2944,-2.2825,-2.2729,-2.2525,-2.2377,-2.2282,-2.218,-2.1945,-2.1648,-2.1526,-2.1388,-2.1167,-2.123,-2.1294,-2.1309,-2.145,-2.1433,-2.123,-2.0795,-2.0345,-1.9859,-1.931,-1.8959,-1.8817,-1.8831,-1.8831,-1.8808,-1.9221,-1.9566,-1.9747,-1.9904,-1.999,-1.999,-1.9726,-1.9332,-1.8884,-1.8252,-1.7801,-1.7365,-1.7073,-1.6833,-1.6705,-1.6534,-1.6448,-1.6262,-1.5913,-1.54,-1.5085,-1.4398,-1.3988,-1.3399,-1.2618,-1.1724,-1.0779,-1.0072,-0.9547,-0.921,-0.9036,-0.9069,-0.8976,-0.8813,-0.87,-0.8614,-0.8369,-0.8248,-1.6369,-1.6369,-1.6369,-1.6849,-1.7645,-1.8491,-1.9254,-2.0042,-2.0227,-2.0265,-2.0211,-2.0205,-2.0125,-1.9992,-1.9858,-1.9726,-1.9614,-1.9536,-1.9416,-1.9323,-1.9289,-1.9292,-1.924,-1.9274,-1.9277,-1.9248,-1.9266,-1.9842,-2.0499,-2.0981,-2.1861,-2.2481,-2.2821,-2.2995,-2.2927,-2.2952,-2.306,-2.3324,-2.3689,-2.404,-2.4318,-2.4626,-2.4817,-2.4917,-2.4912,-2.479,-2.4586,-2.4369,-2.4118,-2.3635,-2.333,-2.3119,-2.297,-2.2685,-2.246,-2.2248,-2.2118,-2.1899,-2.157,-2.1509,-2.1402,-2.1278,-2.1325,-2.134,-2.1402,-2.1464,-2.1433,-2.1294,-2.0861,-2.0496,-2.0065,-1.9669,-1.9472,-1.9442,-1.9762,-1.9869,-1.9818,-1.996,-2.015,-2.0135,-2.0254,-2.0185,-2.0025,-1.9726,-1.9384,-1.9035,-1.8447,-1.7988,-1.7529,-1.7212,-1.6918,-1.6607,-1.6479,-1.6362,-1.6088,-1.578,-1.5232,-1.4731,-1.3836,-1.3228,-1.2696,-1.1999,-1.1209,-1.0454,-0.988,-0.9614,-0.9496,-0.9511,-0.9634,-0.9663,-0.9522,-0.9349,-0.9213,-0.8765,-0.8482,-1.5465,-1.5478,-1.5459,-1.5984,-1.6811,-1.7619,-1.8479,-1.9326,-2.0007,-2.0246,-2.0284,-2.0273,-2.0197,-2.0079,-1.9931,-1.9804,-1.9673,-1.955,-1.9431,-1.9314,-1.9298,-1.9248,-1.9198,-1.9248,-1.9214,-1.9166,-1.9135,-1.9304,-1.9705,-2.0725,-2.1263,-2.1653,-2.2811,-2.3193,-2.3223,-2.3289,-2.3427,-2.3689,-2.3959,-2.4211,-2.4439,-2.4685,-2.4884,-2.5025,-2.5051,-2.5,-2.4902,-2.4813,-2.4642,-2.4301,-2.3858,-2.3435,-2.3182,-2.285,-2.2552,-2.2377,-2.2237,-2.2049,-2.1857,-2.1764,-2.1721,-2.1573,-2.1587,-2.1678,-2.1617,-2.1634,-2.1573,-2.1371,-2.1087,-2.0663,-2.0115,-1.9848,-1.9762,-1.9904,-2.0204,-2.0496,-2.0614,-2.0496,-2.0444,-2.041,-2.041,-2.0342,-2.022,-1.9904,-1.9566,-1.9132,-1.8679,-1.8226,-1.7801,-1.7378,-1.7044,-1.6693,-1.6479,-1.6306,-1.6001,-1.5603,-1.496,-1.4455,-1.3563,-1.2803,-1.2314,-1.1719,-1.1065,-1.0403,-0.9829,-0.9725,-0.9725,-0.9925,-1.0054,-1.0128,-1.0084,-0.9717,-0.9394,-0.8981,-0.8474,-1.5195,-1.5195,-1.5195,-1.5715,-1.6484,-1.6971,-1.7779,-1.8775,-1.941,-1.9945,-2.0248,-2.0289,-2.0233,-2.0106,-1.9971,-1.9823,-1.9686,-1.9493,-1.9341,-1.9232,-1.9198,-1.915,-1.9102,-1.9119,-1.9119,-1.9069,-1.9104,-1.9198,-1.9759,-2.0621,-2.1482,-2.1855,-2.2958,-2.3508,-2.3624,-2.3678,-2.3803,-2.3984,-2.4211,-2.4441,-2.4604,-2.4785,-2.4955,-2.5106,-2.5141,-2.5122,-2.508,-2.5063,-2.4922,-2.4657,-2.4174,-2.3692,-2.3335,-2.2985,-2.2685,-2.2515,-2.2349,-2.222,-2.2084,-2.1969,-2.1882,-2.1768,-2.1797,-2.1738,-2.1724,-2.1757,-2.1727,-2.1526,-2.1245,-2.091,-2.0289,-2.0131,-2.0131,-2.02,-2.0512,-2.0828,-2.1023,-2.1007,-2.0909,-2.0844,-2.0763,-2.0613,-2.0376,-2.0065,-1.9726,-1.931,-1.8921,-1.8461,-1.7948,-1.757,-1.7212,-1.6876,-1.6565,-1.6306,-1.5944,-1.5412,-1.464,-1.4129,-1.3515,-1.29,-1.2372,-1.1719,-1.1057,-1.0498,-0.9991,-0.9991,-1.0043,-1.0249,-1.0403,-1.0387,-1.0226,-0.9821,-0.9361,-0.8791,-0.8315,-1.5195,-1.5195,-1.5195,-1.5618,-1.6272,-1.6484,-1.717,-1.8197,-1.884,-1.9477,-2.0043,-2.0219,-2.0238,-2.0106,-1.9971,-1.9823,-1.9614,-1.9435,-1.9266,-1.9117,-1.9101,-1.9196,-1.9235,-1.9325,-1.9468,-1.9343,-1.9179,-1.9468,-2.021,-2.1061,-2.1843,-2.27,-2.3561,-2.3967,-2.408,-2.4174,-2.4246,-2.4368,-2.4519,-2.4648,-2.479,-2.4923,-2.5068,-2.516,-2.5201,-2.5201,-2.5187,-2.517,-2.5107,-2.487,-2.4332,-2.387,-2.3464,-2.3091,-2.279,-2.2659,-2.2542,-2.2426,-2.2337,-2.2226,-2.2101,-2.1899,-2.1886,-2.1844,-2.1801,-2.1847,-2.1847,-2.1634,-2.1386,-2.1023,-2.0512,-2.0373,-2.0339,-2.0407,-2.0679,-2.1039,-2.1293,-2.1417,-2.1417,-2.1309,-2.1103,-2.0877,-2.0545,-2.0204,-1.9869,-1.9487,-1.9101,-1.8707,-1.824,-1.7801,-1.7488,-1.7086,-1.6778,-1.6306,-1.5957,-1.5501,-1.4686,-1.4176,-1.361,-1.3035,-1.252,-1.1918,-1.136,-1.0769,-1.036,-1.036,-1.0308,-1.0411,-1.0514,-1.0514,-1.0087,-0.9458,-0.8988,-0.858,-0.809,-1.5195,-1.5195,-1.5195,-1.5285,-1.5516,-1.6176,-1.6618,-1.7086,-1.8358,-1.913,-1.9381,-1.9973,-2.0192,-2.0178,-2.0059,-1.98,-1.9509,-1.9326,-1.9186,-1.9053,-1.909,-1.9326,-1.9759,-2.0029,-2.039,-2.0553,-2.0043,-1.9804,-2.0509,-2.1273,-2.2271,-2.3077,-2.3957,-2.4431,-2.4507,-2.4618,-2.47,-2.4728,-2.4836,-2.4942,-2.5,-2.5056,-2.5126,-2.5212,-2.5233,-2.5231,-2.5206,-2.5239,-2.5145,-2.4808,-2.4298,-2.3966,-2.3696,-2.3324,-2.3052,-2.2893,-2.279,-2.2721,-2.2703,-2.2615,-2.2508,-2.2388,-2.2265,-2.218,-2.2106,-2.202,-2.1978,-2.1738,-2.137,-2.0958,-2.0677,-2.0525,-2.0441,-2.0561,-2.086,-2.1294,-2.1556,-2.1721,-2.1781,-2.1603,-2.1371,-2.1103,-2.0778,-2.041,-2.0045,-1.9726,-1.9413,-1.8988,-1.85,-1.8147,-1.7882,-1.7434,-1.6989,-1.6436,-1.5925,-1.5468,-1.4915,-1.4501,-1.3931,-1.3372,-1.2793,-1.2255,-1.166,-1.1116,-1.0769,-1.0667,-1.0667,-1.0565,-1.0352,-1.019,-0.9658,-0.9026,-0.86,-0.8178,-0.7611,-1.5201,-1.5195,-1.5195,-1.5195,-1.5266,-1.5651,-1.5805,-1.6009,-1.7157,-1.814,-1.8828,-1.94,-1.9865,-2.0063,-2.0041,-1.9767,-1.9452,-1.9246,-1.9086,-1.8967,-1.9345,-1.9723,-2.0264,-2.0698,-2.122,-2.1449,-2.1013,-2.0837,-2.1331,-2.2234,-2.2924,-2.3528,-2.4371,-2.4835,-2.4917,-2.4953,-2.5022,-2.5053,-2.5091,-2.5122,-2.5141,-2.5168,-2.5231,-2.5241,-2.5222,-2.522,-2.5145,-2.5095,-2.4996,-2.4712,-2.4295,-2.4081,-2.3885,-2.3671,-2.3394,-2.3199,-2.3119,-2.3102,-2.3102,-2.3003,-2.2825,-2.2694,-2.2552,-2.2388,-2.2293,-2.218,-2.202,-2.1738,-2.1432,-2.1007,-2.0726,-2.0626,-2.061,-2.0695,-2.1055,-2.1402,-2.1708,-2.1945,-2.1961,-2.186,-2.1664,-2.1371,-2.1055,-2.0679,-2.0239,-1.994,-1.9647,-1.925,-1.8784,-1.8422,-1.8121,-1.7475,-1.6947,-1.6522,-1.6013,-1.5603,-1.5142,-1.472,-1.4212,-1.36,-1.3084,-1.2501,-1.2017,-1.1469,-1.1276,-1.0871,-1.0667,-1.0454,-1.019,-0.9814,-0.919,-0.8613,-0.8265,-0.777,-0.7236,-1.5224,-1.5207,-1.5201,-1.5195,-1.5189,-1.5197,-1.5197,-1.5364,-1.6291,-1.7387,-1.8357,-1.9037,-1.9669,-2.0007,-2.0012,-1.9767,-1.9387,-1.9196,-1.8982,-1.8932,-1.9417,-1.9921,-2.0626,-2.1273,-2.2025,-2.2753,-2.2787,-2.2633,-2.2537,-2.3127,-2.3683,-2.4243,-2.4908,-2.5178,-2.5234,-2.5272,-2.5274,-2.5225,-2.5234,-2.5243,-2.5231,-2.5271,-2.5292,-2.5282,-2.5241,-2.5168,-2.5068,-2.4987,-2.4865,-2.4663,-2.4381,-2.4173,-2.4136,-2.4058,-2.3858,-2.362,-2.3504,-2.3504,-2.3463,-2.3348,-2.3157,-2.302,-2.279,-2.2605,-2.2371,-2.2248,-2.2007,-2.1664,-2.134,-2.1071,-2.081,-2.0744,-2.081,-2.0958,-2.123,-2.154,-2.1827,-2.202,-2.2152,-2.2053,-2.1873,-2.1587,-2.1246,-2.0745,-2.0308,-2.001,-1.9741,-1.9376,-1.895,-1.8616,-1.8187,-1.7421,-1.6863,-1.6479,-1.61,-1.5824,-1.5367,-1.496,-1.4351,-1.3742,-1.3228,-1.2754,-1.2264,-1.1678,-1.1167,-1.0812,-1.0557,-1.0249,-0.9821,-0.9302,-0.8732,-0.8302,-0.7966,-0.7471,-0.6889,-1.5294,-1.5289,-1.5229,-1.5193,-1.5189,-1.5127,-1.514,-1.535,-1.6693,-1.7504,-1.7999,-1.9257,-1.9986,-2.0134,-1.9981,-1.9713,-1.9419,-1.918,-1.8948,-1.8823,-1.9129,-1.9975,-2.1079,-2.1694,-2.2724,-2.3531,-2.4188,-2.4217,-2.3717,-2.3803,-2.4386,-2.5043,-2.5227,-2.5434,-2.5441,-2.5473,-2.5473,-2.5379,-2.5365,-2.534,-2.5303,-2.5293,-2.5273,-2.5241,-2.519,-2.5153,-2.5057,-2.4934,-2.4837,-2.4719,-2.4522,-2.4386,-2.4336,-2.4301,-2.4247,-2.4136,-2.4001,-2.3795,-2.3753,-2.3606,-2.3463,-2.3313,-2.307,-2.2842,-2.2552,-2.2175,-2.1857,-2.1634,-2.1325,-2.1087,-2.0942,-2.0909,-2.1007,-2.123,-2.1479,-2.1721,-2.1957,-2.2077,-2.2225,-2.2168,-2.1961,-2.1678,-2.134,-2.0844,-2.0376,-2.0115,-1.9812,-1.945,-1.9026,-1.863,-1.8108,-1.7352,-1.685,-1.6479,-1.6219,-1.5913,-1.5558,-1.5096,-1.449,-1.3847,-1.3372,-1.29,-1.2323,-1.1778,-1.1217,-1.0659,-1.0308,-0.9888,-0.9413,-0.8995,-0.8527,-0.8156,-0.7777,-0.7239,-0.6694,-1.5342,-1.5279,-1.5265,-1.5226,-1.5199,-1.5139,-1.5369,-1.5853,-1.6489,-1.7347,-1.8212,-1.8982,-1.9658,-2.0003,-1.9928,-1.9657,-1.9357,-1.913,-1.8913,-1.8875,-1.9236,-1.9975,-2.0818,-2.1671,-2.2825,-2.3389,-2.3784,-2.3909,-2.3972,-2.4551,-2.5143,-2.5425,-2.5589,-2.5598,-2.5585,-2.5595,-2.5537,-2.5456,-2.5376,-2.5341,-2.5313,-2.5303,-2.5293,-2.5271,-2.522,-2.5141,-2.5057,-2.4947,-2.4898,-2.4794,-2.4682,-2.4651,-2.462,-2.4604,-2.4554,-2.451,-2.4389,-2.4211,-2.4058,-2.3899,-2.375,-2.3567,-2.3313,-2.302,-2.2605,-2.2147,-2.1751,-2.1479,-2.1277,-2.1119,-2.1119,-2.1135,-2.1293,-2.1509,-2.1721,-2.1915,-2.2061,-2.218,-2.2254,-2.2152,-2.2049,-2.1768,-2.1417,-2.0926,-2.0478,-2.022,-1.9848,-1.945,-1.8912,-1.8279,-1.776,-1.7157,-1.6778,-1.6479,-1.6262,-1.6044,-1.5603,-1.5198,-1.4593,-1.3988,-1.3515,-1.2987,-1.2421,-1.1778,-1.1175,-1.0667,-1.0154,-0.9636,-0.9211,-0.8798,-0.8374,-0.8156,-0.7978,-0.7408,-0.6732,-1.5507,-1.5624,-1.5392,-1.5284,-1.525,-1.5356,-1.5737,-1.626,-1.6744,-1.7538,-1.8466,-1.899,-1.9516,-1.9886,-1.9873,-1.9619,-1.931,-1.9081,-1.8861,-1.8983,-1.9343,-1.9956,-2.0639,-2.1503,-2.217,-2.2614,-2.303,-2.3333,-2.3996,-2.4685,-2.5188,-2.5606,-2.5657,-2.5673,-2.5678,-2.5613,-2.5546,-2.5488,-2.5397,-2.5332,-2.5332,-2.5332,-2.5322,-2.5312,-2.5252,-2.5179,-2.5111,-2.5031,-2.4981,-2.4942,-2.4896,-2.4864,-2.4869,-2.4861,-2.4818,-2.4764,-2.4654,-2.4512,-2.4302,-2.4135,-2.3937,-2.3725,-2.3407,-2.297,-2.247,-2.2032,-2.1738,-2.1495,-2.1419,-2.1341,-2.1341,-2.1402,-2.1554,-2.1764,-2.1957,-2.2106,-2.2237,-2.2282,-2.231,-2.2237,-2.2106,-2.1915,-2.1493,-2.0991,-2.0597,-2.0323,-1.9955,-1.945,-1.8798,-1.8082,-1.7557,-1.7044,-1.6735,-1.6479,-1.6262,-1.6001,-1.5659,-1.5244,-1.464,-1.4082,-1.3563,-1.2997,-1.2372,-1.1778,-1.1226,-1.0718,-1.0308,-0.9636,-0.9061,-0.885,-0.8639,-0.848,-0.814,-0.7638,-0.6856,-1.5897,-1.6538,-1.5685,-1.5381,-1.5448,-1.6023,-1.6277,-1.6559,-1.7801,-1.8377,-1.8734,-1.9352,-1.9763,-1.9892,-1.9842,-1.9662,-1.9331,-1.9101,-1.895,-1.8896,-1.9004,-1.9678,-2.0341,-2.1023,-2.1682,-2.2387,-2.252,-2.2749,-2.3377,-2.4081,-2.4868,-2.5595,-2.5675,-2.5687,-2.5668,-2.5609,-2.5549,-2.5488,-2.5397,-2.5388,-2.5378,-2.5387,-2.5397,-2.5389,-2.5341,-2.5264,-2.5175,-2.5163,-2.5141,-2.5118,-2.5077,-2.5053,-2.5049,-2.505,-2.5019,-2.494,-2.4827,-2.4676,-2.4461,-2.4266,-2.4039,-2.3732,-2.3324,-2.2868,-2.246,-2.2089,-2.1827,-2.1634,-2.1542,-2.1542,-2.1573,-2.1678,-2.184,-2.1986,-2.2147,-2.2248,-2.2349,-2.2349,-2.2349,-2.2321,-2.2163,-2.1974,-2.1735,-2.126,-2.0828,-2.0561,-1.9904,-1.9376,-1.8644,-1.7975,-1.7475,-1.7031,-1.6693,-1.6436,-1.6231,-1.5969,-1.5691,-1.5244,-1.4743,-1.4129,-1.361,-1.2997,-1.2421,-1.1927,-1.1427,-1.0972,-1.0565,-1.019,-0.9777,-0.9218,-0.8903,-0.8791,-0.8429,-0.782,-0.7008,-1.6696,-1.744,-1.7098,-1.6929,-1.6926,-1.7117,-1.7439,-1.7813,-1.8378,-1.8868,-1.9251,-1.9644,-1.9842,-1.983,-1.9851,-1.9921,-1.9902,-1.9261,-1.9291,-1.9291,-1.9362,-1.9433,-1.9945,-2.0346,-2.0736,-2.1255,-2.1478,-2.2227,-2.313,-2.3609,-2.4545,-2.5248,-2.564,-2.5668,-2.5623,-2.5546,-2.5478,-2.5453,-2.5415,-2.5397,-2.5401,-2.5429,-2.544,-2.5393,-2.5397,-2.5369,-2.5321,-2.5322,-2.5322,-2.5293,-2.5236,-2.5225,-2.5203,-2.5187,-2.5118,-2.5032,-2.4931,-2.4768,-2.4564,-2.4356,-2.4096,-2.3671,-2.3259,-2.2868,-2.2515,-2.2175,-2.1899,-2.1738,-2.1694,-2.1724,-2.1738,-2.1903,-2.2094,-2.2192,-2.2304,-2.2405,-2.246,-2.246,-2.2432,-2.2405,-2.2265,-2.2077,-2.1811,-2.1538,-2.115,-2.0728,-1.9995,-1.9288,-1.8592,-1.7935,-1.7447,-1.7031,-1.668,-1.6522,-1.6318,-1.6044,-1.5724,-1.5277,-1.4834,-1.4316,-1.38,-1.3112,-1.2589,-1.2107,-1.1778,-1.1418,-1.1158,-1.0947,-1.049,-0.9829,-0.9465,-0.9249,-0.8717,-0.8032,-0.7172,-1.7558,-1.8326,-1.8359,-1.817,-1.7936,-1.8031,-1.8367,-1.8772,-1.8936,-1.9182,-1.9673,-1.9757,-1.9757,-1.9807,-2.0082,-2.0257,-2.0299,-1.989,-1.9864,-1.9739,-1.9534,-1.9387,-1.9594,-1.9914,-2.0281,-2.0355,-2.0837,-2.1741,-2.2632,-2.3202,-2.4157,-2.5032,-2.5556,-2.5618,-2.5556,-2.5439,-2.5376,-2.5385,-2.5385,-2.5421,-2.5456,-2.551,-2.551,-2.5471,-2.5468,-2.5476,-2.5464,-2.5464,-2.5456,-2.543,-2.5398,-2.5357,-2.5322,-2.5273,-2.5168,-2.5075,-2.4947,-2.4808,-2.461,-2.4321,-2.4057,-2.3671,-2.3348,-2.2977,-2.2632,-2.2315,-2.2089,-2.1915,-2.1903,-2.1932,-2.1932,-2.2094,-2.2237,-2.2349,-2.236,-2.246,-2.2525,-2.2552,-2.2542,-2.2515,-2.2349,-2.218,-2.202,-2.1751,-2.1245,-2.0778,-2.012,-1.9406,-1.8731,-1.8082,-1.7529,-1.7115,-1.6693,-1.6565,-1.6392,-1.6132,-1.5812,-1.5501,-1.5051,-1.4605,-1.4071,-1.3447,-1.2909,-1.2579,-1.2295,-1.1959,-1.181,-1.1701,-1.1141,-1.0379,-0.9917,-0.9354,-0.8876,-0.814,-0.7353,-1.8384,-1.9144,-1.9177,-1.8706,-1.8184,-1.87,-1.8984,-1.9082,-1.9449,-1.9638,-1.9628,-1.9686,-1.9707,-1.9863,-2.0281,-2.056,-2.0593,-2.0383,-2.0342,-2.0246,-1.9767,-1.9609,-1.9768,-2.0009,-2.0315,-2.0623,-2.1196,-2.177,-2.2303,-2.3515,-2.4353,-2.4791,-2.5383,-2.5605,-2.5498,-2.5374,-2.5331,-2.5393,-2.5393,-2.5456,-2.5538,-2.5576,-2.5568,-2.5568,-2.5556,-2.5556,-2.5554,-2.556,-2.5554,-2.5562,-2.5518,-2.5471,-2.5401,-2.5341,-2.5262,-2.5176,-2.4994,-2.4847,-2.4692,-2.4266,-2.3978,-2.3732,-2.3417,-2.3144,-2.2816,-2.2552,-2.2332,-2.2163,-2.218,-2.2197,-2.2197,-2.2254,-2.2377,-2.2432,-2.2443,-2.2525,-2.2605,-2.2615,-2.2605,-2.2596,-2.2432,-2.2282,-2.2152,-2.1886,-2.1339,-2.078,-2.0174,-1.9536,-1.8945,-1.8266,-1.7666,-1.724,-1.6808,-1.662,-1.6448,-1.6219,-1.5901,-1.5591,-1.5277,-1.4915,-1.4512,-1.4025,-1.3542,-1.3112,-1.2871,-1.2638,-1.2598,-1.2598,-1.1742,-1.0838,-0.9917,-0.9302,-0.8844,-0.8184,-0.727,-1.922,-2.0057,-2.0055,-1.9898,-1.967,-1.9773,-1.9829,-1.9758,-1.976,-1.9681,-1.9628,-1.9692,-1.9725,-1.9882,-2.0108,-2.0469,-2.0704,-2.0085,-2.0047,-2.0596,-1.9987,-1.9904,-2.0021,-2.0268,-2.0614,-2.123,-2.184,-2.2672,-2.3671,-2.4297,-2.4782,-2.5238,-2.5399,-2.5525,-2.5476,-2.5388,-2.5341,-2.5376,-2.5406,-2.5453,-2.5576,-2.5615,-2.5604,-2.5613,-2.5615,-2.5619,-2.5613,-2.5613,-2.5628,-2.5639,-2.5595,-2.5525,-2.5464,-2.5385,-2.5313,-2.5201,-2.5043,-2.4847,-2.4607,-2.4284,-2.4037,-2.3795,-2.3576,-2.3295,-2.2995,-2.279,-2.2579,-2.247,-2.2443,-2.2432,-2.2432,-2.2443,-2.2525,-2.2487,-2.2542,-2.2596,-2.2659,-2.2659,-2.2659,-2.2632,-2.2525,-2.2377,-2.2237,-2.2163,-2.1675,-2.1229,-2.0731,-2.0004,-1.9361,-1.8535,-1.7854,-1.7434,-1.7031,-1.6791,-1.6547,-1.6349,-1.6175,-1.5957,-1.568,-1.5367,-1.496,-1.4547,-1.4165,-1.3732,-1.3505,-1.3324,-1.2977,-1.2638,-1.2058,-1.1301,-1.0226,-0.9249,-0.8679,-0.7953,-0.6988,-1.9904,-2.0489,-2.0506,-2.0501,-2.0483,-2.039,-2.0241,-2.0097,-1.9847,-1.9707,-1.9675,-1.9732,-1.9794,-1.9929,-2.021,-2.0436,-2.0923,-2.0508,-2.0294,-2.0847,-2.0245,-2.0096,-2.021,-2.056,-2.1138,-2.1828,-2.2589,-2.3435,-2.4237,-2.4668,-2.5112,-2.5473,-2.5579,-2.5531,-2.5484,-2.5397,-2.5341,-2.5382,-2.5425,-2.5523,-2.5604,-2.5632,-2.5642,-2.5626,-2.5642,-2.5639,-2.5642,-2.5642,-2.5639,-2.5671,-2.5628,-2.5585,-2.5506,-2.5406,-2.5351,-2.5233,-2.5,-2.4818,-2.4559,-2.4393,-2.4172,-2.3959,-2.3771,-2.3508,-2.3223,-2.307,-2.2893,-2.279,-2.2721,-2.2659,-2.2632,-2.2685,-2.2659,-2.2632,-2.2659,-2.2738,-2.2842,-2.2868,-2.2876,-2.2825,-2.2721,-2.2552,-2.2405,-2.2276,-2.2073,-2.1688,-2.1291,-2.0567,-1.9814,-1.8962,-1.8224,-1.7733,-1.731,-1.6989,-1.6748,-1.6522,-1.6392,-1.6275,-1.6001,-1.568,-1.5468,-1.5108,-1.472,-1.4351,-1.4071,-1.3705,-1.3122,-1.2638,-1.19,-1.115,-1.0226,-0.9354,-0.8626,-0.7694,-0.676,-2.0376,-2.0494,-2.0508,-2.049,-2.0487,-2.0404,-2.025,-1.999,-1.9889,-1.983,-1.98,-1.9809,-1.9896,-2.0142,-2.0735,-2.0984,-2.1003,-2.0946,-2.0986,-2.0938,-2.0419,-2.0328,-2.0526,-2.1006,-2.1511,-2.2312,-2.3102,-2.3827,-2.4511,-2.5095,-2.5514,-2.56,-2.5546,-2.5525,-2.5468,-2.5437,-2.5382,-2.5437,-2.5486,-2.5571,-2.5658,-2.5676,-2.5685,-2.5668,-2.5668,-2.5687,-2.5689,-2.5689,-2.5685,-2.5679,-2.5623,-2.558,-2.5504,-2.5432,-2.5357,-2.5233,-2.4981,-2.4775,-2.4594,-2.4445,-2.4339,-2.4154,-2.3921,-2.3732,-2.3553,-2.3365,-2.3223,-2.3102,-2.3028,-2.2927,-2.2868,-2.2825,-2.2825,-2.2825,-2.2868,-2.297,-2.3095,-2.3144,-2.3168,-2.3102,-2.3003,-2.285,-2.2712,-2.2561,-2.2473,-2.222,-2.1816,-2.1289,-2.0487,-1.9492,-1.8788,-1.8198,-1.7733,-1.7227,-1.6989,-1.6778,-1.6577,-1.6448,-1.6219,-1.5944,-1.578,-1.557,-1.5142,-1.4777,-1.4605,-1.4082,-1.3208,-1.2384,-1.156,-1.0795,-1.0131,-0.9354,-0.8626,-0.7512,-0.6561,-2.0359,-2.042,-2.0443,-2.0419,-2.043,-2.0353,-2.0227,-2.0069,-1.9977,-1.9945,-1.9955,-1.9943,-2.0031,-2.019,-2.0376,-2.0523,-2.0558,-2.0573,-2.0585,-2.0514,-2.0471,-2.0437,-2.0594,-2.0933,-2.1632,-2.2516,-2.3397,-2.4296,-2.5115,-2.5698,-2.5707,-2.5662,-2.5581,-2.5549,-2.5525,-2.5512,-2.5531,-2.5544,-2.5556,-2.5625,-2.5679,-2.5691,-2.5697,-2.5699,-2.5698,-2.5698,-2.5698,-2.5698,-2.5696,-2.5689,-2.5681,-2.5632,-2.5571,-2.5511,-2.5422,-2.5231,-2.5013,-2.4804,-2.4623,-2.4512,-2.4428,-2.4357,-2.4174,-2.3983,-2.3819,-2.3667,-2.3531,-2.3435,-2.3313,-2.3175,-2.3119,-2.3077,-2.3028,-2.3028,-2.3052,-2.3126,-2.3265,-2.3319,-2.3342,-2.3365,-2.323,-2.3157,-2.3003,-2.291,-2.2798,-2.2634,-2.2361,-2.191,-2.1209,-2.0221,-1.9368,-1.8826,-1.8173,-1.7666,-1.7282,-1.7073,-1.6833,-1.6633,-1.6392,-1.6175,-1.6057,-1.5792,-1.5468,-1.5006,-1.4408,-1.3779,-1.3054,-1.2236,-1.1418,-1.0804,-1.0138,-0.9354,-0.8515,-0.7602,-0.6789,-2.0308,-2.039,-2.0382,-2.0394,-2.0388,-2.0359,-2.0282,-2.0208,-2.0134,-2.0079,-2.0105,-2.0126,-2.0195,-2.0283,-2.0349,-2.0395,-2.0415,-2.0464,-2.0487,-2.0504,-2.0432,-2.0494,-2.0591,-2.1205,-2.2184,-2.3007,-2.3847,-2.4843,-2.5524,-2.5689,-2.5693,-2.5694,-2.5615,-2.5586,-2.5561,-2.5566,-2.561,-2.5624,-2.5629,-2.5654,-2.5672,-2.5699,-2.5702,-2.5703,-2.5703,-2.5703,-2.5703,-2.5703,-2.5701,-2.5698,-2.5691,-2.5673,-2.5593,-2.5523,-2.5414,-2.5241,-2.5069,-2.4865,-2.4704,-2.4596,-2.4549,-2.4479,-2.4407,-2.4301,-2.4136,-2.3979,-2.3834,-2.3685,-2.3549,-2.3453,-2.3407,-2.336,-2.3289,-2.3217,-2.3265,-2.3295,-2.3365,-2.344,-2.3486,-2.3549,-2.3486,-2.3399,-2.3312,-2.3242,-2.3218,-2.3159,-2.3021,-2.2686,-2.199,-2.1052,-2.0187,-1.9498,-1.8788,-1.8133,-1.7747,-1.7282,-1.696,-1.6705,-1.6522,-1.6349,-1.6231,-1.5881,-1.5424,-1.4766,-1.4025,-1.3399,-1.2832,-1.2098,-1.1326,-1.0761,-1.0241,-0.9658,-0.8947,-0.808,-0.737,-2.028,-2.0387,-2.0383,-2.0395,-2.0388,-2.0415,-2.041,-2.0405,-2.0283,-2.0236,-2.0302,-2.0305,-2.0332,-2.0391,-2.0441,-2.0472,-2.0489,-2.0489,-2.0492,-2.0521,-2.051,-2.0537,-2.103,-2.2088,-2.2538,-2.3476,-2.4374,-2.5077,-2.5521,-2.5705,-2.5704,-2.5703,-2.566,-2.5621,-2.5609,-2.56,-2.5648,-2.5681,-2.5683,-2.5693,-2.5698,-2.5702,-2.5703,-2.5703,-2.5703,-2.5703,-2.5703,-2.5703,-2.5703,-2.5702,-2.5698,-2.5666,-2.5601,-2.5498,-2.539,-2.5264,-2.5111,-2.4953,-2.4798,-2.4676,-2.4647,-2.4631,-2.461,-2.4575,-2.4442,-2.421,-2.4056,-2.3896,-2.3728,-2.3634,-2.3567,-2.3544,-2.3499,-2.3476,-2.3499,-2.3522,-2.3544,-2.3638,-2.375,-2.3771,-2.3774,-2.3692,-2.3692,-2.361,-2.3624,-2.3649,-2.3544,-2.3282,-2.2728,-2.1871,-2.1021,-2.0218,-1.9368,-1.8612,-1.7988,-1.7557,-1.7073,-1.6778,-1.6607,-1.6436,-1.6275,-1.5824,-1.5379,-1.4628,-1.3884,-1.3276,-1.2696,-1.2017,-1.1418,-1.082,-1.0395,-1.0012,-0.9322,-0.8623,-0.8235,-2.0261,-2.0328,-2.0323,-2.0349,-2.0395,-2.0457,-2.0489,-2.0488,-2.0441,-2.0386,-2.0385,-2.0383,-2.0414,-2.0474,-2.0484,-2.0505,-2.0522,-2.0559,-2.056,-2.056,-2.0563,-2.0681,-2.0839,-2.1914,-2.2597,-2.3281,-2.4159,-2.5212,-2.5593,-2.5698,-2.569,-2.569,-2.5673,-2.5659,-2.5668,-2.5655,-2.568,-2.5702,-2.5702,-2.5701,-2.5702,-2.5703,-2.5703,-2.5703,-2.5703,-2.5703,-2.5703,-2.5703,-2.5703,-2.5703,-2.5702,-2.5652,-2.5597,-2.5515,-2.5418,-2.5283,-2.516,-2.4994,-2.4851,-2.4764,-2.4753,-2.4753,-2.4768,-2.4783,-2.4673,-2.4464,-2.4247,-2.4077,-2.3917,-2.381,-2.3743,-2.3721,-2.37,-2.37,-2.3721,-2.3721,-2.3739,-2.3873,-2.4016,-2.4037,-2.4039,-2.4039,-2.402,-2.4019,-2.4036,-2.3996,-2.3917,-2.3714,-2.3369,-2.2651,-2.1778,-2.0927,-1.9939,-1.9163,-1.8433,-1.772,-1.7157,-1.6833,-1.665,-1.6448,-1.6275,-1.568,-1.5096,-1.4501,-1.3847,-1.3228,-1.2696,-1.2098,-1.151,-1.0956,-1.0439,-1.01,-0.9976,-0.943,-0.9244,-2.0286,-2.0343,-2.0346,-2.0385,-2.0402,-2.0472,-2.0505,-2.0508,-2.0507,-2.0469,-2.046,-2.0446,-2.0468,-2.0507,-2.0502,-2.0504,-2.0526,-2.0566,-2.0586,-2.0605,-2.0664,-2.0937,-2.1328,-2.1992,-2.2967,-2.3708,-2.4545,-2.534,-2.5644,-2.5698,-2.5693,-2.5703,-2.5691,-2.5698,-2.5703,-2.5703,-2.5702,-2.5702,-2.5702,-2.5703,-2.5703,-2.5703,-2.5703,-2.5703,-2.5703,-2.5703,-2.5703,-2.5703,-2.5703,-2.5703,-2.5702,-2.5694,-2.5645,-2.5576,-2.5473,-2.5354,-2.5225,-2.5091,-2.4961,-2.4879,-2.4832,-2.4865,-2.4931,-2.4926,-2.4865,-2.4657,-2.4444,-2.4247,-2.4018,-2.3894,-2.3873,-2.3852,-2.3873,-2.3873,-2.3933,-2.3974,-2.4056,-2.4192,-2.4284,-2.4337,-2.4337,-2.4355,-2.4338,-2.4303,-2.4303,-2.421,-2.4153,-2.3998,-2.3671,-2.3189,-2.2407,-2.1529,-2.0454,-1.9456,-1.8626,-1.7868,-1.7199,-1.6918,-1.6705,-1.6349,-1.6001,-1.54,-1.4766,-1.4305,-1.38,-1.3276,-1.2696,-1.2076,-1.1607,-1.1091,-1.0582,-1.0173,-1.0111,-1.009,-0.9891,-2.0346,-2.041,-2.0419,-2.0394,-2.0406,-2.0447,-2.0474,-2.0482,-2.0492,-2.0581,-2.0684,-2.0694,-2.0594,-2.0511,-2.0503,-2.0499,-2.0533,-2.0581,-2.0604,-2.0605,-2.0605,-2.1035,-2.1776,-2.2635,-2.3528,-2.438,-2.521,-2.5483,-2.5696,-2.5693,-2.5701,-2.5691,-2.5699,-2.5703,-2.5702,-2.5677,-2.567,-2.5673,-2.5676,-2.57,-2.5702,-2.5703,-2.5703,-2.5703,-2.5703,-2.5703,-2.5703,-2.5703,-2.5703,-2.5703,-2.5702,-2.5694,-2.5676,-2.5621,-2.5535,-2.541,-2.5321,-2.5192,-2.5068,-2.4994,-2.4962,-2.4968,-2.5063,-2.5063,-2.4987,-2.4847,-2.4636,-2.4424,-2.4173,-2.4018,-2.4016,-2.3996,-2.4016,-2.4057,-2.4134,-2.4229,-2.4355,-2.4491,-2.4572,-2.4636,-2.4636,-2.4639,-2.4594,-2.4547,-2.4481,-2.4411,-2.4266,-2.4096,-2.3819,-2.3241,-2.2565,-2.1674,-2.0701,-1.9718,-1.8788,-1.8014,-1.7323,-1.7044,-1.6778,-1.6293,-1.5812,-1.5355,-1.4858,-1.4258,-1.3742,-1.3182,-1.2577,-1.1893,-1.1495,-1.1094,-1.0578,-1.0131,-1.0114,-1.0108,-1.0252,-2.0366,-2.0462,-2.0412,-2.039,-2.0396,-2.0419,-2.039,-2.0366,-2.041,-2.0768,-2.115,-2.131,-2.1119,-2.0499,-2.0508,-2.0568,-2.0722,-2.0674,-2.0603,-2.0605,-2.0605,-2.1132,-2.2027,-2.3174,-2.4059,-2.4885,-2.5515,-2.5586,-2.569,-2.5698,-2.5689,-2.5702,-2.57,-2.567,-2.5626,-2.5616,-2.5639,-2.5651,-2.5666,-2.5694,-2.5701,-2.5703,-2.5703,-2.5703,-2.5703,-2.5703,-2.5703,-2.5703,-2.5703,-2.5703,-2.5703,-2.5698,-2.5685,-2.5639,-2.5566,-2.5486,-2.5382,-2.5303,-2.5194,-2.5141,-2.513,-2.5141,-2.519,-2.5187,-2.5111,-2.5032,-2.4837,-2.4642,-2.4409,-2.4191,-2.4134,-2.4133,-2.4152,-2.4211,-2.4265,-2.4456,-2.4598,-2.4747,-2.4845,-2.4885,-2.4904,-2.485,-2.4752,-2.4685,-2.4564,-2.4462,-2.4321,-2.4135,-2.3878,-2.3328,-2.2737,-2.1859,-2.0911,-1.9943,-1.8991,-1.8159,-1.7516,-1.724,-1.6905,-1.6436,-1.5988,-1.5579,-1.5028,-1.4312,-1.3602,-1.3011,-1.2371,-1.1719,-1.1242,-1.0807,-1.0406,-1.0083,-1.0109,-1.0141,-1.0238]},{"header":{"parameterUnit":"m.s-1","parameterCategory":1,"la1":31.0,"la2":29.5877,"lo1":-88.7671,"lo2":-86.6584,"dy":0.0162,"dx":0.0185,"nx":115,"ny":88,"refTime":"2023-02-24T18:00:00:Z","depth":0,"parameterNumber":3,"parameterNumberName":"V-component_of_WINDS"},"data":[0.0,0.0,0.0,0.0,0.0,0.0,0.0,0.0,0.0,0.0,0.0,0.0,0.0,0.0,0.0,0.0,0.0,0.0,0.0,0.0,0.0,0.0,0.0,0.0,0.0,0.0,0.0,0.0,0.0,0.0,0.0,0.0,0.0,0.0,0.0,0.0,0.0,0.0,0.0,0.0,0.0,0.0,0.0,0.0,0.0,0.0,0.0,0.0,0.0,0.0,0.0,0.0,0.0,0.0,0.0,0.0,0.0,0.0,0.0,0.0,0.0,0.0,0.0,0.0,0.0,0.0,0.0,0.0,0.0,0.0,0.0,0.0,0.0,0.0,0.0,0.0,0.0,0.0,0.0,0.0,0.0,0.0,0.0,0.0,0.0,0.0,0.0,0.0,0.0,0.0,0.0,0.0,0.0,0.0,0.0,0.0,0.0,0.0,0.0,0.0,0.0,0.0,0.0,0.0,0.0,0.0,0.0,0.0,0.0,0.0,0.0,0.0,0.0,0.0,0.0,0.0,0.0,0.0,0.0,0.0,0.0,0.0,0.0,0.0,0.0,0.0,0.0,0.0,0.0,0.0,0.0,0.0,0.0,0.0,0.0,0.0,0.0,0.0,0.0,0.0,0.0,0.0,0.0,0.0,0.0,0.0,0.0,0.0,0.0,0.0,0.0,0.0,0.0,0.0,0.0,0.0,0.0,0.0,0.0,0.0,0.0,0.0,0.0,0.0,0.0,0.0,0.0,0.0,0.0,0.0,0.0,0.0,0.0,0.0,0.0,0.0,0.0,0.0,0.0,0.0,0.0,0.0,0.0,0.0,0.0,0.0,0.0,0.0,0.0,0.0,0.0,0.0,0.0,0.0,0.0,0.0,0.0,0.0,0.0,0.0,0.0,0.0,0.0,0.0,0.0,0.0,0.0,0.0,0.0,0.0,0.0,0.0,0.0,0.0,0.0,0.0,0.0,0.0,0.0,0.0,0.0,0.0,0.0,0.0,0.0,0.0,0.0,0.0,0.0,0.0,0.0,0.0,0.0,0.0,0.0,0.0,0.0,0.0,0.0,0.0,0.0,0.0,0.0,0.0,0.0,0.0,0.0,0.0,0.0,0.0,0.0,0.0,0.0,0.0,0.0,0.0,0.0,0.0,0.0,0.0,0.0,0.0,0.0,0.0,0.0,0.0,0.0,0.0,0.0,0.0,0.0,0.0,0.0,0.0,0.0,0.0,0.0,0.0,0.0,0.0,0.0,0.0,0.0,0.0,0.0,0.0,0.0,0.0,0.0,0.0,0.0,0.0,0.0,0.0,0.0,0.0,0.0,0.0,0.0,0.0,0.0,0.0,0.0,0.0,0.0,0.0,0.0,0.0,0.0,0.0,0.0,0.0,0.0,0.0,0.0,0.0,0.0,0.0,0.0,0.0,0.0,0.0,0.0,0.0,0.0,0.0,0.0,0.0,0.0,0.0,0.0,0.0,0.0,0.0,0.0,0.0,0.0,0.0,0.0,0.0,0.0,0.0,0.0,0.0,0.0,0.0,0.0,0.0,0.0,0.0,0.0,0.0,0.0,0.0,0.0,0.0,0.0,0.0,0.0,0.0,0.0,0.0,0.0,0.0,0.0,0.0,0.0,0.0,0.0,0.0,0.0,0.0,0.0,0.0,0.0,0.0,0.0,0.0,0.0,0.0,0.0,0.0,0.0,0.0,0.0,0.0,0.0,0.0,0.0,0.0,0.0,0.0,0.0,0.0,0.0,0.0,0.0,0.0,0.0,0.0,0.0,0.0,0.0,0.0,0.0,0.0,0.0,0.0,0.0,0.0,0.0,0.0,0.0,0.0,0.0,0.0,0.0,0.0,0.0,0.0,0.0,0.0,0.0,0.0,0.0,0.0,0.0,0.0,0.0,0.0,0.0,0.0,0.0,0.0,0.0,0.0,0.0,0.0,0.0,0.0,0.0,0.0,0.0,0.0,0.0,0.0,0.0,0.0,0.0,0.0,0.0,0.0,0.0,0.0,0.0,0.0,0.0,0.0,0.0,0.0,0.0,0.0,0.0,0.0,0.0,0.0,0.0,0.0,0.0,0.0,0.0,0.0,0.0,0.0,0.0,0.0,0.0,0.0,0.0,0.0,0.0,0.0,0.0,0.0,0.0,0.0,0.0,0.0,0.0,0.0,0.0,0.0,0.0,0.0,0.0,0.0,0.0,0.0,0.0,0.0,0.0,0.0,0.0,0.0,0.0,0.0,0.0,0.0,0.0,0.0,0.0,0.0,0.0,0.0,0.0,0.0,0.0,0.0,0.0,0.0,0.0,0.0,0.0,0.0,0.0,0.0,0.0,0.0,0.0,0.0,0.0,0.0,0.0,0.0,0.0,0.0,0.0,0.0,0.0,0.0,0.0,0.0,0.0,0.0,0.0,0.0,0.0,0.0,0.0,0.0,0.0,0.0,0.0,0.0,0.0,0.0,0.0,0.0,0.0,0.0,0.0,0.0,0.0,0.0,0.0,0.0,0.0,0.0,0.0,0.0,0.0,0.0,0.0,0.0,0.0,0.0,0.0,0.0,0.0,0.0,0.0,0.0,0.0,0.0,0.0,0.0,0.0,0.0,0.0,0.0,0.0,0.0,0.0,0.0,0.0,0.0,0.0,0.0,0.0,0.0,0.0,0.0,0.0,0.0,0.0,0.0,0.0,0.0,0.0,0.0,0.0,0.0,0.0,0.0,0.0,0.0,0.0,0.0,0.0,0.0,0.0,0.0,0.0,0.0,0.0,0.0,0.0,0.0,0.0,0.0,0.0,0.0,0.0,0.0,0.0,0.0,0.0,0.0,0.0,0.0,0.0,0.0,0.0,0.0,0.0,0.0,0.0,0.0,0.0,0.0,0.0,0.0,0.0,0.0,0.0,0.0,0.0,0.0,0.0,0.0,0.0,0.0,0.0,0.0,0.0,0.0,0.0,0.0,0.0,0.0,0.0,0.0,0.0,0.0,0.0,0.0,0.0,0.0,0.0,0.0,0.0,0.0,0.0,0.0,0.0,0.0,0.0,0.0,0.0,0.0,0.0,0.0,0.0,0.0,0.0,0.0,0.0,0.0,0.0,0.0,0.0,0.0,0.0,0.0,0.0,0.0,0.0,0.0,0.0,0.0,0.0,0.0,0.0,0.0,0.0,0.0,0.0,0.0,0.0,0.0,0.0,0.0,0.0,0.0,0.0,0.0,0.0,0.0,0.0,0.0,0.0,0.0,0.0,0.0,0.0,0.0,0.0,0.0,0.0,0.0,0.0,0.0,0.0,0.0,0.0,0.0,0.0,0.0,0.0,0.0,0.0,0.0,0.0,0.0,0.0,0.0,0.0,0.0,0.0,0.0,0.0,0.0,0.0,0.0,0.0,0.0,0.0,0.0,0.0,0.0,0.0,0.0,0.0,0.0,0.0,0.0,0.0,0.0,0.0,0.0,0.0,0.0,0.0,0.0,0.0,0.0,0.0,0.0,0.0,0.0,0.0,0.0,0.0,0.0,0.0,0.0,0.0,0.0,0.0,0.0,0.0,0.0,0.0,0.0,0.0,0.0,0.0,0.0,0.0,0.0,0.0,0.0,0.0,0.0,0.0,0.0,0.0,0.0,0.0,0.0,0.0,0.0,0.0,0.0,0.0,0.0,0.0,0.0,0.0,0.0,0.0,0.0,0.0,0.0,0.0,0.0,0.0,0.0,0.0,0.0,0.0,0.0,0.0,0.0,0.0,0.0,0.0,0.0,0.0,0.0,0.0,0.0,0.0,0.0,0.0,0.0,0.0,0.0,0.0,0.0,0.0,0.0,0.0,0.0,0.0,0.0,0.0,0.0,0.0,0.0,0.0,0.0,0.0,0.0,0.0,0.0,0.0,0.0,0.0,0.0,0.0,0.0,0.0,0.0,0.0,0.0,0.0,0.0,0.0,0.0,0.0,0.0,0.0,0.0,0.0,0.0,0.0,0.0,0.0,0.0,0.0,0.0,0.0,0.0,0.0,0.0,0.0,0.0,0.0,0.0,0.0,0.0,0.0,0.0,0.0,0.0,0.0,0.0,0.0,0.0,0.0,0.0,0.0,0.0,0.0,0.0,0.0,0.0,0.0,0.0,0.0,0.0,0.0,0.0,0.0,0.0,0.0,0.0,0.0,0.0,0.0,0.0,0.0,0.0,0.0,0.0,0.0,0.0,0.0,0.0,0.0,0.0,0.0,0.0,0.0,0.0,0.0,0.0,0.0,0.0,0.0,0.0,0.0,0.0,0.0,0.0,-1.5061,0.0,0.0,0.0,0.0,0.0,0.0,0.0,0.0,0.0,0.0,0.0,0.0,0.0,0.0,0.0,0.0,0.0,0.0,0.0,0.0,0.0,0.0,0.0,0.0,0.0,0.0,0.0,0.0,0.0,0.0,0.0,0.0,0.0,0.0,0.0,0.0,0.0,0.0,0.0,0.0,0.0,0.0,0.0,0.0,0.0,0.0,0.0,0.0,0.0,0.0,0.0,0.0,0.0,0.0,0.0,0.0,0.0,0.0,0.0,0.0,0.0,0.0,0.0,0.0,0.0,0.0,0.0,0.0,0.0,0.0,0.0,0.0,0.0,0.0,0.0,0.0,0.0,0.0,0.0,0.0,0.0,0.0,0.0,0.0,0.0,0.0,0.0,0.0,0.0,0.0,0.0,0.0,0.0,0.0,0.0,0.0,0.0,0.0,0.0,0.0,0.0,0.0,0.0,0.0,0.0,0.0,0.0,0.0,0.0,0.0,-1.4846,-1.464,-1.4662,-1.4719,-1.4846,0.0,0.0,0.0,0.0,0.0,0.0,0.0,0.0,0.0,0.0,0.0,0.0,0.0,0.0,0.0,0.0,0.0,0.0,0.0,0.0,0.0,0.0,0.0,0.0,0.0,0.0,0.0,0.0,0.0,0.0,0.0,0.0,0.0,0.0,0.0,0.0,0.0,0.0,0.0,0.0,0.0,0.0,0.0,0.0,0.0,0.0,0.0,0.0,0.0,0.0,0.0,0.0,0.0,0.0,0.0,0.0,0.0,0.0,0.0,0.0,0.0,0.0,0.0,0.0,0.0,0.0,0.0,0.0,0.0,0.0,0.0,0.0,0.0,0.0,0.0,0.0,0.0,0.0,0.0,0.0,0.0,0.0,0.0,0.0,0.0,0.0,0.0,0.0,0.0,0.0,0.0,0.0,0.0,0.0,0.0,0.0,0.0,0.0,0.0,0.0,0.0,0.0,0.0,0.0,0.0,0.0,0.0,0.0,0.0,0.0,0.0,0.0,-1.4384,-1.4477,-1.4616,0.0,0.0,0.0,0.0,0.0,0.0,0.0,0.0,0.0,0.0,0.0,0.0,0.0,0.0,0.0,0.0,0.0,0.0,0.0,0.0,0.0,0.0,0.0,0.0,0.0,0.0,0.0,0.0,0.0,0.0,0.0,0.0,0.0,0.0,0.0,0.0,0.0,0.0,0.0,0.0,0.0,0.0,0.0,0.0,0.0,0.0,0.0,0.0,0.0,0.0,0.0,0.0,0.0,0.0,0.0,0.0,0.0,0.0,0.0,0.0,0.0,0.0,0.0,0.0,0.0,0.0,0.0,0.0,0.0,0.0,0.0,0.0,0.0,0.0,0.0,0.0,0.0,0.0,0.0,0.0,0.0,0.0,0.0,0.0,0.0,0.0,0.0,0.0,0.0,0.0,0.0,0.0,0.0,0.0,0.0,0.0,0.0,0.0,0.0,0.0,0.0,0.0,0.0,0.0,0.0,0.0,0.0,0.0,0.0,0.0,-1.401,-1.3868,-1.3858,0.0,-1.4651,0.0,0.0,0.0,0.0,0.0,0.0,0.0,0.0,0.0,0.0,0.0,0.0,0.0,0.0,0.0,0.0,0.0,0.0,0.0,0.0,0.0,0.0,0.0,0.0,0.0,0.0,0.0,0.0,0.0,0.0,0.0,0.0,0.0,0.0,0.0,0.0,0.0,0.0,0.0,0.0,0.0,0.0,0.0,0.0,0.0,0.0,0.0,0.0,0.0,0.0,0.0,0.0,0.0,0.0,0.0,0.0,0.0,0.0,0.0,0.0,0.0,0.0,0.0,0.0,0.0,0.0,0.0,0.0,0.0,0.0,0.0,0.0,0.0,0.0,0.0,0.0,0.0,0.0,0.0,0.0,0.0,0.0,0.0,0.0,0.0,0.0,0.0,0.0,0.0,0.0,0.0,0.0,0.0,0.0,0.0,0.0,0.0,0.0,0.0,0.0,0.0,0.0,0.0,0.0,0.0,0.0,0.0,0.0,0.0,0.0,-1.3478,-1.3344,-1.3478,-1.3858,0.0,0.0,0.0,0.0,0.0,0.0,0.0,0.0,0.0,0.0,0.0,0.0,0.0,0.0,0.0,0.0,0.0,0.0,0.0,0.0,0.0,0.0,0.0,0.0,0.0,0.0,0.0,0.0,0.0,0.0,0.0,0.0,0.0,0.0,0.0,0.0,0.0,0.0,0.0,0.0,0.0,0.0,0.0,0.0,0.0,0.0,0.0,0.0,0.0,0.0,0.0,0.0,0.0,0.0,0.0,0.0,0.0,0.0,0.0,0.0,0.0,0.0,0.0,0.0,0.0,0.0,0.0,0.0,0.0,0.0,0.0,0.0,0.0,0.0,0.0,0.0,0.0,0.0,0.0,0.0,0.0,0.0,0.0,0.0,0.0,0.0,0.0,0.0,0.0,0.0,0.0,0.0,0.0,0.0,0.0,0.0,0.0,0.0,0.0,0.0,0.0,0.0,0.0,0.0,0.0,0.0,0.0,0.0,0.0,0.0,-1.3238,-1.2987,-1.2813,-1.3132,-1.36,-1.4222,0.0,0.0,0.0,0.0,0.0,0.0,0.0,0.0,0.0,0.0,0.0,0.0,0.0,0.0,0.0,0.0,0.0,0.0,0.0,0.0,0.0,0.0,0.0,0.0,0.0,0.0,0.0,0.0,0.0,0.0,0.0,0.0,0.0,0.0,0.0,0.0,0.0,0.0,0.0,0.0,0.0,0.0,0.0,0.0,0.0,0.0,0.0,0.0,0.0,0.0,0.0,0.0,0.0,0.0,0.0,0.0,0.0,0.0,0.0,0.0,0.0,0.0,0.0,0.0,0.0,0.0,0.0,0.0,0.0,0.0,0.0,0.0,0.0,0.0,0.0,0.0,0.0,0.0,0.0,0.0,0.0,0.0,0.0,0.0,0.0,0.0,0.0,0.0,0.0,0.0,0.0,0.0,0.0,0.0,0.0,0.0,0.0,0.0,0.0,0.0,0.0,0.0,0.0,0.0,0.0,0.0,0.0,0.0,-1.3055,-1.2813,-1.2569,-1.2323,-1.2783,-1.3256,0.0,0.0,0.0,0.0,0.0,0.0,0.0,0.0,0.0,0.0,0.0,0.0,0.0,0.0,0.0,0.0,0.0,0.0,0.0,0.0,0.0,0.0,0.0,0.0,0.0,0.0,0.0,0.0,0.0,0.0,0.0,0.0,0.0,0.0,0.0,0.0,0.0,0.0,0.0,0.0,0.0,0.0,0.0,0.0,0.0,0.0,0.0,0.0,0.0,0.0,0.0,0.0,0.0,0.0,0.0,0.0,0.0,0.0,0.0,0.0,0.0,0.0,0.0,0.0,0.0,0.0,0.0,0.0,0.0,0.0,0.0,0.0,0.0,0.0,0.0,0.0,0.0,0.0,0.0,0.0,0.0,0.0,0.0,0.0,0.0,0.0,0.0,0.0,0.0,0.0,0.0,0.0,0.0,0.0,0.0,0.0,0.0,0.0,0.0,0.0,0.0,0.0,0.0,0.0,0.0,0.0,0.0,0.0,0.0,-1.3007,-1.2471,-1.2076,-1.1828,-1.2304,-1.2929,0.0,0.0,0.0,0.0,0.0,0.0,0.0,0.0,0.0,0.0,0.0,0.0,0.0,0.0,0.0,0.0,0.0,0.0,0.0,0.0,0.0,0.0,0.0,0.0,0.0,0.0,0.0,0.0,0.0,0.0,0.0,0.0,0.0,0.0,0.0,0.0,0.0,0.0,0.0,0.0,0.0,0.0,0.0,0.0,0.0,0.0,0.0,0.0,0.0,0.0,0.0,0.0,0.0,0.0,0.0,0.0,0.0,0.0,0.0,0.0,0.0,0.0,0.0,0.0,0.0,0.0,0.0,0.0,0.0,0.0,0.0,0.0,0.0,0.0,0.0,0.0,0.0,0.0,0.0,0.0,0.0,0.0,0.0,0.0,0.0,0.0,0.0,0.0,0.0,0.0,0.0,0.0,0.0,0.0,0.0,0.0,0.0,0.0,0.0,0.0,0.0,0.0,0.0,0.0,0.0,0.0,0.0,0.0,0.0,-1.251,0.0,-1.1569,-1.1326,-1.2008,-1.2677,0.0,0.0,0.0,0.0,0.0,0.0,0.0,0.0,0.0,0.0,0.0,0.0,0.0,0.0,0.0,0.0,0.0,0.0,0.0,0.0,0.0,0.0,0.0,0.0,0.0,0.0,0.0,0.0,0.0,0.0,0.0,0.0,0.0,0.0,0.0,0.0,0.0,0.0,0.0,0.0,0.0,0.0,0.0,0.0,0.0,0.0,0.0,0.0,0.0,0.0,0.0,0.0,0.0,0.0,0.0,0.0,0.0,0.0,0.0,0.0,0.0,0.0,0.0,0.0,0.0,0.0,0.0,0.0,0.0,0.0,0.0,0.0,0.0,0.0,0.0,0.0,0.0,0.0,0.0,0.0,0.0,0.0,0.0,0.0,0.0,0.0,0.0,0.0,0.0,0.0,0.0,0.0,0.0,0.0,0.0,0.0,0.0,0.0,0.0,0.0,0.0,0.0,0.0,0.0,0.0,0.0,0.0,0.0,-1.254,-1.1569,-1.1377,-1.1167,-1.0922,-1.1882,-1.2696,0.0,0.0,0.0,0.0,0.0,0.0,0.0,0.0,0.0,0.0,0.0,0.0,0.0,0.0,0.0,0.0,0.0,0.0,0.0,0.0,0.0,0.0,0.0,0.0,0.0,0.0,0.0,0.0,0.0,0.0,0.0,0.0,0.0,0.0,0.0,0.0,0.0,0.0,0.0,0.0,0.0,0.0,0.0,0.0,0.0,0.0,0.0,0.0,0.0,0.0,0.0,0.0,0.0,0.0,0.0,0.0,0.0,0.0,0.0,0.0,0.0,0.0,0.0,0.0,0.0,0.0,0.0,0.0,0.0,0.0,0.0,0.0,0.0,0.0,0.0,0.0,0.0,0.0,0.0,0.0,0.0,0.0,0.0,0.0,0.0,0.0,0.0,0.0,0.0,0.0,0.0,0.0,0.0,0.0,0.0,0.0,0.0,0.0,0.0,0.0,0.0,0.0,0.0,0.0,0.0,0.0,0.0,0.0,0.0,-1.1368,-1.1074,-1.0871,-1.0769,-1.1534,-1.2444,0.0,0.0,0.0,0.0,0.0,0.0,0.0,0.0,0.0,0.0,0.0,0.0,0.0,0.0,0.0,0.0,0.0,0.0,0.0,0.0,0.0,0.0,0.0,0.0,0.0,0.0,0.0,0.0,0.0,0.0,0.0,0.0,0.0,0.0,0.0,0.0,0.0,0.0,0.0,0.0,0.0,0.0,0.0,0.0,0.0,0.0,0.0,0.0,0.0,0.0,0.0,0.0,0.0,0.0,0.0,0.0,0.0,0.0,0.0,0.0,0.0,0.0,0.0,0.0,0.0,0.0,0.0,0.0,0.0,0.0,0.0,0.0,0.0,0.0,0.0,0.0,0.0,0.0,0.0,0.0,0.0,0.0,0.0,0.0,0.0,0.0,0.0,0.0,0.0,0.0,0.0,0.0,0.0,0.0,0.0,0.0,0.0,0.0,0.0,0.0,0.0,0.0,0.0,0.0,0.0,0.0,0.0,0.0,0.0,-1.0814,-1.0695,-1.0565,-1.0462,-1.1375,-1.2355,-1.3358,0.0,0.0,0.0,0.0,0.0,0.0,0.0,0.0,0.0,0.0,0.0,0.0,0.0,0.0,0.0,0.0,0.0,0.0,0.0,0.0,0.0,0.0,0.0,0.0,0.0,0.0,0.0,0.0,0.0,0.0,0.0,0.0,0.0,0.0,0.0,0.0,0.0,0.0,0.0,0.0,0.0,0.0,0.0,0.0,0.0,0.0,0.0,0.0,0.0,0.0,0.0,0.0,0.0,0.0,0.0,0.0,0.0,0.0,0.0,0.0,0.0,0.0,0.0,0.0,0.0,0.0,0.0,0.0,0.0,0.0,0.0,0.0,0.0,0.0,0.0,0.0,0.0,0.0,0.0,0.0,0.0,0.0,0.0,0.0,0.0,0.0,0.0,0.0,0.0,0.0,0.0,0.0,0.0,0.0,0.0,0.0,0.0,0.0,0.0,0.0,0.0,0.0,0.0,0.0,0.0,0.0,0.0,0.0,-0.9873,-1.028,-1.0316,-1.0043,-1.1275,-1.2395,0.0,0.0,0.0,0.0,0.0,0.0,0.0,0.0,0.0,0.0,0.0,0.0,0.0,0.0,0.0,0.0,0.0,0.0,0.0,0.0,0.0,0.0,0.0,0.0,0.0,0.0,0.0,0.0,0.0,0.0,0.0,0.0,0.0,0.0,0.0,0.0,0.0,0.0,0.0,0.0,0.0,0.0,0.0,0.0,0.0,0.0,0.0,0.0,0.0,0.0,0.0,0.0,0.0,0.0,0.0,0.0,0.0,0.0,0.0,0.0,0.0,0.0,0.0,0.0,0.0,0.0,0.0,0.0,0.0,0.0,0.0,0.0,0.0,0.0,0.0,0.0,0.0,0.0,0.0,0.0,0.0,0.0,0.0,0.0,0.0,0.0,0.0,0.0,0.0,0.0,0.0,0.0,0.0,0.0,0.0,0.0,0.0,0.0,0.0,0.0,0.0,0.0,0.0,0.0,0.0,0.0,0.0,0.0,0.0,-0.9694,-0.9875,-0.9999,-0.9999,-1.1124,-1.2248,0.0,0.0,0.0,0.0,0.0,0.0,0.0,0.0,0.0,0.0,0.0,0.0,0.0,0.0,0.0,0.0,0.0,0.0,0.0,0.0,0.0,0.0,0.0,0.0,0.0,0.0,0.0,0.0,0.0,0.0,0.0,0.0,0.0,0.0,0.0,0.0,0.0,0.0,0.0,0.0,0.0,0.0,0.0,0.0,0.0,0.0,0.0,0.0,0.0,0.0,0.0,0.0,0.0,0.0,0.0,0.0,0.0,0.0,0.0,0.0,0.0,0.0,0.0,0.0,0.0,0.0,0.0,0.0,0.0,0.0,0.0,0.0,0.0,0.0,0.0,0.0,0.0,0.0,0.0,0.0,0.0,0.0,0.0,0.0,0.0,0.0,0.0,0.0,0.0,0.0,0.0,0.0,0.0,0.0,0.0,0.0,0.0,0.0,0.0,0.0,0.0,0.0,0.0,0.0,0.0,0.0,0.0,0.0,-1.0437,-0.9333,-0.9706,-0.9947,-1.0095,-1.1074,-1.219,0.0,0.0,0.0,0.0,0.0,0.0,0.0,0.0,0.0,0.0,0.0,0.0,0.0,0.0,0.0,0.0,0.0,0.0,0.0,0.0,0.0,0.0,0.0,0.0,0.0,0.0,0.0,0.0,0.0,0.0,0.0,0.0,0.0,0.0,0.0,0.0,0.0,0.0,0.0,0.0,0.0,0.0,0.0,0.0,0.0,0.0,0.0,0.0,0.0,0.0,0.0,0.0,0.0,0.0,0.0,0.0,0.0,0.0,0.0,0.0,0.0,0.0,0.0,0.0,0.0,0.0,0.0,0.0,0.0,0.0,0.0,0.0,0.0,0.0,0.0,0.0,0.0,0.0,0.0,0.0,0.0,0.0,0.0,0.0,0.0,0.0,0.0,0.0,0.0,0.0,0.0,0.0,0.0,0.0,0.0,0.0,0.0,0.0,0.0,0.0,0.0,0.0,0.0,0.0,0.0,0.0,0.0,0.0,-1.0075,-0.9043,-0.965,-1.0102,-1.0249,-1.1174,-1.2229,0.0,0.0,0.0,0.0,0.0,0.0,0.0,0.0,0.0,0.0,0.0,0.0,0.0,0.0,0.0,0.0,0.0,0.0,0.0,0.0,0.0,0.0,0.0,0.0,0.0,0.0,0.0,0.0,0.0,0.0,0.0,0.0,0.0,0.0,0.0,0.0,0.0,0.0,0.0,0.0,0.0,0.0,0.0,0.0,0.0,0.0,0.0,0.0,0.0,0.0,0.0,0.0,0.0,0.0,0.0,0.0,0.0,0.0,0.0,0.0,0.0,0.0,0.0,0.0,0.0,0.0,0.0,0.0,0.0,0.0,0.0,0.0,0.0,0.0,0.0,0.0,0.0,0.0,0.0,0.0,0.0,0.0,0.0,0.0,0.0,0.0,0.0,0.0,0.0,0.0,0.0,0.0,0.0,0.0,0.0,0.0,0.0,0.0,0.0,0.0,0.0,0.0,0.0,0.0,0.0,0.0,0.0,0.0,-0.9877,-0.9237,-0.9749,-1.0205,-1.0565,-1.1434,-1.2434,0.0,0.0,0.0,0.0,0.0,0.0,0.0,0.0,0.0,0.0,0.0,0.0,0.0,0.0,0.0,0.0,0.0,0.0,0.0,0.0,0.0,0.0,0.0,0.0,0.0,0.0,0.0,0.0,0.0,0.0,0.0,0.0,0.0,0.0,0.0,0.0,0.0,0.0,0.0,0.0,0.0,0.0,0.0,0.0,0.0,0.0,0.0,0.0,-1.9683,0.0,0.0,0.0,0.0,0.0,0.0,0.0,0.0,0.0,0.0,0.0,0.0,0.0,0.0,0.0,0.0,0.0,0.0,0.0,0.0,0.0,0.0,0.0,0.0,0.0,0.0,0.0,0.0,0.0,0.0,0.0,0.0,0.0,0.0,0.0,0.0,0.0,0.0,0.0,0.0,0.0,0.0,0.0,0.0,0.0,0.0,0.0,0.0,0.0,0.0,0.0,0.0,0.0,0.0,0.0,0.0,0.0,0.0,0.0,-0.9947,-0.9484,-1.0006,-1.0565,-1.1074,-1.194,-1.2831,0.0,0.0,0.0,0.0,0.0,0.0,0.0,0.0,0.0,0.0,0.0,0.0,0.0,0.0,0.0,0.0,0.0,0.0,0.0,0.0,0.0,0.0,0.0,0.0,0.0,0.0,0.0,0.0,0.0,0.0,0.0,0.0,0.0,0.0,0.0,0.0,0.0,0.0,0.0,0.0,0.0,0.0,0.0,0.0,0.0,0.0,0.0,0.0,0.0,0.0,0.0,0.0,0.0,0.0,0.0,0.0,0.0,0.0,0.0,0.0,0.0,0.0,0.0,0.0,0.0,0.0,0.0,0.0,0.0,0.0,0.0,0.0,0.0,0.0,0.0,0.0,0.0,0.0,0.0,0.0,0.0,0.0,0.0,0.0,0.0,0.0,0.0,0.0,0.0,0.0,0.0,0.0,0.0,0.0,0.0,0.0,0.0,0.0,0.0,0.0,0.0,0.0,0.0,0.0,0.0,0.0,0.0,-1.02,-1.0024,-0.9722,-1.0344,-1.099,-1.149,-1.2355,-1.3243,-1.4085,0.0,0.0,0.0,0.0,0.0,0.0,0.0,0.0,0.0,0.0,0.0,0.0,0.0,0.0,0.0,0.0,0.0,0.0,0.0,0.0,0.0,0.0,0.0,0.0,0.0,0.0,0.0,0.0,0.0,0.0,0.0,0.0,0.0,0.0,0.0,0.0,0.0,0.0,-1.8176,-1.7537,0.0,0.0,0.0,0.0,0.0,0.0,0.0,0.0,-1.9797,0.0,0.0,0.0,0.0,0.0,0.0,0.0,0.0,0.0,0.0,0.0,0.0,0.0,0.0,0.0,0.0,0.0,0.0,0.0,0.0,0.0,0.0,0.0,0.0,0.0,0.0,0.0,0.0,0.0,0.0,0.0,0.0,0.0,0.0,0.0,0.0,0.0,0.0,0.0,0.0,0.0,0.0,0.0,0.0,0.0,0.0,0.0,0.0,0.0,0.0,0.0,0.0,0.0,0.0,0.0,0.0,-1.0554,-1.0095,-0.9987,-1.0183,-1.0535,-1.095,-1.1438,-1.2455,-1.3336,-1.4181,0.0,0.0,0.0,0.0,0.0,0.0,0.0,0.0,0.0,0.0,0.0,0.0,0.0,0.0,0.0,0.0,0.0,0.0,0.0,0.0,0.0,0.0,0.0,0.0,0.0,0.0,0.0,0.0,0.0,0.0,0.0,0.0,0.0,0.0,0.0,0.0,0.0,0.0,0.0,-1.7185,-1.6837,0.0,0.0,0.0,0.0,0.0,0.0,0.0,0.0,-1.9854,0.0,0.0,0.0,0.0,0.0,0.0,0.0,0.0,0.0,0.0,0.0,0.0,0.0,0.0,0.0,0.0,0.0,0.0,0.0,0.0,0.0,0.0,0.0,0.0,0.0,0.0,0.0,0.0,0.0,0.0,0.0,0.0,0.0,0.0,0.0,0.0,0.0,0.0,0.0,0.0,0.0,0.0,0.0,0.0,0.0,0.0,0.0,0.0,0.0,0.0,0.0,0.0,0.0,0.0,0.0,-1.0575,-1.0082,-0.9968,-1.0206,-1.0488,-1.0874,-1.1342,-1.2116,-1.311,0.0,0.0,0.0,0.0,0.0,0.0,0.0,0.0,0.0,0.0,0.0,0.0,0.0,0.0,0.0,0.0,0.0,0.0,0.0,0.0,0.0,0.0,0.0,0.0,0.0,0.0,0.0,0.0,0.0,0.0,0.0,0.0,0.0,0.0,0.0,0.0,0.0,0.0,0.0,0.0,-1.7112,-1.6494,-1.6557,0.0,0.0,0.0,0.0,0.0,0.0,-1.9199,-1.9639,0.0,0.0,0.0,0.0,0.0,0.0,0.0,0.0,0.0,0.0,0.0,0.0,0.0,0.0,0.0,0.0,0.0,0.0,0.0,0.0,0.0,0.0,0.0,0.0,0.0,0.0,0.0,0.0,0.0,0.0,0.0,0.0,0.0,0.0,0.0,0.0,0.0,0.0,0.0,0.0,0.0,0.0,0.0,0.0,0.0,0.0,0.0,0.0,0.0,0.0,0.0,0.0,0.0,0.0,0.0,-1.0507,-1.009,-1.002,-1.0143,-1.0433,-1.0816,-1.1228,-1.1774,-1.2744,0.0,0.0,0.0,0.0,0.0,0.0,0.0,0.0,0.0,0.0,0.0,0.0,0.0,0.0,0.0,0.0,0.0,0.0,0.0,0.0,0.0,0.0,0.0,0.0,0.0,0.0,0.0,0.0,0.0,0.0,0.0,0.0,0.0,0.0,0.0,0.0,0.0,0.0,0.0,0.0,0.0,-1.6258,-1.6322,-1.6294,0.0,0.0,0.0,0.0,-1.862,-1.9011,0.0,0.0,0.0,0.0,0.0,0.0,0.0,0.0,0.0,0.0,0.0,0.0,0.0,0.0,0.0,0.0,0.0,0.0,0.0,0.0,0.0,0.0,0.0,0.0,0.0,0.0,0.0,0.0,0.0,0.0,0.0,0.0,0.0,0.0,0.0,0.0,0.0,0.0,0.0,0.0,0.0,0.0,0.0,0.0,0.0,0.0,0.0,0.0,0.0,0.0,0.0,0.0,0.0,0.0,0.0,0.0,-1.0623,-1.0175,-1.0105,-1.0359,-1.055,-1.0755,-1.1006,-1.1752,-1.2476,0.0,0.0,0.0,0.0,0.0,0.0,0.0,0.0,0.0,0.0,0.0,0.0,0.0,0.0,0.0,0.0,0.0,0.0,0.0,0.0,0.0,0.0,0.0,0.0,0.0,0.0,0.0,0.0,0.0,0.0,0.0,0.0,0.0,0.0,0.0,0.0,0.0,0.0,0.0,0.0,0.0,-1.6078,-1.6141,-1.62,-1.6464,0.0,0.0,-1.8464,-1.8358,-1.8707,0.0,0.0,0.0,0.0,0.0,0.0,0.0,0.0,0.0,0.0,0.0,0.0,0.0,0.0,0.0,0.0,0.0,0.0,0.0,0.0,0.0,0.0,0.0,0.0,0.0,0.0,0.0,0.0,0.0,0.0,0.0,0.0,0.0,0.0,0.0,0.0,0.0,0.0,0.0,0.0,0.0,0.0,0.0,0.0,0.0,0.0,0.0,0.0,0.0,0.0,0.0,0.0,0.0,0.0,0.0,-1.2157,-1.0661,-1.0244,-1.0096,-1.0226,-1.0357,-1.0459,-1.0494,-1.1172,-1.1914,0.0,0.0,0.0,0.0,0.0,0.0,0.0,0.0,0.0,0.0,0.0,0.0,0.0,0.0,0.0,0.0,0.0,0.0,0.0,0.0,0.0,0.0,0.0,0.0,0.0,0.0,0.0,0.0,0.0,0.0,0.0,0.0,0.0,0.0,0.0,0.0,0.0,0.0,0.0,0.0,0.0,0.0,-1.662,-1.6607,0.0,0.0,0.0,-1.8411,-1.8411,0.0,0.0,0.0,0.0,0.0,0.0,0.0,0.0,0.0,0.0,0.0,0.0,0.0,0.0,0.0,0.0,0.0,0.0,0.0,0.0,0.0,0.0,0.0,0.0,0.0,0.0,0.0,0.0,0.0,0.0,0.0,0.0,0.0,0.0,0.0,0.0,0.0,0.0,0.0,0.0,0.0,0.0,0.0,0.0,0.0,0.0,0.0,0.0,0.0,0.0,0.0,0.0,0.0,0.0,0.0,0.0,0.0,-1.0756,-1.039,-1.0235,-1.0235,-1.0312,-1.0316,-1.0134,-1.0772,0.0,0.0,0.0,0.0,0.0,0.0,0.0,0.0,0.0,0.0,0.0,0.0,0.0,0.0,0.0,0.0,0.0,0.0,0.0,0.0,0.0,0.0,0.0,0.0,0.0,0.0,0.0,0.0,0.0,0.0,0.0,0.0,0.0,0.0,0.0,0.0,0.0,0.0,0.0,0.0,0.0,0.0,-1.7027,-1.719,-1.7043,-1.7104,0.0,0.0,-1.845,-1.8581,-1.827,-1.8129,0.0,0.0,0.0,0.0,0.0,0.0,0.0,0.0,0.0,0.0,0.0,0.0,0.0,0.0,0.0,0.0,0.0,0.0,0.0,0.0,0.0,0.0,0.0,0.0,0.0,0.0,0.0,0.0,0.0,0.0,0.0,0.0,0.0,0.0,0.0,0.0,0.0,0.0,0.0,0.0,0.0,0.0,0.0,0.0,0.0,0.0,0.0,0.0,0.0,0.0,0.0,0.0,0.0,0.0,0.0,-1.1023,-1.0697,-1.0582,-1.0582,-1.0649,-1.0511,-1.0221,-1.0772,-1.1209,0.0,0.0,0.0,0.0,0.0,0.0,0.0,0.0,0.0,0.0,0.0,0.0,0.0,0.0,0.0,0.0,0.0,0.0,0.0,0.0,0.0,0.0,0.0,0.0,0.0,0.0,0.0,0.0,0.0,0.0,0.0,0.0,0.0,0.0,0.0,0.0,0.0,0.0,0.0,0.0,0.0,-1.7126,-1.7746,-1.7365,-1.7304,0.0,0.0,-1.8711,-1.8745,-1.8381,-1.8264,-1.8717,0.0,0.0,0.0,0.0,0.0,0.0,0.0,0.0,0.0,0.0,0.0,0.0,0.0,0.0,0.0,0.0,0.0,0.0,0.0,0.0,0.0,0.0,0.0,0.0,0.0,0.0,0.0,0.0,0.0,0.0,0.0,0.0,0.0,0.0,0.0,0.0,0.0,0.0,0.0,0.0,0.0,0.0,0.0,0.0,0.0,0.0,0.0,0.0,0.0,0.0,0.0,0.0,0.0,-1.2946,-1.1711,-1.1204,-1.0916,-1.0867,-1.0916,-1.0745,-1.0389,-1.0904,-1.1162,0.0,0.0,0.0,0.0,0.0,0.0,0.0,0.0,0.0,0.0,0.0,0.0,0.0,0.0,0.0,0.0,0.0,0.0,0.0,0.0,0.0,0.0,0.0,0.0,0.0,0.0,0.0,0.0,-1.7075,-1.6849,-1.7642,0.0,0.0,0.0,0.0,0.0,0.0,0.0,0.0,0.0,0.0,-1.7676,-1.7894,-1.7824,0.0,0.0,-1.8774,-1.8941,-1.9139,-1.8802,-1.8653,-1.9025,-1.9514,0.0,0.0,0.0,0.0,0.0,0.0,0.0,0.0,0.0,0.0,0.0,0.0,0.0,0.0,0.0,0.0,0.0,0.0,0.0,0.0,0.0,0.0,0.0,0.0,0.0,0.0,0.0,0.0,0.0,0.0,0.0,0.0,0.0,0.0,0.0,0.0,0.0,0.0,0.0,0.0,0.0,0.0,0.0,0.0,0.0,0.0,0.0,0.0,0.0,0.0,0.0,0.0,-1.3397,-1.2435,-1.1719,-1.133,-1.1255,-1.1255,-1.1052,-1.0588,-1.093,-1.1099,0.0,0.0,0.0,0.0,0.0,0.0,0.0,0.0,0.0,0.0,0.0,0.0,0.0,0.0,0.0,0.0,0.0,0.0,0.0,0.0,0.0,0.0,0.0,0.0,0.0,0.0,0.0,0.0,-1.7802,-1.7567,-1.7918,0.0,0.0,0.0,0.0,0.0,0.0,0.0,0.0,0.0,0.0,-1.8028,-1.8055,-1.8254,-1.8489,-1.8822,-1.9064,-1.928,-1.9523,-1.9226,-1.9028,-1.9355,0.0,0.0,0.0,0.0,0.0,0.0,0.0,0.0,0.0,0.0,0.0,0.0,0.0,0.0,0.0,0.0,0.0,0.0,0.0,0.0,0.0,0.0,0.0,0.0,0.0,0.0,0.0,0.0,0.0,0.0,-1.2725,0.0,0.0,0.0,0.0,0.0,0.0,0.0,0.0,0.0,0.0,0.0,0.0,0.0,0.0,0.0,0.0,0.0,0.0,0.0,0.0,0.0,0.0,-1.384,-1.3088,-1.223,-1.1774,-1.1774,-1.1664,-1.1297,-1.0751,-1.0967,-1.1025,-1.0869,0.0,0.0,0.0,0.0,0.0,0.0,0.0,0.0,0.0,0.0,0.0,0.0,0.0,0.0,0.0,0.0,0.0,0.0,0.0,0.0,0.0,0.0,0.0,0.0,0.0,0.0,-1.8812,-1.8653,-1.8565,0.0,0.0,0.0,0.0,0.0,0.0,0.0,0.0,0.0,0.0,-1.8121,-1.8042,-1.8189,-1.8528,-1.8874,-1.9049,-1.9435,-1.9777,-1.997,-1.9535,-1.929,0.0,0.0,0.0,0.0,0.0,0.0,0.0,0.0,0.0,0.0,0.0,0.0,0.0,0.0,0.0,0.0,0.0,0.0,0.0,0.0,0.0,0.0,0.0,0.0,0.0,0.0,0.0,-1.2175,-1.2126,0.0,0.0,0.0,0.0,0.0,0.0,0.0,0.0,0.0,0.0,0.0,-1.5241,-1.596,0.0,0.0,0.0,0.0,0.0,0.0,0.0,0.0,0.0,0.0,0.0,0.0,-1.4271,-1.3871,-1.2652,-1.1957,-1.1872,-1.176,-1.1483,-1.1194,-1.1175,-1.1475,-1.2118,0.0,0.0,0.0,0.0,0.0,0.0,0.0,0.0,0.0,0.0,0.0,0.0,0.0,0.0,0.0,0.0,0.0,0.0,0.0,0.0,0.0,0.0,0.0,0.0,0.0,-1.9306,0.0,0.0,0.0,0.0,0.0,0.0,0.0,0.0,0.0,0.0,0.0,-1.8606,-1.8358,-1.8226,-1.8279,-1.8436,-1.876,-1.9139,0.0,0.0,0.0,0.0,0.0,0.0,0.0,0.0,0.0,0.0,0.0,0.0,0.0,0.0,-2.0645,-2.1182,-2.0711,-2.0516,-2.1502,0.0,0.0,0.0,0.0,0.0,0.0,0.0,0.0,0.0,0.0,0.0,0.0,0.0,0.0,-1.12,0.0,-1.1501,0.0,0.0,0.0,0.0,0.0,0.0,0.0,0.0,-1.399,-1.4452,-1.4824,-1.545,-1.5832,0.0,-1.5819,-1.579,0.0,0.0,0.0,0.0,0.0,0.0,0.0,0.0,-1.4416,-1.3937,-1.2763,-1.2066,-1.192,-1.1833,-1.1708,-1.1496,-1.1421,-1.1702,-1.2446,-1.3374,-1.4593,0.0,0.0,0.0,0.0,0.0,0.0,0.0,0.0,0.0,0.0,0.0,0.0,0.0,0.0,0.0,0.0,0.0,0.0,0.0,0.0,0.0,0.0,0.0,-1.9258,0.0,0.0,0.0,0.0,0.0,0.0,0.0,0.0,0.0,-1.9228,-1.8965,-1.8711,-1.8514,-1.85,-1.8577,-1.8846,0.0,0.0,0.0,0.0,0.0,0.0,0.0,-2.115,-2.1509,-2.1751,-2.1928,-2.2089,-2.2197,-2.2225,-2.2248,0.0,0.0,-2.1026,-2.0385,-2.0223,-2.1503,-2.1914,-2.2447,-2.3676,-2.3033,-2.2234,0.0,0.0,0.0,0.0,0.0,0.0,0.0,0.0,-0.9995,-0.9872,0.0,-1.0442,0.0,0.0,0.0,0.0,0.0,-1.2851,0.0,0.0,-1.3622,-1.4054,-1.4371,-1.4551,-1.4656,-1.4684,-1.4602,-1.4496,-1.4597,-1.6052,0.0,0.0,0.0,0.0,0.0,0.0,-1.4283,-1.3343,-1.2551,-1.2054,-1.1909,-1.1872,-1.1822,-1.173,-1.173,-1.1745,-1.187,-1.3011,-1.4172,-1.5222,-1.6275,0.0,0.0,0.0,0.0,0.0,0.0,0.0,0.0,0.0,0.0,0.0,0.0,0.0,0.0,0.0,0.0,0.0,0.0,0.0,0.0,-1.9288,0.0,0.0,0.0,0.0,0.0,0.0,0.0,0.0,0.0,0.0,-1.9339,-1.913,-1.8979,-1.8836,0.0,0.0,0.0,0.0,-2.017,-2.0376,-2.0697,-2.0942,-2.1087,-2.123,-2.1402,-2.1678,0.0,0.0,-2.1998,-2.2106,-2.2242,-2.2377,-2.1935,-2.1325,-2.0625,-1.9556,-1.9207,-2.0838,-2.1452,-2.2134,-2.3617,-2.3548,-2.291,-0.7065,0.0,0.0,0.0,0.0,-0.8944,-0.8761,-0.8704,-0.86,-0.8602,-0.8703,-0.938,0.0,0.0,0.0,0.0,0.0,0.0,-1.2233,-1.2567,-1.3131,-1.3569,-1.3848,-1.4354,-1.4617,-1.4604,-1.4447,-1.4341,-1.4325,-1.474,-1.5048,-1.5181,0.0,0.0,0.0,0.0,-1.3486,-1.3129,-1.2207,-1.1689,-1.1689,-1.1616,-1.1664,-1.176,-1.1822,-1.1895,-1.2004,-1.2675,-1.3445,-1.4348,-1.5333,0.0,0.0,0.0,0.0,0.0,0.0,0.0,0.0,0.0,0.0,0.0,0.0,0.0,0.0,0.0,0.0,0.0,0.0,0.0,-1.9332,-1.9003,-1.8865,0.0,0.0,0.0,0.0,0.0,0.0,0.0,0.0,0.0,-1.9581,-1.9413,-1.9302,0.0,0.0,-1.9566,-1.9854,-2.0135,-2.0444,-2.0712,-2.0893,0.0,-2.1435,-2.1511,-2.1661,-2.194,-2.2089,-2.2152,-2.2147,-2.2089,-2.2147,-2.2332,-2.1883,-2.1445,-2.1422,-2.0864,-2.0756,-2.1759,-2.2215,-2.2716,-2.3763,-2.3584,-2.2926,-0.535,-0.6402,-0.7154,-0.7623,-0.7862,-0.7569,-0.741,-0.732,-0.7212,-0.7229,-0.7328,-0.7998,-0.8662,-0.9261,-1.0384,0.0,0.0,0.0,-1.1707,-1.1905,-1.2487,-1.2873,-1.3155,-1.3543,-1.37,-1.365,-1.3371,-1.3217,-1.3101,-1.305,-1.3078,-1.3217,0.0,0.0,-1.3912,-1.3344,-1.2846,-1.245,-1.183,-1.1527,-1.1564,-1.17,-1.1884,-1.2041,-1.2138,-1.2246,-1.233,-1.2627,-1.3153,-1.395,-1.4789,-1.5659,0.0,0.0,0.0,0.0,0.0,0.0,0.0,0.0,0.0,0.0,0.0,-2.015,0.0,0.0,0.0,0.0,-1.9596,-1.9472,-1.9228,-1.9003,0.0,0.0,0.0,0.0,0.0,0.0,0.0,-1.9705,-1.9777,-1.9797,-1.9797,-1.9741,-1.9705,-1.969,-1.9803,-2.0015,-2.0342,0.0,-2.0778,-2.1039,-2.1135,-2.1309,-2.1559,-2.1664,-2.1768,-2.194,-2.2061,-2.2077,-2.2049,-2.1974,-2.1998,-2.2164,-2.2051,-2.1979,-2.2248,-2.1872,-2.1544,-2.1908,-2.2126,-2.2516,-2.3415,-2.307,-2.2467,-0.4204,-0.4473,-0.5588,-0.6315,-0.6753,-0.6384,-0.611,-0.5965,-0.5884,-0.5783,-0.5867,-0.6527,-0.7265,-0.8158,-0.9715,0.0,-1.0628,-1.1186,-1.1389,-1.1308,-1.1811,-1.2138,-1.2365,-1.2341,-1.2282,-1.2174,-1.1763,-1.1542,-1.149,-1.1292,-1.118,-1.1239,-1.3011,-1.3568,-1.2954,-1.2728,-1.2283,-1.149,-1.1463,-1.1474,-1.1522,-1.1968,-1.2282,-1.2413,-1.2591,-1.2709,-1.2709,-1.2768,-1.3129,-1.3839,-1.4538,-1.5286,-1.614,0.0,0.0,0.0,0.0,0.0,0.0,0.0,0.0,0.0,0.0,0.0,0.0,0.0,0.0,0.0,-1.9413,0.0,-1.9339,-1.9213,0.0,0.0,0.0,-1.945,-1.9574,-1.9654,-1.9705,-1.9705,0.0,0.0,-1.9955,-2.0045,-2.008,-2.0025,-2.0135,-2.0361,-2.0761,-2.0925,-2.1135,-2.1246,-2.134,-2.137,-2.1411,-2.1486,-2.1559,-2.1632,-2.1748,-2.1751,-2.1751,-2.1768,-2.1823,-2.2056,-2.2354,-2.2563,-2.2755,-2.2293,-2.1856,-2.122,-2.1329,-2.1733,-2.2464,-2.2227,-2.1834,-0.3909,-0.4103,-0.447,-0.4812,-0.5152,-0.4972,-0.483,-0.4821,-0.4996,-0.5105,-0.5185,-0.5889,-0.7074,-0.8587,-0.9476,-1.013,-1.0618,-1.0765,-1.0894,-1.1094,-1.1345,-1.1689,-1.1993,-1.1957,-1.1957,-1.1945,-1.1568,-1.1356,-1.1255,-1.1067,-1.0954,-1.1002,-1.1354,-1.1512,-1.1491,-1.1454,-1.1335,-1.1191,-1.1153,-1.1292,-1.1712,-1.2174,-1.2473,-1.2627,-1.2768,-1.2873,-1.2838,-1.2943,-1.3156,-1.3398,-1.4498,-1.535,-1.5796,-1.7062,0.0,0.0,0.0,0.0,0.0,0.0,0.0,0.0,0.0,-1.9782,-1.9626,0.0,-1.9213,0.0,-1.9435,-1.9493,-1.9617,-1.945,0.0,0.0,-1.956,-1.956,-1.9654,-1.9675,-1.9705,-1.9705,-1.9833,-1.9955,-2.0005,-2.0131,-2.027,-2.0304,-2.0357,-2.0545,-2.0828,-2.0844,-2.0925,-2.1087,-2.1071,-2.091,-2.0705,-2.0767,-2.0854,-2.0796,-2.118,-2.1479,-2.1417,-2.1464,-2.1601,-2.1882,-2.2158,-2.2221,-2.1885,-2.1784,-2.1272,-2.0267,-2.0598,-2.1344,-2.1601,-2.1625,-2.1478,-0.3712,-0.383,-0.388,-0.3976,-0.4144,-0.4236,-0.4192,-0.4108,-0.4288,-0.4468,-0.4703,-0.5764,-0.6993,-0.8335,-0.9114,-0.9748,-1.0252,-1.042,-1.0611,-1.0829,-1.1019,-1.1244,-1.1505,-1.1468,-1.1431,-1.1431,-1.1132,-1.0954,-1.084,-1.0764,-1.0697,-1.0677,-1.0677,-1.0753,-1.0867,-1.0905,-1.0992,-1.1067,-1.1356,-1.17,-1.2113,-1.2425,-1.2662,-1.2709,-1.2803,-1.2873,-1.2838,-1.292,-1.299,-1.3166,-1.4385,-1.5234,-1.5599,-1.706,-1.8082,0.0,0.0,0.0,0.0,0.0,0.0,0.0,0.0,0.0,0.0,0.0,-1.9101,-1.9398,-1.9675,-1.9889,-1.9975,-1.9884,-1.9812,-1.9833,-1.9741,-1.9705,-1.969,-1.9705,-1.9705,-1.9726,-1.9797,-1.9919,-1.9935,-2.0061,-2.0181,-2.0216,-2.022,-2.0326,-2.0663,-2.0663,-2.0679,-2.086,-2.0778,-2.0526,-2.0141,-1.9965,-1.987,-1.9816,-2.0035,-2.0233,-2.0235,-2.031,-2.0473,-2.0775,-2.1055,-2.117,-2.096,-2.069,-2.0205,-1.9648,-1.9534,-1.9982,-2.0461,-2.0422,-2.0173,-0.3588,-0.365,-0.3588,-0.3578,-0.3626,-0.3932,-0.3884,-0.37,-0.3836,-0.414,-0.4578,-0.5936,-0.6994,-0.7874,-0.8797,-0.9417,-0.9813,-1.0186,-1.0457,-1.0582,-1.0774,-1.0878,-1.0981,-1.0943,-1.0905,-1.0878,-1.0697,-1.0544,-1.0428,-1.0457,-1.0457,-1.0457,-1.0649,-1.0753,-1.0753,-1.0916,-1.1029,-1.1132,-1.1811,-1.2246,-1.2496,-1.2662,-1.2733,-1.2674,-1.2733,-1.2733,-1.2756,-1.2733,-1.285,-1.3132,-1.4311,-1.5171,-1.5586,-1.7138,-1.8187,0.0,-1.9078,0.0,0.0,0.0,0.0,0.0,0.0,0.0,0.0,-1.9049,-1.9072,-1.9479,-2.001,-2.0339,-2.0339,-2.0304,-2.022,-2.0041,-1.9884,-1.9762,-1.969,-1.9654,-1.969,-1.969,-1.9726,-1.9797,-1.9797,-1.9935,-2.0005,-1.9955,-1.9854,-1.9929,-2.0326,-2.0361,-2.0326,-2.0481,-2.0273,-1.984,-1.9563,-1.9113,-1.8783,-1.8712,-1.8829,-1.8783,-1.8922,-1.9052,-1.922,-1.9509,-1.9853,-2.0002,-2.0076,-1.9553,-1.9132,-1.8944,-1.8572,-1.8529,-1.923,-1.9089,-1.8831,-0.3646,-0.3741,-0.3629,-0.3578,-0.3578,-0.367,-0.3667,-0.3622,-0.3932,-0.4583,-0.548,-0.6368,-0.721,-0.8013,-0.8869,-0.9457,-0.9823,-1.0166,-1.0351,-1.0457,-1.0495,-1.0611,-1.0753,-1.0687,-1.0697,-1.0715,-1.0649,-1.0582,-1.0572,-1.0611,-1.0677,-1.0812,-1.0905,-1.0981,-1.1105,0.0,0.0,0.0,-1.2186,-1.2401,-1.2496,-1.2544,-1.2508,-1.2449,-1.2473,0.0,-1.2544,-1.2697,-1.2896,-1.3198,-1.4567,0.0,0.0,0.0,0.0,0.0,0.0,0.0,0.0,0.0,0.0,0.0,-1.8822,-1.8798,-1.9101,-1.9273,-1.9457,-1.9639,-2.015,-2.046,-2.046,-2.0426,-2.0289,-2.0025,-1.9833,-1.9654,-1.9472,-1.945,-1.9487,-1.9596,-1.9669,-1.9726,-1.9797,-1.9919,-1.9955,-1.9848,-1.9675,-1.9603,-1.9617,-1.9762,-1.9839,-1.9884,-1.9275,-1.8606,-1.8516,-1.8064,-1.7713,-1.7673,-1.8125,-1.8451,-1.86,-1.8834,-1.9139,-1.9437,-1.9822,-1.9857,-1.941,-1.9224,-1.8933,-1.8285,-1.8068,-1.8121,-1.8426,-1.8367,-1.8342,-0.3619,0.0,-0.3653,-0.3578,0.0,-0.3578,-0.3622,-0.3663,-0.3976,-0.4797,-0.6002,-0.6761,-0.7558,-0.8423,-0.911,-0.9607,-0.9971,-1.0205,-1.0322,-1.0351,-1.0351,-1.0428,-1.0495,-1.0467,-1.0477,-1.0495,-1.0495,-1.0544,-1.0621,-1.084,-1.0992,-1.1094,-1.1394,-1.1553,-1.1542,-1.17,-1.192,-1.2138,-1.233,-1.2413,-1.2437,-1.2401,-1.2294,-1.2113,0.0,0.0,0.0,0.0,0.0,0.0,0.0,0.0,0.0,0.0,0.0,-1.8372,-1.8606,-1.8812,-1.8889,-1.8836,-1.8784,-1.8707,-1.8475,-1.845,-1.8644,-1.9072,-1.9406,-1.9603,-2.0204,-2.0577,-2.0494,-2.046,-2.0273,-1.994,-1.9639,-1.9384,-1.9288,-1.9265,-1.9339,-1.9508,-1.9654,-1.9762,-1.9884,-1.9884,-1.9848,-1.972,-1.9545,-1.9362,-1.9242,-1.9288,-1.9457,-1.9558,-1.8673,-1.7971,-1.7912,-1.7286,-1.6743,-1.6789,-1.7078,-1.7395,-1.7581,-1.7844,-1.8176,-1.8593,-1.8903,-1.8979,-1.8761,-1.868,-1.8555,-1.8068,-1.7944,-1.7966,-1.8048,-1.8074,-1.8121,-0.3578,-0.3578,-0.3578,-0.3578,-0.3578,-0.3578,-0.3667,-0.3832,0.0,0.0,0.0,-0.7112,-0.7972,-0.8869,-0.935,-0.9725,-1.0079,-1.0235,-1.0322,-1.0322,-1.0322,-1.0322,-1.0322,-1.0322,-1.0322,-1.0322,-1.039,-1.0495,-1.0621,-1.1029,-1.1292,-1.142,-1.1884,-1.2054,-1.1945,-1.1993,-1.2066,-1.209,-1.2258,-1.233,-1.2294,-1.2162,-1.1982,-1.1748,-1.1748,-1.1811,-1.1909,-1.2126,-1.2496,-1.3032,-1.4213,-1.5146,-1.5694,-1.6851,-1.7707,-1.7974,-1.8147,-1.8291,-1.8461,-1.8344,-1.8226,-1.8226,-1.8135,-1.8083,-1.8109,-1.8784,-1.9258,-1.9442,-2.0135,-2.0527,-2.0426,-2.0308,-2.0085,-1.9681,-1.9317,-1.9072,-1.8974,-1.8988,-1.9139,-1.942,-1.9603,-1.9797,-2.0041,-1.994,-1.9812,-1.9669,-1.9523,-1.9325,-1.9191,-1.9176,-1.9229,-1.9191,-1.8467,-1.7831,-1.7575,-1.6832,-1.6157,-1.6197,-1.632,-1.6409,-1.6675,-1.6968,-1.7304,-1.785,-1.7992,-1.8236,-1.8284,-1.8356,-1.8236,-1.8091,-1.8031,-1.7971,-1.7966,-1.7988,-1.8053,-0.3442,-0.3442,-0.3578,-0.3578,-0.3578,-0.3578,-0.3888,-0.432,-0.4753,-0.5567,-0.6683,-0.7426,-0.8211,-0.8975,-0.9536,-0.9892,-1.0079,-1.0235,-1.0322,-1.0322,-1.0322,-1.0322,-1.0322,-1.0322,-1.0322,-1.0322,-1.0467,-1.0621,-1.0715,-1.1217,-1.1553,-1.1737,-1.2029,-1.2138,-1.2066,-1.192,-1.1774,-1.1616,-1.1968,-1.2102,-1.1982,-1.1799,-1.1638,-1.1549,-1.156,-1.1649,-1.1909,-1.2246,-1.2782,-1.3472,-1.445,-1.5182,-1.561,-1.6437,-1.6921,-1.6921,-1.698,-1.7133,-1.7242,-1.7242,-1.7188,-1.7242,-1.7406,-1.7651,-1.7922,-1.8683,-1.9199,-1.9406,-1.9889,-2.015,-2.0061,-1.9874,-1.9522,-1.9118,-1.8846,-1.8616,-1.8475,-1.8577,-1.8884,-1.9369,-1.9603,-1.9869,-2.0185,-2.015,-2.0045,-1.9919,-1.9726,-1.9639,-1.9579,-1.9508,-1.9235,-1.8892,-1.8371,-1.7804,-1.7304,-1.6601,-1.6225,-1.6246,-1.6394,-1.6591,-1.6917,-1.7248,-1.7681,-1.8001,-1.838,-1.8559,-1.8581,-1.8585,-1.8561,-1.84,-1.8266,-1.8205,-1.8155,-1.818,-1.8184,-0.3214,-0.3306,-0.3442,-0.3534,-0.3622,-0.3803,-0.4192,-0.4748,-0.5308,-0.6039,-0.6797,-0.7668,-0.8423,-0.9136,-0.9616,-0.9892,-1.0118,-1.0235,-1.0322,-1.0322,-1.0322,-1.0322,-1.0322,-1.0322,-1.0322,-1.0322,-1.0505,-1.0621,-1.0725,-1.1207,-1.1627,-1.1811,-1.2029,-1.2067,-1.1938,-1.163,-1.1383,-1.1185,-1.1579,-1.1737,-1.1568,-1.1542,-1.1527,-1.1522,-1.1586,-1.1748,-1.1909,-1.2452,-1.2981,-1.3418,-1.4356,-1.4984,-1.5269,-1.5813,-1.6194,-1.6337,-1.6367,-1.6429,-1.6514,-1.6557,-1.6612,-1.6655,-1.6989,-1.7295,-1.7584,-1.8358,-1.8936,-1.925,-1.9654,-1.9833,-1.969,-1.9391,-1.9043,-1.864,-1.8358,-1.8175,-1.8135,-1.8358,-1.8769,-1.9354,-1.9752,-2.012,-2.0527,-2.0444,-2.0292,-2.0135,-1.9909,-1.9718,-1.9592,-1.9432,-1.9322,-1.9043,-1.8298,-1.7653,-1.7281,-1.675,-1.6445,-1.6463,-1.667,-1.691,-1.7224,-1.7595,-1.8129,-1.8857,-1.9243,-1.9376,-1.9396,-1.9395,-1.9158,-1.8544,-1.8408,-1.8365,-1.8383,-1.8467,-1.8529,-0.2993,-0.3081,-0.3262,-0.3442,-0.3622,-0.402,-0.4495,-0.5048,-0.5782,-0.6374,-0.6923,-0.7848,-0.8602,-0.9217,-0.9616,-0.9932,-1.0118,-1.0244,-1.0322,-1.0322,-1.0322,-1.0322,-1.0322,-1.0322,-1.0322,-1.0322,-1.0467,-1.0611,-1.0725,-1.1169,-1.1553,-1.1774,-1.192,-1.1864,-1.1678,-1.1265,-1.0981,-1.0809,-1.1121,-1.1282,-1.1282,-1.1442,-1.149,-1.156,-1.1712,-1.1847,-1.1932,-1.2608,-1.3112,-1.3347,-1.4123,-1.4709,-1.4881,-1.5157,-1.5412,-1.5534,-1.5534,-1.5623,-1.5776,-1.6008,-1.6151,-1.6194,-1.665,-1.6989,-1.7352,-1.7962,-1.8514,-1.8936,-1.9273,-1.942,-1.9184,-1.8869,-1.8525,-1.8147,-1.7949,-1.7788,-1.7868,-1.8254,-1.8793,-1.9434,-1.9949,-2.0413,-2.0712,-2.0745,-2.0563,-2.0292,-2.0085,-1.9856,-1.9679,-1.9481,-1.9264,-1.9061,-1.8233,-1.7509,-1.7321,-1.6959,-1.6733,-1.6738,-1.7002,-1.7272,-1.7589,-1.7973,-1.8624,-1.9535,-2.0091,-2.0169,-2.0135,-2.0045,-1.961,-1.8855,-1.8584,-1.8545,-1.8639,-1.8807,-1.8947,-0.2637,-0.2773,-0.2948,-0.3258,-0.3667,-0.4148,-0.4622,-0.5096,-0.6044,-0.6647,-0.7063,-0.7953,-0.8651,-0.9217,-0.9616,-0.9892,-1.0079,-1.0244,-1.0322,-1.0322,-1.0322,-1.0322,-1.0283,-1.0273,-1.0322,-1.0322,-1.039,-1.0457,-1.0621,-1.1029,-1.1404,-1.1737,-1.1627,-1.1461,-1.1237,-1.0912,-1.0639,-1.0457,-1.0639,-1.0905,-1.1217,-1.14,-1.156,-1.1682,-1.176,-1.1847,-1.1954,-1.2608,-1.3132,-1.3396,-1.3986,-1.4393,-1.4426,-1.449,-1.4419,-1.4201,-1.4201,-1.4351,-1.4743,-1.5232,-1.5647,-1.5824,-1.6262,-1.6735,-1.7157,-1.7461,-1.7895,-1.8475,-1.8784,-1.8822,-1.8577,-1.8173,-1.7868,-1.7679,-1.7556,-1.7515,-1.776,-1.8254,-1.8831,-1.9522,-2.0124,-2.0581,-2.0828,-2.0828,-2.0745,-2.0444,-2.0289,-2.0196,-2.0202,-1.9547,-1.8977,-1.8965,-1.8323,-1.7593,-1.7203,-1.7023,-1.7009,-1.715,-1.7344,-1.7559,-1.7929,-1.8645,-1.9528,-2.0061,-2.0606,-2.0904,-2.0512,-2.0118,-1.9902,-1.9236,-1.8932,-1.8878,-1.9018,-1.9168,-1.9193,-0.2375,-0.2504,-0.2726,-0.3217,-0.3796,-0.4408,-0.4932,-0.5496,-0.6184,-0.6732,-0.716,-0.7836,-0.8406,-0.8926,-0.9466,-0.9823,-0.9932,-1.0079,-1.0166,-1.0166,-1.0137,-1.0166,-1.0166,-1.0127,-1.0166,-1.0166,-1.0166,-1.0205,-1.0351,-1.0725,-1.1019,-1.1217,-1.1094,-1.1062,-1.1041,-1.0804,-1.0606,-1.0537,-1.0775,-1.0902,-1.1061,-1.1351,-1.156,-1.1682,-1.1771,-1.1968,-1.226,-1.2704,-1.3114,-1.3508,-1.3861,-1.3982,-1.3941,-1.3847,-1.3695,-1.3552,-1.36,-1.3847,-1.4326,-1.4743,-1.5165,-1.5647,-1.6069,-1.6516,-1.696,-1.7196,-1.7487,-1.7841,-1.8161,-1.8226,-1.8028,-1.7787,-1.7557,-1.7393,-1.7447,-1.7693,-1.7908,-1.8588,-1.9266,-1.9879,-2.0465,-2.0861,-2.0893,-2.0697,-2.0462,-2.0357,-2.0185,-1.9958,-1.9783,-1.934,-1.9092,-1.8783,-1.8295,-1.7727,-1.7203,-1.7092,-1.7141,-1.7224,-1.7384,-1.7622,-1.8356,-1.8836,-1.9625,-2.0754,-2.1383,-2.1669,-2.1557,-2.0936,-2.0491,-1.9774,-1.9182,-1.9069,-1.92,-1.9323,-1.9423,-0.2243,-0.2326,-0.2684,-0.3262,-0.3968,-0.4578,-0.5193,-0.5761,-0.627,-0.6732,-0.7076,-0.7538,-0.8028,-0.848,-0.9185,-0.9545,-0.9695,-0.9892,-1.001,-0.9971,-0.9941,-0.995,-0.9971,-0.9941,-0.9941,-0.9922,-0.9892,-0.9883,-0.9991,-1.0302,-1.0534,-1.0697,-1.0732,-1.0831,-1.096,-1.0838,-1.0807,-1.0787,-1.1016,-1.1033,-1.0923,-1.1287,-1.1555,-1.1566,-1.1658,-1.1866,-1.2239,-1.2665,-1.3033,-1.3324,-1.357,-1.3583,-1.3412,-1.3344,-1.319,-1.3084,-1.318,-1.3467,-1.3988,-1.4384,-1.4834,-1.5501,-1.5925,-1.6343,-1.6761,-1.6969,-1.7138,-1.7295,-1.7544,-1.7679,-1.7652,-1.7488,-1.7393,-1.7352,-1.7625,-1.7921,-1.8341,-1.9037,-1.9671,-2.0243,-2.0648,-2.0942,-2.0828,-2.0395,-1.998,-1.9995,-1.9747,-1.9468,-1.9135,-1.9064,-1.8895,-1.8641,-1.8275,-1.7868,-1.7452,-1.7239,-1.7248,-1.751,-1.7716,-1.8087,-1.886,-1.929,-1.9754,-2.0987,-2.1725,-2.2031,-2.1771,-2.1379,-2.1003,-2.0242,-1.9596,-1.9204,-1.9277,-1.9446,-1.9574,-0.2201,-0.2288,-0.2907,-0.3435,-0.3968,-0.4705,-0.5275,-0.5766,-0.627,-0.6605,-0.6816,-0.7202,-0.7545,-0.7787,-0.861,-0.9128,-0.9328,-0.9585,-0.9674,-0.9713,-0.9674,-0.9723,-0.9713,-0.9713,-0.9664,-0.9527,-0.9487,-0.9518,-0.9619,-0.9765,-1.0019,-1.0351,-1.0664,-1.0886,-1.099,-1.1238,-1.1303,-1.12,-1.1328,-1.1199,-1.081,-1.1279,-1.1397,-1.1218,-1.142,-1.1551,-1.1675,-1.242,-1.2895,-1.2754,-1.3207,-1.3258,-1.2988,-1.29,-1.2881,-1.2774,-1.2871,-1.3152,-1.3621,-1.4129,-1.4743,-1.5412,-1.5788,-1.6194,-1.6633,-1.6713,-1.6756,-1.6931,-1.6989,-1.7128,-1.7378,-1.7378,-1.7393,-1.7679,-1.7921,-1.8366,-1.891,-1.9513,-2.0004,-2.0398,-2.0681,-2.0665,-2.0348,-1.9808,-1.9515,-1.9457,-1.9273,-1.9103,-1.9104,-1.8771,-1.8614,-1.859,-1.8338,-1.7975,-1.8033,-1.771,-1.7617,-1.7864,-1.8172,-1.8536,-1.9359,-2.0107,-2.0585,-2.116,-2.1805,-2.2031,-2.1811,-2.1516,-2.1188,-2.0548,-1.9719,-1.934,-1.9387,-1.9493,-1.9606,-0.242,-0.2553,-0.3084,-0.366,-0.4232,-0.4923,-0.5448,-0.589,-0.6313,-0.6575,-0.6745,-0.695,-0.7209,-0.7377,-0.7821,-0.8382,-0.895,-0.9177,-0.9266,-0.9217,-0.9096,-0.9136,-0.9226,-0.9136,-0.9136,-0.9128,-0.8926,-0.8846,-0.8958,-0.9248,-0.9672,-1.0145,-1.0479,-1.0899,-1.1382,-1.155,-1.1546,-1.1472,-1.1426,-1.114,-1.0638,-1.0676,-1.0629,-1.0596,-1.1221,-1.1757,-1.2125,-1.2513,-1.2792,-1.3027,-1.3155,-1.3027,-1.2705,-1.249,-1.248,-1.2578,-1.2627,-1.291,-1.3525,-1.3931,-1.4547,-1.5367,-1.5668,-1.602,-1.6362,-1.6368,-1.6324,-1.6417,-1.6509,-1.671,-1.7102,-1.7352,-1.7625,-1.7961,-1.8458,-1.8991,-1.9528,-2.0124,-2.053,-2.0597,-2.0481,-2.0108,-1.9793,-1.9266,-1.8884,-1.8846,-1.8577,-1.85,-1.8563,-1.8489,-1.857,-1.8768,-1.8574,-1.8404,-1.8749,-1.8246,-1.7959,-1.8171,-1.848,-1.8826,-1.9487,-1.9919,-2.0355,-2.1151,-2.1819,-2.2211,-2.2031,-2.163,-2.1307,-2.0753,-1.9906,-1.9418,-1.9512,-1.9541,-1.9578,-0.2684,-0.2862,-0.3262,-0.3792,-0.436,-0.4961,-0.5486,-0.5895,-0.6142,-0.6319,-0.6453,-0.6617,-0.6823,-0.7076,-0.7321,-0.7724,-0.8382,-0.8594,-0.8683,-0.8683,-0.8521,-0.8553,-0.8643,-0.8553,-0.8521,-0.857,-0.8324,-0.8242,-0.8373,-0.8848,-0.9416,-0.9998,-1.0499,-1.1176,-1.1794,-1.1978,-1.1969,-1.1771,-1.1531,-1.1084,-1.0377,-1.0233,-1.0131,-1.0204,-1.0976,-1.1712,-1.2217,-1.254,-1.2832,-1.313,-1.3104,-1.2929,-1.2578,-1.2332,-1.2323,-1.2529,-1.2578,-1.2861,-1.3515,-1.3836,-1.4444,-1.5367,-1.5635,-1.5888,-1.6262,-1.6093,-1.6005,-1.6069,-1.625,-1.6484,-1.6993,-1.7585,-1.8068,-1.838,-1.8991,-1.9594,-2.0019,-2.0462,-2.0613,-2.0395,-1.9879,-1.9485,-1.9192,-1.8679,-1.8397,-1.8319,-1.8082,-1.8016,-1.8109,-1.8268,-1.8528,-1.8822,-1.8724,-1.875,-1.9015,-1.8791,-1.8546,-1.8718,-1.8765,-1.9139,-1.953,-1.9878,-2.0336,-2.1129,-2.1705,-2.2169,-2.216,-2.1786,-2.1342,-2.0841,-2.006,-1.942,-1.9475,-1.9522,-1.9643,-0.2954,-0.3078,-0.3432,-0.3877,-0.436,-0.4792,-0.5231,-0.5631,-0.5723,-0.5847,-0.6067,-0.6142,-0.6392,-0.6725,-0.6999,-0.7286,-0.7565,-0.7863,-0.8021,-0.8013,-0.8021,-0.8021,-0.8062,-0.8021,-0.7987,-0.7912,-0.7795,-0.7829,-0.7995,-0.859,-0.922,-0.9891,-1.0904,-1.1575,-1.2004,-1.234,-1.2442,-1.2012,-1.1607,-1.0946,-1.0051,-1.0034,-0.9942,-0.9797,-1.0656,-1.1372,-1.1687,-1.2484,-1.2957,-1.3092,-1.3094,-1.2978,-1.2735,-1.2529,-1.252,-1.2627,-1.2676,-1.3007,-1.3515,-1.3884,-1.4444,-1.5277,-1.5579,-1.5768,-1.6025,-1.5872,-1.5683,-1.5792,-1.6064,-1.6484,-1.7021,-1.7841,-1.8539,-1.8893,-1.9434,-1.9984,-2.0326,-2.0561,-2.0441,-1.9874,-1.9192,-1.8731,-1.8475,-1.8121,-1.7895,-1.7909,-1.7922,-1.7909,-1.8003,-1.8149,-1.8321,-1.8503,-1.8698,-1.8943,-1.917,-1.9391,-1.9296,-1.9253,-1.9232,-1.9405,-1.9862,-2.0264,-2.0495,-2.1182,-2.1832,-2.2313,-2.2786,-2.2374,-2.1768,-2.12,-2.0307,-1.966,-1.9796,-1.9936,-1.9911,-0.3173,-0.3306,-0.353,-0.388,-0.4316,-0.4618,-0.5014,-0.5415,-0.5539,-0.5626,-0.5766,-0.5884,-0.6087,-0.6355,-0.6581,-0.6787,-0.7076,-0.7196,-0.7405,-0.7607,-0.7614,-0.7614,-0.7655,-0.7587,-0.751,-0.7461,-0.7461,-0.7496,-0.7728,-0.8344,-0.9037,-0.9838,-1.0827,-1.1647,-1.2205,-1.2374,-1.2274,-1.1918,-1.115,-1.0367,-0.973,-0.94,-0.9245,-0.9299,-1.0033,-1.0663,-1.1358,-1.2385,-1.3025,-1.3148,-1.315,-1.3045,-1.2774,-1.2578,-1.2578,-1.2676,-1.2676,-1.2958,-1.3525,-1.3894,-1.4408,-1.5153,-1.5334,-1.5424,-1.5603,-1.53,-1.5119,-1.5232,-1.5656,-1.617,-1.687,-1.7894,-1.8664,-1.9058,-1.9702,-2.0104,-2.012,-1.9929,-1.9558,-1.9066,-1.8496,-1.804,-1.772,-1.7462,-1.7502,-1.7597,-1.776,-1.7909,-1.7975,-1.8175,-1.8411,-1.8644,-1.8836,-1.9078,-1.9354,-1.9574,-1.9581,-1.9615,-1.9623,-1.9679,-2.0153,-2.0512,-2.0795,-2.1336,-2.2,-2.2539,-2.2985,-2.2795,-2.2136,-2.1486,-2.0655,-2.04,-2.0424,-2.0451,-2.0452,-0.3271,-0.336,-0.3493,-0.3752,-0.4101,-0.4326,-0.4626,-0.4937,-0.5014,-0.5145,-0.5328,-0.5404,-0.5663,-0.6013,-0.6196,-0.6489,-0.6829,-0.6872,-0.7034,-0.7273,-0.728,-0.728,-0.7321,-0.7293,-0.7209,-0.716,-0.7202,-0.7391,-0.7652,-0.8342,-0.9119,-0.9979,-1.0959,-1.1752,-1.2304,-1.2382,-1.2224,-1.1719,-1.0838,-1.0005,-0.934,-0.8771,-0.8514,-0.8725,-0.9295,-1.0056,-1.0864,-1.1823,-1.2541,-1.2926,-1.3014,-1.29,-1.2725,-1.2676,-1.2676,-1.2832,-1.2881,-1.3113,-1.3668,-1.3988,-1.4408,-1.5074,-1.5165,-1.5187,-1.5232,-1.4926,-1.4743,-1.4869,-1.5389,-1.6051,-1.6799,-1.7787,-1.8588,-1.8945,-1.966,-1.9995,-1.9767,-1.9266,-1.8803,-1.8341,-1.7841,-1.7435,-1.7201,-1.7227,-1.7282,-1.7502,-1.7828,-1.8095,-1.8201,-1.8422,-1.8669,-1.8874,-1.904,-1.9265,-1.9501,-1.9669,-1.9812,-1.9929,-1.9989,-2.01,-2.0345,-2.0681,-2.0991,-2.1795,-2.2504,-2.3003,-2.3433,-2.2879,-2.2263,-2.1588,-2.1075,-2.093,-2.0911,-2.1081,-2.1145,-0.3296,-0.3296,-0.3423,-0.3554,-0.3708,-0.3968,-0.4216,-0.4368,-0.4364,-0.4539,-0.4762,-0.4845,-0.5149,-0.5588,-0.5841,-0.6179,-0.6647,-0.6781,-0.6907,-0.7027,-0.7021,-0.7063,-0.7063,-0.7063,-0.7021,-0.7021,-0.7063,-0.7332,-0.7757,-0.8474,-0.9337,-1.025,-1.1172,-1.1959,-1.2323,-1.2471,-1.2184,-1.1619,-1.0685,-0.9703,-0.883,-0.8196,-0.7925,-0.8078,-0.8606,-0.9332,-1.0143,-1.0839,-1.1644,-1.2512,-1.2677,-1.2657,-1.2676,-1.2822,-1.2929,-1.3027,-1.3085,-1.3412,-1.3868,-1.4046,-1.4466,-1.5074,-1.5074,-1.5062,-1.4971,-1.4754,-1.4616,-1.4697,-1.5299,-1.6008,-1.6697,-1.7612,-1.8266,-1.8602,-1.9221,-1.9479,-1.9169,-1.8602,-1.8094,-1.7707,-1.7256,-1.6934,-1.6863,-1.6989,-1.7282,-1.7598,-1.7948,-1.8319,-1.8592,-1.8745,-1.8936,-1.9101,-1.9265,-1.9413,-1.9632,-1.9904,-2.003,-2.0239,-2.0376,-2.0579,-2.0731,-2.107,-2.1516,-2.2327,-2.293,-2.3437,-2.3542,-2.305,-2.2593,-2.2129,-2.1738,-2.1447,-2.1484,-2.1742,-2.2087,-0.3142,-0.3142,-0.3181,-0.3329,-0.3554,-0.365,-0.387,-0.4144,-0.4152,-0.4232,-0.4408,-0.4495,-0.4753,-0.5188,-0.5399,-0.583,-0.6361,-0.6575,-0.6781,-0.6979,-0.6972,-0.6972,-0.6972,-0.6972,-0.6972,-0.7021,-0.7118,-0.7286,-0.7581,-0.855,-0.9338,-0.99,-1.1221,-1.1927,-1.2184,-1.2224,-1.1977,-1.1469,-1.0336,-0.9406,-0.8672,-0.7836,-0.7461,-0.7402,-0.7824,-0.8343,-0.9044,-0.9862,-1.0931,-1.211,-1.2363,-1.2391,-1.2431,-1.2627,-1.2832,-1.2978,-1.3075,-1.3306,-1.3773,-1.401,-1.4337,-1.4754,-1.4754,-1.4616,-1.4558,-1.4337,-1.4291,-1.4512,-1.5073,-1.5776,-1.6514,-1.7325,-1.7868,-1.804,-1.8433,-1.8602,-1.833,-1.7828,-1.7352,-1.7005,-1.671,-1.6565,-1.6522,-1.668,-1.7005,-1.7407,-1.7935,-1.8436,-1.876,-1.9064,-1.9213,-1.9398,-1.9523,-1.9632,-1.9797,-2.0065,-2.0308,-2.0545,-2.0778,-2.1071,-2.1368,-2.1728,-2.2289,-2.2954,-2.3259,-2.3692,-2.3642,-2.3363,-2.2978,-2.2538,-2.2227,-2.1898,-2.2353,-2.2665,-2.3102,-0.3029,-0.3029,-0.3032,-0.3155,-0.334,-0.3365,-0.3609,-0.3869,-0.3891,-0.3928,-0.4052,-0.4144,-0.4408,-0.4836,-0.5173,-0.5658,-0.6276,-0.6538,-0.6738,-0.6937,-0.6972,-0.6972,-0.6972,-0.6972,-0.7021,-0.7112,-0.716,-0.7495,-0.8004,-0.8738,-0.9447,-1.0285,-1.1242,-1.1819,-1.2026,-1.1918,-1.1719,-1.1217,-1.019,-0.9249,-0.8402,-0.7568,-0.7036,-0.6869,-0.7079,-0.7444,-0.8112,-0.8854,-0.9944,-1.1032,-1.1628,-1.1945,-1.2085,-1.2421,-1.2725,-1.2929,-1.3065,-1.3382,-1.3858,-1.4046,-1.4291,-1.4616,-1.4523,-1.443,-1.4373,-1.4197,-1.4186,-1.4523,-1.504,-1.5611,-1.6225,-1.6934,-1.7297,-1.7394,-1.7407,-1.7407,-1.7462,-1.7005,-1.6637,-1.6423,-1.6262,-1.6188,-1.6188,-1.6479,-1.6879,-1.738,-1.8014,-1.8514,-1.895,-1.9213,-1.945,-1.956,-1.9705,-1.9777,-1.9904,-2.0185,-2.053,-2.0763,-2.1245,-2.154,-2.1866,-2.2303,-2.2764,-2.3248,-2.3584,-2.378,-2.3682,-2.354,-2.3171,-2.2788,-2.2516,-2.2518,-2.2886,-2.3309,-2.3786,-0.2886,-0.2886,-0.2886,-0.2971,-0.3072,-0.3219,-0.3395,-0.3534,-0.3612,-0.3619,-0.37,-0.3836,-0.414,-0.457,-0.5043,-0.561,-0.6184,-0.6489,-0.6781,-0.6985,-0.7021,-0.707,-0.7098,-0.7063,-0.7112,-0.7245,-0.7251,-0.7716,-0.8386,-0.8906,-0.9676,-1.0483,-1.113,-1.1528,-1.1619,-1.1569,-1.1309,-1.0753,-0.9873,-0.8928,-0.8078,-0.7295,-0.6766,-0.6386,-0.6327,-0.6642,-0.7224,-0.7859,-0.8659,-0.985,-1.0694,-1.1276,-1.1578,-1.2126,-1.2578,-1.291,-1.3094,-1.342,-1.3941,-1.4035,-1.4233,-1.4488,-1.4384,-1.4326,-1.4233,-1.414,-1.4186,-1.443,-1.4949,-1.5445,-1.6032,-1.6577,-1.6778,-1.6752,-1.6436,-1.6306,-1.6337,-1.6163,-1.5957,-1.5944,-1.5824,-1.5913,-1.6144,-1.6479,-1.685,-1.7214,-1.7814,-1.8305,-1.8798,-1.9116,-1.9376,-1.9617,-1.9726,-1.9848,-2.0045,-2.0289,-2.0679,-2.1039,-2.1615,-2.2015,-2.2326,-2.2686,-2.3109,-2.3481,-2.3707,-2.3795,-2.3801,-2.3542,-2.3259,-2.3184,-2.2989,-2.2996,-2.3093,-2.3601,-2.4118,-0.2727,-0.2764,-0.2761,-0.2818,-0.2964,-0.3107,-0.3175,-0.3321,-0.3393,-0.3388,-0.3394,-0.3575,-0.388,-0.4268,-0.4831,-0.5399,-0.6062,-0.6447,-0.6738,-0.7125,-0.7167,-0.7245,-0.7321,-0.7245,-0.728,-0.7405,-0.7538,-0.7799,-0.8263,-0.8958,-0.9578,-1.0039,-1.0698,-1.1124,-1.1015,-1.0736,-1.0431,-0.9873,-0.9197,-0.8455,-0.7706,-0.702,-0.6436,-0.595,-0.5841,-0.5887,-0.6209,-0.6707,-0.7241,-0.8131,-0.9458,-1.0557,-1.1057,-1.1769,-1.2372,-1.2725,-1.2968,-1.3248,-1.3525,-1.36,-1.3705,-1.401,-1.3952,-1.381,-1.3905,-1.3915,-1.401,-1.428,-1.4628,-1.522,-1.6001,-1.6362,-1.6436,-1.6262,-1.5856,-1.5445,-1.5254,-1.5445,-1.5546,-1.5591,-1.5591,-1.568,-1.5869,-1.6262,-1.6637,-1.7076,-1.7571,-1.8068,-1.8514,-1.8965,-1.9265,-1.9545,-1.9726,-1.9869,-2.0115,-2.0426,-2.0877,-2.123,-2.1811,-2.2287,-2.2561,-2.2876,-2.3199,-2.3504,-2.3728,-2.3771,-2.3771,-2.3667,-2.34,-2.3432,-2.3472,-2.3458,-2.3547,-2.402,-2.4266,-0.2679,-0.2679,-0.2679,-0.2771,-0.2907,-0.2954,-0.3095,-0.3184,-0.3292,-0.3293,-0.3252,-0.3486,-0.3796,-0.4136,-0.4748,-0.5404,-0.6019,-0.6617,-0.6992,-0.7286,-0.7321,-0.7447,-0.7621,-0.7579,-0.7579,-0.7704,-0.767,-0.7854,-0.8286,-0.8753,-0.9174,-0.9446,-1.0042,-1.01,-1.0028,-0.9747,-0.9436,-0.8967,-0.8396,-0.7765,-0.723,-0.6583,-0.5991,-0.5508,-0.5344,-0.534,-0.5445,-0.5959,-0.6445,-0.7187,-0.8501,-0.9814,-1.0635,-1.146,-1.2126,-1.248,-1.2774,-1.2958,-1.3074,-1.3266,-1.3409,-1.3668,-1.3621,-1.3716,-1.3773,-1.3794,-1.3842,-1.4046,-1.4398,-1.4846,-1.578,-1.6013,-1.6013,-1.5925,-1.5457,-1.4994,-1.472,-1.4777,-1.4915,-1.5006,-1.5085,-1.5322,-1.5635,-1.6032,-1.6479,-1.6934,-1.7338,-1.7828,-1.8344,-1.876,-1.9116,-1.9413,-1.9654,-1.9869,-2.0135,-2.0545,-2.1103,-2.1448,-2.184,-2.2231,-2.2552,-2.2876,-2.3182,-2.344,-2.3682,-2.3682,-2.366,-2.3571,-2.3504,-2.3468,-2.3518,-2.371,-2.3917,-2.4153,-2.4321,-0.2679,-0.2679,-0.2679,-0.2754,-0.2869,-0.2907,-0.295,-0.3086,-0.3153,-0.3128,-0.3175,-0.3429,-0.366,-0.4136,-0.4748,-0.5404,-0.6184,-0.6787,-0.7251,-0.753,-0.7572,-0.7756,-0.7968,-0.7955,-0.7915,-0.7963,-0.7797,-0.7915,-0.8165,-0.8456,-0.8549,-0.8771,-0.8926,-0.8901,-0.8705,-0.8442,-0.8171,-0.78,-0.7379,-0.7009,-0.6642,-0.6041,-0.55,-0.5062,-0.4956,-0.4956,-0.5124,-0.558,-0.6028,-0.649,-0.7847,-0.9103,-1.0202,-1.12,-1.1927,-1.2175,-1.2431,-1.2559,-1.2638,-1.2832,-1.3084,-1.342,-1.3478,-1.3583,-1.3689,-1.3652,-1.3652,-1.3915,-1.4222,-1.472,-1.5457,-1.5703,-1.5748,-1.5659,-1.5232,-1.4731,-1.4362,-1.4176,-1.4176,-1.4373,-1.464,-1.496,-1.5412,-1.5856,-1.6306,-1.6791,-1.7199,-1.7598,-1.8082,-1.8514,-1.8836,-1.9228,-1.9472,-1.9869,-2.015,-2.0478,-2.1071,-2.1417,-2.1781,-2.213,-2.247,-2.2773,-2.3035,-2.336,-2.3544,-2.3544,-2.3567,-2.3522,-2.3476,-2.3476,-2.362,-2.3858,-2.4039,-2.4229,-2.4355,-0.2679,-0.2679,-0.2679,-0.273,-0.2771,-0.2852,-0.2818,-0.2744,-0.2949,-0.2944,-0.2853,-0.3119,-0.347,-0.3877,-0.4539,-0.5491,-0.6386,-0.7034,-0.7461,-0.7795,-0.7859,-0.8055,-0.8336,-0.8143,-0.8083,-0.8148,-0.7845,-0.7652,-0.7719,-0.7795,-0.7669,-0.7665,-0.7611,-0.7469,-0.7143,-0.6827,-0.6676,-0.6568,-0.6308,-0.6046,-0.5887,-0.5555,-0.5226,-0.4901,-0.4791,-0.4904,-0.5128,-0.5538,-0.6037,-0.6647,-0.7953,-0.896,-0.9755,-1.0753,-1.1368,-1.1728,-1.1927,-1.2017,-1.2008,-1.2215,-1.2412,-1.2666,-1.292,-1.3065,-1.3152,-1.3296,-1.3402,-1.3716,-1.4212,-1.4812,-1.53,-1.5537,-1.5614,-1.5424,-1.5017,-1.443,-1.3999,-1.3705,-1.361,-1.3962,-1.428,-1.464,-1.5096,-1.5591,-1.6088,-1.6479,-1.6876,-1.7323,-1.7787,-1.8147,-1.8436,-1.886,-1.9288,-1.9762,-2.02,-2.0527,-2.0909,-2.1198,-2.1554,-2.1928,-2.2271,-2.2571,-2.2884,-2.3175,-2.336,-2.3407,-2.3407,-2.3453,-2.3526,-2.3576,-2.3756,-2.3983,-2.4118,-2.4264,-2.4325,-0.2646,-0.2679,-0.2679,-0.2679,-0.2726,-0.2795,-0.2822,-0.2787,-0.291,-0.2954,-0.2982,-0.3116,-0.3413,-0.3854,-0.4351,-0.5389,-0.6556,-0.7196,-0.7663,-0.8051,-0.8211,-0.822,-0.8445,-0.8101,-0.7881,-0.7595,-0.7184,-0.6972,-0.7034,-0.6904,-0.6573,-0.614,-0.6076,-0.5905,-0.5638,-0.5475,-0.5433,-0.5382,-0.5391,-0.534,-0.5344,-0.512,-0.4904,-0.4849,-0.4846,-0.4959,-0.523,-0.5736,-0.6232,-0.6853,-0.7835,-0.8587,-0.9228,-0.9865,-1.06,-1.1065,-1.1276,-1.1267,-1.1267,-1.1469,-1.1819,-1.2067,-1.2372,-1.2666,-1.2871,-1.3065,-1.3296,-1.3716,-1.4118,-1.4777,-1.5267,-1.5402,-1.539,-1.5244,-1.4743,-1.4233,-1.3763,-1.3382,-1.3392,-1.3594,-1.3868,-1.428,-1.4743,-1.5232,-1.5812,-1.6219,-1.6633,-1.7031,-1.7516,-1.7868,-1.8201,-1.8822,-1.9325,-1.969,-2.0131,-2.0426,-2.0745,-2.1023,-2.137,-2.1764,-2.2101,-2.2436,-2.2721,-2.3003,-2.3119,-2.3313,-2.3407,-2.3481,-2.3576,-2.3692,-2.3941,-2.4155,-2.4173,-2.4275,-2.4236,-0.2513,-0.2613,-0.2646,-0.2679,-0.2712,-0.2782,-0.2885,-0.2952,-0.3093,-0.3183,-0.3196,-0.3271,-0.3512,-0.3934,-0.4482,-0.5389,-0.6865,-0.7273,-0.7814,-0.8281,-0.8342,-0.8303,-0.8229,-0.7795,-0.7423,-0.7011,-0.6266,-0.6012,-0.6144,-0.582,-0.525,-0.4767,-0.4504,-0.4326,-0.411,-0.4116,-0.4343,-0.4618,-0.4677,-0.4736,-0.4904,-0.4798,-0.4688,-0.4743,-0.4849,-0.512,-0.55,-0.5941,-0.6431,-0.6956,-0.7629,-0.8205,-0.8606,-0.8935,-0.9458,-1.0087,-1.0403,-1.0403,-1.0446,-1.0702,-1.1108,-1.1477,-1.1927,-1.2274,-1.2657,-1.291,-1.3354,-1.3868,-1.4326,-1.4686,-1.5119,-1.521,-1.5119,-1.488,-1.4455,-1.3988,-1.3573,-1.3296,-1.3113,-1.3316,-1.3536,-1.3952,-1.4466,-1.5142,-1.5724,-1.6132,-1.6491,-1.6918,-1.7365,-1.7666,-1.8108,-1.8846,-1.9398,-1.9726,-2.0061,-2.0254,-2.0579,-2.0877,-2.1276,-2.1675,-2.2015,-2.2315,-2.2588,-2.2919,-2.3151,-2.3319,-2.3435,-2.3571,-2.371,-2.3919,-2.4154,-2.4284,-2.4335,-2.4062,-2.3829,-0.232,-0.2353,-0.248,-0.2577,-0.2712,-0.2838,-0.2977,-0.3123,-0.3472,-0.3601,-0.3621,-0.37,-0.384,-0.4096,-0.4705,-0.5653,-0.6592,-0.7314,-0.7897,-0.843,-0.8318,-0.8223,-0.8197,-0.7364,-0.6839,-0.636,-0.5584,-0.5369,-0.5095,-0.4573,-0.3971,-0.3408,-0.3042,-0.2785,-0.2899,-0.2959,-0.3128,-0.368,-0.3904,-0.4184,-0.4519,-0.4574,-0.4684,-0.4849,-0.5011,-0.5289,-0.5727,-0.6159,-0.6539,-0.6972,-0.7439,-0.7806,-0.8025,-0.8131,-0.8231,-0.8606,-0.9033,-0.9614,-0.9718,-1.002,-1.0446,-1.0871,-1.1377,-1.1828,-1.2372,-1.2997,-1.3525,-1.3915,-1.4384,-1.4697,-1.4869,-1.4915,-1.4777,-1.4455,-1.4082,-1.3705,-1.3324,-1.32,-1.3027,-1.3123,-1.3392,-1.381,-1.4326,-1.5006,-1.5635,-1.6001,-1.6405,-1.6833,-1.7282,-1.7679,-1.8187,-1.8936,-1.9384,-1.9726,-1.994,-2.0185,-2.046,-2.0778,-2.1182,-2.1631,-2.1928,-2.2231,-2.2579,-2.2868,-2.3126,-2.3389,-2.3567,-2.3725,-2.3896,-2.4057,-2.4247,-2.4375,-2.4478,-2.4051,-2.3539,-0.1816,-0.2147,-0.2247,-0.2377,-0.2543,-0.2772,-0.3127,-0.3478,-0.3769,-0.4045,-0.4205,-0.4165,-0.4179,-0.4343,-0.4923,-0.5776,-0.6713,-0.7391,-0.8028,-0.8552,-0.8414,-0.8172,-0.7732,-0.6937,-0.6276,-0.54,-0.4569,-0.3733,-0.3583,-0.3396,-0.292,-0.228,-0.1958,-0.1846,-0.2014,-0.2127,-0.274,-0.3408,-0.3962,-0.4298,-0.4463,-0.4519,-0.4574,-0.4798,-0.4959,-0.5344,-0.5727,-0.6105,-0.6381,-0.6701,-0.6961,-0.7069,-0.7176,-0.723,-0.7331,-0.761,-0.7925,-0.8455,-0.8935,-0.9354,-0.9777,-1.0308,-1.0871,-1.1477,-1.2274,-1.3045,-1.3658,-1.4082,-1.4419,-1.4651,-1.4651,-1.4593,-1.4362,-1.4035,-1.3705,-1.343,-1.319,-1.3065,-1.2978,-1.3113,-1.3248,-1.3668,-1.4176,-1.4858,-1.5501,-1.5869,-1.6362,-1.6833,-1.7406,-1.8042,-1.8553,-1.9139,-1.9472,-1.9726,-1.9904,-2.008,-2.0426,-2.0728,-2.1135,-2.154,-2.184,-2.2158,-2.2525,-2.2868,-2.3168,-2.3407,-2.3634,-2.385,-2.3996,-2.4171,-2.4321,-2.4375,-2.4372,-2.3857,-2.3285,-0.1118,-0.1573,-0.189,-0.2114,-0.2347,-0.2777,-0.3273,-0.3717,-0.4213,-0.4576,-0.4733,-0.4647,-0.455,-0.4682,-0.514,-0.5905,-0.679,-0.7516,-0.8152,-0.8551,-0.8511,-0.8012,-0.7309,-0.6421,-0.5374,-0.4447,-0.3545,-0.2762,-0.2258,-0.1997,-0.1817,-0.1398,-0.1176,-0.1233,-0.1514,-0.1903,-0.246,-0.3469,-0.4079,-0.4353,-0.4353,-0.4353,-0.4408,-0.4577,-0.4794,-0.5066,-0.5395,-0.5664,-0.5882,-0.6046,-0.615,-0.6199,-0.6258,-0.6372,-0.6534,-0.681,-0.7128,-0.767,-0.8309,-0.8784,-0.9309,-0.9888,-1.0667,-1.1578,-1.252,-1.3238,-1.3716,-1.4093,-1.4244,-1.4395,-1.4395,-1.4233,-1.3931,-1.36,-1.3324,-1.3152,-1.2968,-1.2929,-1.2881,-1.2968,-1.3152,-1.343,-1.4025,-1.4766,-1.5311,-1.5736,-1.6231,-1.6833,-1.7529,-1.824,-1.8745,-1.9265,-1.9508,-1.9726,-1.9904,-2.0115,-2.0407,-2.0695,-2.1103,-2.1479,-2.1811,-2.2175,-2.2552,-2.2868,-2.3144,-2.3383,-2.3567,-2.385,-2.4074,-2.4152,-2.4228,-2.4284,-2.4153,-2.3682,-2.3146,-0.0208,-0.0397,-0.1338,-0.182,-0.2068,-0.2933,-0.346,-0.3899,-0.4728,-0.514,-0.5239,-0.505,-0.5019,-0.5145,-0.541,-0.5964,-0.6846,-0.7572,-0.8142,-0.8314,-0.8116,-0.7652,-0.6855,-0.583,-0.4708,-0.3847,-0.2815,-0.194,-0.1379,-0.0999,-0.0868,-0.0726,-0.0672,-0.0897,-0.1345,-0.1959,-0.2629,-0.3469,-0.4079,-0.4135,-0.4076,-0.4021,-0.4079,-0.4249,-0.4411,-0.4625,-0.478,-0.4948,-0.5058,-0.5167,-0.5273,-0.5382,-0.5496,-0.5668,-0.5891,-0.6218,-0.6652,-0.7192,-0.783,-0.8415,-0.8988,-0.9769,-1.0753,-1.1778,-1.2578,-1.3142,-1.3573,-1.3915,-1.4057,-1.4057,-1.401,-1.381,-1.3515,-1.3276,-1.3045,-1.291,-1.2774,-1.2774,-1.2774,-1.2822,-1.3055,-1.3334,-1.3647,-1.434,-1.4994,-1.5424,-1.6262,-1.6918,-1.7693,-1.8372,-1.8822,-1.925,-1.9545,-1.9762,-1.9955,-2.0166,-2.0357,-2.0695,-2.1055,-2.1448,-2.1781,-2.2175,-2.2525,-2.279,-2.3045,-2.3265,-2.3453,-2.3576,-2.375,-2.4014,-2.4133,-2.4153,-2.4137,-2.3889,-2.3285,0.0328,0.019,-0.0634,-0.1221,-0.1704,-0.2673,-0.3429,-0.4112,-0.4838,-0.541,-0.5702,-0.554,-0.541,-0.5453,-0.5598,-0.6186,-0.7048,-0.7539,-0.8089,-0.8288,-0.807,-0.7363,-0.6433,-0.5262,-0.4078,-0.3129,-0.2115,-0.1311,-0.0808,-0.0464,-0.0536,-0.0551,-0.0503,-0.0896,-0.1455,-0.246,-0.3241,-0.3577,-0.3968,-0.4079,-0.3796,-0.3744,-0.3802,-0.3852,-0.4079,-0.4132,-0.4181,-0.4294,-0.4294,-0.4346,-0.445,-0.4618,-0.4842,-0.5124,-0.5454,-0.5837,-0.6332,-0.6869,-0.7568,-0.815,-0.889,-0.9865,-1.0846,-1.1778,-1.248,-1.2997,-1.342,-1.3716,-1.3821,-1.3773,-1.3716,-1.3488,-1.321,-1.3007,-1.2813,-1.2676,-1.2578,-1.2578,-1.2627,-1.2676,-1.292,-1.32,-1.3563,-1.392,-1.4536,-1.5198,-1.612,-1.6989,-1.772,-1.8411,-1.8874,-1.925,-1.953,-1.969,-1.9884,-2.008,-2.0308,-2.0646,-2.099,-2.1324,-2.1661,-2.2039,-2.2364,-2.2651,-2.2868,-2.3028,-2.3133,-2.3212,-2.3422,-2.3728,-2.3876,-2.3939,-2.3951,-2.4004,-2.3643,0.0843,0.072,-0.004,-0.0714,-0.1372,-0.2494,-0.3363,-0.4119,-0.4941,-0.5591,-0.6062,-0.5852,-0.5712,-0.568,-0.5853,-0.629,-0.7039,-0.7536,-0.7925,-0.7975,-0.7645,-0.6865,-0.5851,-0.4735,-0.353,-0.2499,-0.1594,-0.0854,-0.0444,-0.0253,-0.0369,-0.0601,-0.0725,-0.1174,-0.2124,-0.3236,-0.3962,-0.3907,-0.3907,-0.3799,-0.3408,-0.3302,-0.3302,-0.3297,-0.3466,-0.3411,-0.3352,-0.3352,-0.3408,-0.3461,-0.3683,-0.3959,-0.4294,-0.4684,-0.512,-0.5559,-0.6105,-0.6647,-0.7348,-0.8256,-0.8995,-0.9865,-1.0702,-1.1519,-1.2224,-1.2754,-1.3142,-1.343,-1.3488,-1.344,-1.344,-1.321,-1.2968,-1.2774,-1.2715,-1.2578,-1.2421,-1.2372,-1.2431,-1.248,-1.2774,-1.3065,-1.3296,-1.3658,-1.4398,-1.5096,-1.5932,-1.6795,-1.7544,-1.824,-1.8798,-1.9176,-1.9545,-1.9654,-1.9797,-2.001,-2.0239,-2.0478,-2.0811,-2.1151,-2.1462,-2.1836,-2.2136,-2.2347,-2.2527,-2.273,-2.2807,-2.2841,-2.3098,-2.345,-2.3649,-2.3899,-2.4059,-2.4153,-2.4241,0.1406,0.1171,0.0335,-0.0408,-0.1192,-0.2503,-0.3347,-0.3882,-0.4985,-0.5771,-0.6142,-0.6019,-0.5884,-0.5837,-0.6008,-0.6433,-0.684,-0.7268,-0.7555,-0.7419,-0.6903,-0.6136,-0.5158,-0.4025,-0.2946,-0.2031,-0.1204,-0.057,-0.0243,-0.0103,-0.0319,-0.0812,-0.1164,-0.1734,-0.2736,-0.3849,-0.4239,-0.3852,-0.3852,-0.3408,-0.291,-0.2745,-0.2631,-0.2631,-0.2742,-0.2742,-0.2573,-0.2517,-0.2573,-0.2687,-0.2907,-0.3297,-0.3796,-0.4298,-0.4739,-0.5179,-0.5828,-0.6426,-0.7139,-0.8415,-0.9204,-0.9769,-1.0549,-1.1226,-1.1877,-1.2372,-1.2764,-1.3055,-1.3065,-1.3075,-1.3075,-1.2978,-1.2725,-1.2627,-1.2569,-1.2421,-1.2274,-1.2215,-1.2274,-1.2332,-1.2627,-1.2929,-1.3113,-1.3478,-1.4258,-1.5028,-1.5832,-1.6612,-1.7284,-1.8028,-1.8616,-1.9064,-1.942,-1.9632,-1.9777,-1.994,-2.017,-2.041,-2.0646,-2.0909,-2.1214,-2.1493,-2.1777,-2.2039,-2.2181,-2.2337,-2.2381,-2.2381,-2.2798,-2.3242,-2.3649,-2.3919,-2.4134,-2.4283,-2.4348,0.1724,0.1271,0.0394,-0.0434,-0.1203,-0.2428,-0.3274,-0.3885,-0.511,-0.597,-0.6142,-0.6067,-0.589,-0.5842,-0.5766,-0.6063,-0.6429,-0.6381,-0.6562,-0.6642,-0.5968,-0.5101,-0.4164,-0.3255,-0.2303,-0.1578,-0.081,-0.0396,-0.0207,-0.0106,-0.0378,-0.0881,-0.1887,-0.2852,-0.3411,-0.4135,-0.4411,-0.3962,-0.3627,-0.3125,-0.235,-0.2128,-0.2015,-0.1903,-0.2128,-0.2073,-0.1903,-0.1903,-0.1961,-0.2074,-0.2352,-0.2852,-0.3352,-0.3907,-0.4463,-0.4956,-0.5609,-0.6426,-0.7289,-0.8362,-0.9047,-0.9614,-1.019,-1.0863,-1.1528,-1.1927,-1.2323,-1.252,-1.2569,-1.2627,-1.2627,-1.2569,-1.2421,-1.2529,-1.2431,-1.2332,-1.2175,-1.2175,-1.2175,-1.2224,-1.2421,-1.2725,-1.2968,-1.3055,-1.3742,-1.4387,-1.5062,-1.5983,-1.6756,-1.7666,-1.8408,-1.886,-1.925,-1.9487,-1.972,-1.9833,-1.9975,-2.015,-2.0342,-2.0579,-2.0877,-2.1166,-2.1401,-2.1658,-2.1823,-2.1957,-2.2141,-2.2337,-2.2677,-2.3042,-2.3518,-2.3939,-2.4173,-2.4298,-2.4369,0.196,0.1253,0.0268,-0.0537,-0.1343,-0.2368,-0.3296,-0.418,-0.5318,-0.5884,-0.5922,-0.5798,-0.5583,-0.5387,-0.5321,-0.538,-0.5753,-0.5639,-0.5533,-0.5586,-0.486,-0.4089,-0.3246,-0.2433,-0.1756,-0.1096,-0.0641,-0.0307,-0.0212,-0.0108,-0.0493,-0.1335,-0.2519,-0.3135,-0.3638,-0.4079,-0.4298,-0.3793,-0.3347,-0.2683,-0.2015,-0.1624,-0.1456,-0.1399,-0.1456,-0.1512,-0.1456,-0.1456,-0.1512,-0.1626,-0.1961,-0.2464,-0.3019,-0.3627,-0.4242,-0.4791,-0.5714,-0.6534,-0.745,-0.8103,-0.8738,-0.9197,-0.9725,-1.0344,-1.1015,-1.1377,-1.1728,-1.1927,-1.2017,-1.2175,-1.2224,-1.2126,-1.2175,-1.2224,-1.2175,-1.2026,-1.1828,-1.1778,-1.1719,-1.1819,-1.2017,-1.2372,-1.2676,-1.2861,-1.3132,-1.3684,-1.4294,-1.5219,-1.6188,-1.7149,-1.7987,-1.8525,-1.8974,-1.9288,-1.9523,-1.969,-1.9797,-1.9919,-2.0115,-2.0342,-2.0527,-2.0794,-2.1023,-2.1276,-2.1462,-2.1721,-2.2056,-2.2337,-2.2738,-2.3116,-2.3518,-2.3899,-2.4192,-2.4217,-2.417,0.2142,0.1164,0.0045,-0.085,-0.1567,-0.2415,-0.348,-0.4753,-0.5236,-0.5453,-0.5491,-0.5308,-0.5053,-0.4789,-0.4739,-0.47,-0.4704,-0.4692,-0.4509,-0.426,-0.3646,-0.2993,-0.2384,-0.1699,-0.1174,-0.073,-0.0403,-0.0208,-0.0214,-0.0383,-0.0835,-0.151,-0.246,-0.3021,-0.3466,-0.3688,-0.3793,-0.3405,-0.2847,-0.2181,-0.1513,-0.1177,-0.0953,-0.0896,-0.0896,-0.0897,-0.0841,-0.0841,-0.0953,-0.1121,-0.1455,-0.2069,-0.2681,-0.3292,-0.3959,-0.4791,-0.5882,-0.6696,-0.7402,-0.7943,-0.8321,-0.8732,-0.9242,-0.9769,-1.0241,-1.071,-1.1015,-1.1267,-1.1418,-1.1619,-1.1778,-1.1819,-1.1819,-1.1819,-1.1778,-1.1578,-1.1326,-1.1226,-1.1175,-1.1267,-1.1469,-1.1769,-1.2076,-1.2314,-1.2393,-1.2764,-1.3369,-1.4157,-1.5229,-1.6574,-1.7368,-1.804,-1.8525,-1.9049,-1.9288,-1.9472,-1.9669,-1.9777,-1.994,-2.0135,-2.0289,-2.0475,-2.0745,-2.1007,-2.1151,-2.1479,-2.1982,-2.2456,-2.2935,-2.3283,-2.358,-2.3899,-2.4192,-2.3824,-2.3658,0.1916,0.0624,-0.0491,-0.1428,-0.2192,-0.2815,-0.3612,-0.4495,-0.4888,-0.5019,-0.4975,-0.4696,-0.4303,-0.4016,-0.3776,-0.3619,-0.3533,-0.3443,-0.3122,-0.2792,-0.2514,-0.1923,-0.144,-0.1005,-0.0614,-0.0393,-0.0204,-0.0159,-0.0329,-0.0505,-0.0898,-0.1457,-0.2294,-0.2629,-0.2852,-0.2963,-0.2965,-0.2854,-0.2348,-0.1736,-0.1121,-0.0785,-0.0561,-0.0449,-0.0505,-0.0505,-0.0505,-0.0505,-0.0617,-0.0841,-0.1065,-0.1624,-0.2181,-0.2794,-0.3516,-0.4904,-0.5832,-0.6588,-0.7235,-0.767,-0.7996,-0.8209,-0.856,-0.9026,-0.9503,-0.9925,-1.0293,-1.0557,-1.0871,-1.1116,-1.1276,-1.1318,-1.1418,-1.1418,-1.1368,-1.1217,-1.0972,-1.0812,-1.0761,-1.071,-1.0956,-1.1108,-1.1469,-1.161,-1.1742,-1.1972,-1.2395,-1.31,-1.4171,-1.5516,-1.6689,-1.7327,-1.8094,-1.8616,-1.9026,-1.9213,-1.945,-1.9647,-1.9797,-1.9975,-2.0096,-2.0304,-2.0527,-2.0844,-2.1261,-2.1628,-2.2051,-2.2537,-2.3028,-2.3301,-2.3598,-2.3899,-2.4045,-2.357,-2.3105,0.1598,0.0133,-0.1068,-0.1964,-0.2549,-0.2771,-0.3167,-0.3609,-0.4096,-0.4268,-0.4045,-0.373,-0.3334,-0.2896,-0.2544,-0.2324,-0.2326,-0.2241,-0.2018,-0.1839,-0.1518,-0.1164,-0.0764,-0.0509,-0.0387,-0.0201,-0.0104,-0.0108,-0.039,-0.0841,-0.1234,-0.1572,-0.2128,-0.2238,-0.2293,-0.2237,-0.2184,-0.2017,-0.168,-0.1232,-0.0784,-0.0449,-0.028,0.0,0.0,0.0,0.0,0.0,-0.0336,-0.0505,-0.0785,-0.1233,-0.1902,-0.2683,-0.3572,-0.4849,-0.5673,-0.6431,-0.7025,-0.7461,-0.7681,-0.7836,-0.7871,-0.8131,-0.8666,-0.9145,-0.9569,-0.9932,-1.03,-1.0565,-1.0667,-1.0769,-1.0922,-1.1074,-1.0972,-1.0863,-1.071,-1.0498,-1.0395,-1.03,-1.0395,-1.0541,-1.0685,-1.0838,-1.0889,-1.0922,-1.1166,-1.1747,-1.2888,-1.4334,-1.556,-1.6506,-1.7368,-1.8133,-1.8539,-1.9026,-1.9339,-1.956,-1.969,-1.9833,-1.9955,-2.0235,-2.0561,-2.0991,-2.1493,-2.1866,-2.2226,-2.2634,-2.3095,-2.3342,-2.3553,-2.3756,-2.3616,-2.2976,-2.2516,0.1152,-0.04,-0.1649,-0.2324,-0.2549,-0.2326,-0.219,-0.2235,-0.2896,-0.3205,-0.2898,-0.2583,-0.2182,-0.1784,-0.1385,-0.1207,-0.1253,-0.1253,-0.1208,-0.1031,-0.0851,-0.0627,-0.0459,-0.0289,-0.0197,-0.0154,-0.016,-0.0219,-0.0557,-0.0954,-0.1403,-0.1741,-0.1794,-0.1792,-0.1679,-0.151,-0.1344,-0.1065,-0.1009,-0.0729,-0.0505,-0.028,0.0,0.0,0.0,0.0,0.0,0.0,-0.0056,-0.028,-0.0505,-0.0952,-0.179,-0.2736,-0.3738,-0.4625,-0.5395,-0.6164,-0.6761,-0.7192,-0.7359,-0.7413,-0.7348,-0.7396,-0.7824,-0.8573,-0.9054,-0.9413,-0.9829,-1.0154,-1.0308,-1.036,-1.0462,-1.0514,-1.0462,-1.0411,-1.036,-1.0095,-0.9777,-0.9725,-0.9666,-0.9814,-0.9814,-0.9961,-1.0028,-0.9917,-1.0115,-1.061,-1.158,-1.3012,-1.438,-1.5584,-1.6689,-1.7585,-1.8305,-1.8745,-1.9213,-1.9472,-1.9617,-1.9762,-1.9919,-2.0254,-2.0595,-2.1087,-2.1584,-2.1986,-2.2326,-2.2721,-2.3028,-2.3336,-2.3486,-2.3588,-2.3218,-2.2464,-2.2026,0.0708,-0.0976,-0.2271,-0.2544,-0.2144,-0.17,-0.1253,-0.0895,-0.1071,-0.1604,-0.2053,-0.1649,-0.1204,-0.076,-0.0402,-0.0313,-0.0448,-0.0538,-0.0494,-0.0494,-0.0359,-0.0316,-0.0182,-0.0143,-0.0099,-0.0152,-0.0211,-0.0385,-0.0782,-0.1122,-0.129,-0.129,-0.1233,-0.112,-0.0896,-0.0672,-0.0448,-0.028,-0.028,-0.0336,-0.0224,-0.0112,0.0,0.0,0.0,0.0,0.0,0.0,0.0,-0.0112,-0.0224,-0.0784,-0.1566,-0.2569,-0.3403,-0.4288,-0.5062,-0.5828,-0.6485,-0.681,-0.6923,-0.6923,-0.6869,-0.6815,-0.7133,-0.7949,-0.8586,-0.8942,-0.9361,-0.9681,-0.9895,-0.9947,-0.9999,-0.9999,-0.9947,-0.9947,-0.9955,-0.9524,-0.9159,-0.9047,-0.8988,-0.8988,-0.8981,-0.904,-0.9106,-0.9211,-0.9361,-0.9762,-1.0466,-1.1729,-1.328,-1.4585,-1.6003,-1.6954,-1.7801,-1.8592,-1.9139,-1.945,-1.9581,-1.9777,-1.9919,-2.0342,-2.0778,-2.1198,-2.1631,-2.2015,-2.2326,-2.2634,-2.296,-2.323,-2.3038,-2.2954,-2.2539,-2.1819,-2.1516,0.0531,-0.1066,-0.2049,-0.2053,-0.1382,-0.0804,-0.0313,0.0045,0.0224,-0.0089,-0.058,-0.0357,-0.0134,0.0224,0.0492,0.0403,0.0224,0.0045,-0.009,-0.009,-0.0135,-0.0137,-0.0047,-0.0096,-0.0301,-0.0362,-0.0536,-0.0774,-0.1008,-0.1122,-0.1234,-0.101,-0.0785,-0.0505,-0.0168,0.0056,0.0224,0.028,0.0224,0.0112,0.0,0.0,0.0,0.0,0.0,0.0,0.0,0.0,0.0,0.0,-0.0224,-0.0673,-0.14,-0.2125,-0.2959,-0.3846,-0.4618,-0.5391,-0.605,-0.6376,-0.648,-0.6431,-0.6332,-0.6273,-0.6431,-0.7187,-0.7883,-0.8349,-0.9099,-0.9472,-0.9524,-0.9577,-0.9524,-0.9524,-0.9427,-0.9323,-0.9054,-0.8567,-0.8302,-0.8084,-0.8084,-0.809,-0.8143,-0.8368,-0.8427,-0.8633,-0.8791,-0.9152,-0.9865,-1.0813,-1.2229,-1.3716,-1.5274,-1.6617,-1.7598,-1.8422,-1.9101,-1.9376,-1.956,-1.9833,-2.0115,-2.053,-2.0991,-2.1308,-2.1661,-2.1986,-2.2326,-2.2357,-2.278,-2.3122,-2.2693,-2.2194,-2.1684,-2.1154,-2.0622,0.0488,-0.0891,-0.1428,-0.1203,-0.0401,0.0312,0.076,0.1029,0.1208,0.1349,0.1265,0.1085,0.1124,0.121,0.1344,0.1074,0.0762,0.0449,0.027,0.0045,-0.0045,-0.0138,-0.0238,-0.0296,-0.0565,-0.0851,-0.1101,-0.1113,-0.1178,-0.1234,-0.1066,-0.0785,-0.0449,-0.0056,0.028,0.056,0.084,0.0728,0.0616,0.0393,0.0224,0.0,0.0,0.0,0.0,0.0,0.0,0.0,0.0,0.0,-0.0224,-0.0673,-0.1177,-0.1792,-0.2571,-0.3458,-0.4181,-0.4897,-0.55,-0.5828,-0.5878,-0.5937,-0.5786,-0.5786,-0.5941,-0.6426,-0.7122,-0.7818,-0.862,-0.9099,-0.9159,-0.9211,-0.9159,-0.8995,-0.8844,-0.858,-0.809,-0.7605,-0.7337,-0.7122,-0.7122,-0.7182,-0.7402,-0.7622,-0.7895,-0.8109,-0.8474,-0.889,-0.9503,-1.0653,-1.1935,-1.3412,-1.4903,-1.6182,-1.7368,-1.8252,-1.8988,-1.9265,-1.9472,-1.9854,-2.0239,-2.0563,-2.0926,-2.1339,-2.1675,-2.1723,-2.1674,-2.1678,-2.22,-2.2621,-2.2177,-2.1481,-2.0969,-2.0385,-1.9589,0.0444,-0.1028,-0.0847,-0.0178,0.0757,0.1428,0.2008,0.241,0.237,0.2504,0.2597,0.2569,0.2359,0.1658,0.1794,0.1528,0.0905,0.0632,0.0315,0.0045,-0.009,-0.0231,-0.0433,-0.0657,-0.105,-0.1359,-0.1616,-0.1733,-0.129,-0.1122,-0.0841,-0.028,0.0393,0.084,0.1399,0.1567,0.1512,0.1288,0.0952,0.0673,0.0336,0.0,0.0,0.0,0.0,0.0,0.0,0.0,0.0,0.0,-0.0168,-0.0505,-0.0953,-0.1512,-0.2237,-0.3016,-0.3793,-0.4291,-0.4783,-0.5058,-0.5113,-0.5058,-0.5011,-0.5124,-0.5395,-0.5837,-0.6539,-0.7241,-0.799,-0.8685,-0.8844,-0.8903,-0.885,-0.8514,-0.8296,-0.7652,-0.7111,-0.6573,-0.6195,-0.6032,-0.6036,-0.6253,-0.6632,-0.702,-0.7568,-0.7889,-0.8374,-0.8784,-0.9406,-1.0509,-1.1648,-1.307,-1.4574,-1.5935,-1.7175,-1.808,-1.8784,-1.9064,-1.9362,-1.9762,-2.01,-2.0395,-2.078,-2.102,-2.1046,-2.1026,-2.1002,-2.0926,-2.1032,-2.1324,-2.1218,-2.0789,-2.0276,-1.969,-1.8955]}]]